<?xml version="1.0" encoding="utf-8"?>
<gpx xmlns:xsi="http://www.w3.org/2001/XMLSchema-instance" xmlns:xsd="http://www.w3.org/2001/XMLSchema" version="1.1" creator="Shapelink.com" xmlns="http://www.topografix.com/GPX/1/1" xmlns:gpxtpx="http://www.garmin.com/xmlschemas/TrackPointExtension/v1">
  <metadata>
    <name>Löpning 14.38 km, 2011-03-21</name>
    <desc></desc>
    <author><name>Jojje Borssén</name></author> 
    <time>2011-03-21T17:32:41Z</time>
  </metadata>
  <trk>
    <name>Löpning 14.38 km, 2011-03-21</name>
    <trkseg>
      <trkpt lat="37.1791003875" lon="-7.44442890907">
        <ele>9.4</ele>
        <time>2011-03-21T17:32:41Z</time>
      </trkpt>
      <trkpt lat="37.1791038241" lon="-7.4443681403">
        <ele>9.4</ele>
        <time>2011-03-21T17:32:43Z</time>
      </trkpt>
      <trkpt lat="37.1791087694" lon="-7.44429605596">
        <ele>9.4</ele>
        <time>2011-03-21T17:32:45Z</time>
      </trkpt>
      <trkpt lat="37.1791143015" lon="-7.44423017422">
        <ele>9.4</ele>
        <time>2011-03-21T17:32:47Z</time>
      </trkpt>
      <trkpt lat="37.1791189954" lon="-7.44415867661">
        <ele>9.4</ele>
        <time>2011-03-21T17:32:49Z</time>
      </trkpt>
      <trkpt lat="37.1791269582" lon="-7.44409162141">
        <ele>9.4</ele>
        <time>2011-03-21T17:32:51Z</time>
      </trkpt>
      <trkpt lat="37.1791322388" lon="-7.44402573968">
        <ele>9.4</ele>
        <time>2011-03-21T17:32:53Z</time>
      </trkpt>
      <trkpt lat="37.1791420456" lon="-7.44394443525">
        <ele>9.4</ele>
        <time>2011-03-21T17:32:55Z</time>
      </trkpt>
      <trkpt lat="37.1791521039" lon="-7.44387243473">
        <ele>9.4</ele>
        <time>2011-03-21T17:32:57Z</time>
      </trkpt>
      <trkpt lat="37.1791636709" lon="-7.44380135622">
        <ele>9.4</ele>
        <time>2011-03-21T17:32:59Z</time>
      </trkpt>
      <trkpt lat="37.1791802671" lon="-7.44373756996">
        <ele>9.4</ele>
        <time>2011-03-21T17:33:01Z</time>
      </trkpt>
      <trkpt lat="37.1792008865" lon="-7.44366439597">
        <ele>9.4</ele>
        <time>2011-03-21T17:33:04Z</time>
      </trkpt>
      <trkpt lat="37.1792251102" lon="-7.44359105435">
        <ele>9.4</ele>
        <time>2011-03-21T17:33:07Z</time>
      </trkpt>
      <trkpt lat="37.1792490825" lon="-7.44353062085">
        <ele>9.4</ele>
        <time>2011-03-21T17:33:09Z</time>
      </trkpt>
      <trkpt lat="37.1792681932" lon="-7.44347379157">
        <ele>9.4</ele>
        <time>2011-03-21T17:33:11Z</time>
      </trkpt>
      <trkpt lat="37.1792820233" lon="-7.44341159787">
        <ele>9.4</ele>
        <time>2011-03-21T17:33:13Z</time>
      </trkpt>
      <trkpt lat="37.1792971107" lon="-7.44336030064">
        <ele>9.4</ele>
        <time>2011-03-21T17:33:15Z</time>
      </trkpt>
      <trkpt lat="37.1793334044" lon="-7.44330908723">
        <ele>9.4</ele>
        <time>2011-03-21T17:33:17Z</time>
      </trkpt>
      <trkpt lat="37.1793691951" lon="-7.44325175503">
        <ele>9.4</ele>
        <time>2011-03-21T17:33:19Z</time>
      </trkpt>
      <trkpt lat="37.1793992023" lon="-7.44318754968">
        <ele>9.4</ele>
        <time>2011-03-21T17:33:21Z</time>
      </trkpt>
      <trkpt lat="37.1794275331" lon="-7.44312124885">
        <ele>9.4</ele>
        <time>2011-03-21T17:33:23Z</time>
      </trkpt>
      <trkpt lat="37.1794450513" lon="-7.44305377456">
        <ele>9.4</ele>
        <time>2011-03-21T17:33:25Z</time>
      </trkpt>
      <trkpt lat="37.1794619827" lon="-7.44298571353">
        <ele>9.4</ele>
        <time>2011-03-21T17:33:27Z</time>
      </trkpt>
      <trkpt lat="37.1794820155" lon="-7.44291597612">
        <ele>9.4</ele>
        <time>2011-03-21T17:33:29Z</time>
      </trkpt>
      <trkpt lat="37.1794985278" lon="-7.44284825037">
        <ele>9.4</ele>
        <time>2011-03-21T17:33:31Z</time>
      </trkpt>
      <trkpt lat="37.1795152916" lon="-7.44277817768">
        <ele>9.4</ele>
        <time>2011-03-21T17:33:33Z</time>
      </trkpt>
      <trkpt lat="37.1795338156" lon="-7.44270952992">
        <ele>9.4</ele>
        <time>2011-03-21T17:33:35Z</time>
      </trkpt>
      <trkpt lat="37.1795509985" lon="-7.44265001843">
        <ele>9.4</ele>
        <time>2011-03-21T17:33:37Z</time>
      </trkpt>
      <trkpt lat="37.1795713665" lon="-7.44257793409">
        <ele>9.4</ele>
        <time>2011-03-21T17:33:39Z</time>
      </trkpt>
      <trkpt lat="37.1795919022" lon="-7.44250962161">
        <ele>9.4</ele>
        <time>2011-03-21T17:33:41Z</time>
      </trkpt>
      <trkpt lat="37.1796131922" lon="-7.44243787254">
        <ele>9.4</ele>
        <time>2011-03-21T17:33:43Z</time>
      </trkpt>
      <trkpt lat="37.1796294531" lon="-7.44236738077">
        <ele>9.4</ele>
        <time>2011-03-21T17:33:45Z</time>
      </trkpt>
      <trkpt lat="37.1796457978" lon="-7.44229823009">
        <ele>9.4</ele>
        <time>2011-03-21T17:33:47Z</time>
      </trkpt>
      <trkpt lat="37.1796647409" lon="-7.44222622957">
        <ele>9.4</ele>
        <time>2011-03-21T17:33:49Z</time>
      </trkpt>
      <trkpt lat="37.1796791577" lon="-7.44215682744">
        <ele>9.4</ele>
        <time>2011-03-21T17:33:51Z</time>
      </trkpt>
      <trkpt lat="37.1796991905" lon="-7.44208968842">
        <ele>9.4</ele>
        <time>2011-03-21T17:33:53Z</time>
      </trkpt>
      <trkpt lat="37.1797162057" lon="-7.44202263322">
        <ele>9.4</ele>
        <time>2011-03-21T17:33:55Z</time>
      </trkpt>
      <trkpt lat="37.179728108" lon="-7.44194275371">
        <ele>9.4</ele>
        <time>2011-03-21T17:33:57Z</time>
      </trkpt>
      <trkpt lat="37.1797473864" lon="-7.44187594997">
        <ele>9.4</ele>
        <time>2011-03-21T17:33:59Z</time>
      </trkpt>
      <trkpt lat="37.1797691793" lon="-7.44180906241">
        <ele>9.4</ele>
        <time>2011-03-21T17:34:01Z</time>
      </trkpt>
      <trkpt lat="37.1797919781" lon="-7.44174393504">
        <ele>9.4</ele>
        <time>2011-03-21T17:34:03Z</time>
      </trkpt>
      <trkpt lat="37.1798114241" lon="-7.44167864004">
        <ele>9.4</ele>
        <time>2011-03-21T17:34:05Z</time>
      </trkpt>
      <trkpt lat="37.1798345582" lon="-7.44159825762">
        <ele>9</ele>
        <time>2011-03-21T17:34:08Z</time>
      </trkpt>
      <trkpt lat="37.1798618832" lon="-7.44152843639">
        <ele>8.6</ele>
        <time>2011-03-21T17:34:11Z</time>
      </trkpt>
      <trkpt lat="37.1798711033" lon="-7.44151309752">
        <ele>8.4</ele>
        <time>2011-03-21T17:34:12Z</time>
      </trkpt>
      <trkpt lat="37.1799394996" lon="-7.44149733955">
        <ele>8</ele>
        <time>2011-03-21T17:34:16Z</time>
      </trkpt>
      <trkpt lat="37.1799700935" lon="-7.44148619162">
        <ele>7.8</ele>
        <time>2011-03-21T17:34:18Z</time>
      </trkpt>
      <trkpt lat="37.1800419264" lon="-7.44147864791">
        <ele>7.6</ele>
        <time>2011-03-21T17:34:22Z</time>
      </trkpt>
      <trkpt lat="37.1800986718" lon="-7.44148225213">
        <ele>7.6</ele>
        <time>2011-03-21T17:34:24Z</time>
      </trkpt>
      <trkpt lat="37.1801544953" lon="-7.44147546279">
        <ele>7.6</ele>
        <time>2011-03-21T17:34:26Z</time>
      </trkpt>
      <trkpt lat="37.1802111569" lon="-7.44146766762">
        <ele>7.4</ele>
        <time>2011-03-21T17:34:28Z</time>
      </trkpt>
      <trkpt lat="37.1802670642" lon="-7.44146498541">
        <ele>7.4</ele>
        <time>2011-03-21T17:34:30Z</time>
      </trkpt>
      <trkpt lat="37.1803211275" lon="-7.44145978863">
        <ele>7.4</ele>
        <time>2011-03-21T17:34:32Z</time>
      </trkpt>
      <trkpt lat="37.1803742687" lon="-7.44144956272">
        <ele>7.4</ele>
        <time>2011-03-21T17:34:34Z</time>
      </trkpt>
      <trkpt lat="37.1804331935" lon="-7.44144176755">
        <ele>7.4</ele>
        <time>2011-03-21T17:34:36Z</time>
      </trkpt>
      <trkpt lat="37.1804825629" lon="-7.44143430766">
        <ele>7.4</ele>
        <time>2011-03-21T17:34:38Z</time>
      </trkpt>
      <trkpt lat="37.1805367938" lon="-7.44143363711">
        <ele>7.4</ele>
        <time>2011-03-21T17:34:40Z</time>
      </trkpt>
      <trkpt lat="37.1806201098" lon="-7.44143028435">
        <ele>7.4</ele>
        <time>2011-03-21T17:34:43Z</time>
      </trkpt>
      <trkpt lat="37.1806794537" lon="-7.44142458465">
        <ele>7.4</ele>
        <time>2011-03-21T17:34:45Z</time>
      </trkpt>
      <trkpt lat="37.1807601714" lon="-7.44140614447">
        <ele>7.4</ele>
        <time>2011-03-21T17:34:48Z</time>
      </trkpt>
      <trkpt lat="37.1808209402" lon="-7.44140178589">
        <ele>7.2</ele>
        <time>2011-03-21T17:34:50Z</time>
      </trkpt>
      <trkpt lat="37.1808716507" lon="-7.44139491273">
        <ele>7.2</ele>
        <time>2011-03-21T17:34:52Z</time>
      </trkpt>
      <trkpt lat="37.1809459143" lon="-7.441385525">
        <ele>7.4</ele>
        <time>2011-03-21T17:34:55Z</time>
      </trkpt>
      <trkpt lat="37.1810194236" lon="-7.44136934793">
        <ele>8</ele>
        <time>2011-03-21T17:34:58Z</time>
      </trkpt>
      <trkpt lat="37.1810740735" lon="-7.44136021166">
        <ele>8.2</ele>
        <time>2011-03-21T17:35:00Z</time>
      </trkpt>
      <trkpt lat="37.1811372731" lon="-7.44134939901">
        <ele>8.4</ele>
        <time>2011-03-21T17:35:02Z</time>
      </trkpt>
      <trkpt lat="37.1811884027" lon="-7.44133414395">
        <ele>8.6</ele>
        <time>2011-03-21T17:35:04Z</time>
      </trkpt>
      <trkpt lat="37.1812386102" lon="-7.44131771543">
        <ele>8.8</ele>
        <time>2011-03-21T17:35:06Z</time>
      </trkpt>
      <trkpt lat="37.1813232674" lon="-7.4413048073">
        <ele>9</ele>
        <time>2011-03-21T17:35:09Z</time>
      </trkpt>
      <trkpt lat="37.1813851258" lon="-7.44129265355">
        <ele>9</ele>
        <time>2011-03-21T17:35:11Z</time>
      </trkpt>
      <trkpt lat="37.1814516781" lon="-7.4412814218">
        <ele>9.2</ele>
        <time>2011-03-21T17:35:13Z</time>
      </trkpt>
      <trkpt lat="37.1815194039" lon="-7.44127329136">
        <ele>9.6</ele>
        <time>2011-03-21T17:35:15Z</time>
      </trkpt>
      <trkpt lat="37.1815769037" lon="-7.44126239489">
        <ele>10</ele>
        <time>2011-03-21T17:35:17Z</time>
      </trkpt>
      <trkpt lat="37.1816365828" lon="-7.44125258807">
        <ele>10.2</ele>
        <time>2011-03-21T17:35:19Z</time>
      </trkpt>
      <trkpt lat="37.1816998662" lon="-7.44124781038">
        <ele>10.4</ele>
        <time>2011-03-21T17:35:21Z</time>
      </trkpt>
      <trkpt lat="37.181757366" lon="-7.4412399314">
        <ele>10.6</ele>
        <time>2011-03-21T17:35:23Z</time>
      </trkpt>
      <trkpt lat="37.1818233316" lon="-7.4412346508">
        <ele>10.8</ele>
        <time>2011-03-21T17:35:25Z</time>
      </trkpt>
      <trkpt lat="37.1818865311" lon="-7.44123004075">
        <ele>11.2</ele>
        <time>2011-03-21T17:35:27Z</time>
      </trkpt>
      <trkpt lat="37.1819524967" lon="-7.44122677181">
        <ele>11.8</ele>
        <time>2011-03-21T17:35:29Z</time>
      </trkpt>
      <trkpt lat="37.1820094936" lon="-7.44121998247">
        <ele>12</ele>
        <time>2011-03-21T17:35:31Z</time>
      </trkpt>
      <trkpt lat="37.1820718549" lon="-7.44120699053">
        <ele>12.2</ele>
        <time>2011-03-21T17:35:33Z</time>
      </trkpt>
      <trkpt lat="37.1821363117" lon="-7.441199363">
        <ele>12.6</ele>
        <time>2011-03-21T17:35:35Z</time>
      </trkpt>
      <trkpt lat="37.1822045404" lon="-7.44119282512">
        <ele>13</ele>
        <time>2011-03-21T17:35:37Z</time>
      </trkpt>
      <trkpt lat="37.1822691648" lon="-7.44119072964">
        <ele>13.4</ele>
        <time>2011-03-21T17:35:39Z</time>
      </trkpt>
      <trkpt lat="37.1823222223" lon="-7.4411874607">
        <ele>13.8</ele>
        <time>2011-03-21T17:35:41Z</time>
      </trkpt>
      <trkpt lat="37.1823893613" lon="-7.4411773186">
        <ele>14.2</ele>
        <time>2011-03-21T17:35:43Z</time>
      </trkpt>
      <trkpt lat="37.1824547401" lon="-7.44116851761">
        <ele>14.4</ele>
        <time>2011-03-21T17:35:45Z</time>
      </trkpt>
      <trkpt lat="37.1825217115" lon="-7.44115703441">
        <ele>14.6</ele>
        <time>2011-03-21T17:35:47Z</time>
      </trkpt>
      <trkpt lat="37.1825839052" lon="-7.44114764668">
        <ele>14.8</ele>
        <time>2011-03-21T17:35:49Z</time>
      </trkpt>
      <trkpt lat="37.1826393095" lon="-7.44114102498">
        <ele>15.2</ele>
        <time>2011-03-21T17:35:51Z</time>
      </trkpt>
      <trkpt lat="37.1826983181" lon="-7.44113247544">
        <ele>15.6</ele>
        <time>2011-03-21T17:35:53Z</time>
      </trkpt>
      <trkpt lat="37.1827586678" lon="-7.44111831003">
        <ele>16</ele>
        <time>2011-03-21T17:35:55Z</time>
      </trkpt>
      <trkpt lat="37.1828207777" lon="-7.44110489899">
        <ele>16.4</ele>
        <time>2011-03-21T17:35:57Z</time>
      </trkpt>
      <trkpt lat="37.1828838096" lon="-7.4410934996">
        <ele>16.6</ele>
        <time>2011-03-21T17:35:59Z</time>
      </trkpt>
      <trkpt lat="37.1829459194" lon="-7.44107681962">
        <ele>16.8</ele>
        <time>2011-03-21T17:36:01Z</time>
      </trkpt>
      <trkpt lat="37.1830079455" lon="-7.44106894064">
        <ele>17</ele>
        <time>2011-03-21T17:36:03Z</time>
      </trkpt>
      <trkpt lat="37.1830726538" lon="-7.44106030728">
        <ele>17.2</ele>
        <time>2011-03-21T17:36:05Z</time>
      </trkpt>
      <trkpt lat="37.183137362" lon="-7.44104882408">
        <ele>17.2</ele>
        <time>2011-03-21T17:36:07Z</time>
      </trkpt>
      <trkpt lat="37.1832043334" lon="-7.44103717324">
        <ele>17.4</ele>
        <time>2011-03-21T17:36:09Z</time>
      </trkpt>
      <trkpt lat="37.1832817822" lon="-7.44102434893">
        <ele>17.4</ele>
        <time>2011-03-21T17:36:11Z</time>
      </trkpt>
      <trkpt lat="37.1833516872" lon="-7.44101169226">
        <ele>17.6</ele>
        <time>2011-03-21T17:36:13Z</time>
      </trkpt>
      <trkpt lat="37.183425867" lon="-7.44100104725">
        <ele>17.6</ele>
        <time>2011-03-21T17:36:15Z</time>
      </trkpt>
      <trkpt lat="37.1834951015" lon="-7.4409884744">
        <ele>17.6</ele>
        <time>2011-03-21T17:36:17Z</time>
      </trkpt>
      <trkpt lat="37.183565761" lon="-7.44097489572">
        <ele>17.6</ele>
        <time>2011-03-21T17:36:19Z</time>
      </trkpt>
      <trkpt lat="37.1836361689" lon="-7.44096324488">
        <ele>17.6</ele>
        <time>2011-03-21T17:36:21Z</time>
      </trkpt>
      <trkpt lat="37.1837043976" lon="-7.44094849273">
        <ele>17.6</ele>
        <time>2011-03-21T17:36:23Z</time>
      </trkpt>
      <trkpt lat="37.1837761466" lon="-7.44093063929">
        <ele>17.8</ele>
        <time>2011-03-21T17:36:25Z</time>
      </trkpt>
      <trkpt lat="37.1838481472" lon="-7.44092175447">
        <ele>17.8</ele>
        <time>2011-03-21T17:36:27Z</time>
      </trkpt>
      <trkpt lat="37.1839179684" lon="-7.44092468814">
        <ele>17.8</ele>
        <time>2011-03-21T17:36:29Z</time>
      </trkpt>
      <trkpt lat="37.1839719478" lon="-7.44092049719">
        <ele>17.8</ele>
        <time>2011-03-21T17:36:31Z</time>
      </trkpt>
      <trkpt lat="37.1840214849" lon="-7.44091152855">
        <ele>17.8</ele>
        <time>2011-03-21T17:36:33Z</time>
      </trkpt>
      <trkpt lat="37.1840861093" lon="-7.44090633178">
        <ele>17.8</ele>
        <time>2011-03-21T17:36:35Z</time>
      </trkpt>
      <trkpt lat="37.1841420166" lon="-7.4408812699">
        <ele>17.8</ele>
        <time>2011-03-21T17:36:37Z</time>
      </trkpt>
      <trkpt lat="37.1841909669" lon="-7.44081890856">
        <ele>17.8</ele>
        <time>2011-03-21T17:36:39Z</time>
      </trkpt>
      <trkpt lat="37.1842223152" lon="-7.44074246563">
        <ele>17.8</ele>
        <time>2011-03-21T17:36:41Z</time>
      </trkpt>
      <trkpt lat="37.1842356424" lon="-7.4407013105">
        <ele>17.8</ele>
        <time>2011-03-21T17:36:42Z</time>
      </trkpt>
      <trkpt lat="37.184254334" lon="-7.44058119788">
        <ele>17.8</ele>
        <time>2011-03-21T17:36:45Z</time>
      </trkpt>
      <trkpt lat="37.1842591117" lon="-7.44050064782">
        <ele>17.8</ele>
        <time>2011-03-21T17:36:47Z</time>
      </trkpt>
      <trkpt lat="37.1842617101" lon="-7.44041775083">
        <ele>17.8</ele>
        <time>2011-03-21T17:36:49Z</time>
      </trkpt>
      <trkpt lat="37.1842715169" lon="-7.44034642086">
        <ele>17.8</ele>
        <time>2011-03-21T17:36:51Z</time>
      </trkpt>
      <trkpt lat="37.1842787254" lon="-7.44027609672">
        <ele>17.8</ele>
        <time>2011-03-21T17:36:53Z</time>
      </trkpt>
      <trkpt lat="37.184292807" lon="-7.44019730686">
        <ele>17.8</ele>
        <time>2011-03-21T17:36:55Z</time>
      </trkpt>
      <trkpt lat="37.1843135941" lon="-7.44011516424">
        <ele>17.8</ele>
        <time>2011-03-21T17:36:57Z</time>
      </trkpt>
      <trkpt lat="37.1843428469" lon="-7.44003494945">
        <ele>17.8</ele>
        <time>2011-03-21T17:36:59Z</time>
      </trkpt>
      <trkpt lat="37.1843758716" lon="-7.43996395476">
        <ele>17.8</ele>
        <time>2011-03-21T17:37:01Z</time>
      </trkpt>
      <trkpt lat="37.1844088125" lon="-7.43988927203">
        <ele>17.8</ele>
        <time>2011-03-21T17:37:03Z</time>
      </trkpt>
      <trkpt lat="37.1844371433" lon="-7.43981173946">
        <ele>17.8</ele>
        <time>2011-03-21T17:37:05Z</time>
      </trkpt>
      <trkpt lat="37.1844697489" lon="-7.43973646999">
        <ele>17.8</ele>
        <time>2011-03-21T17:37:07Z</time>
      </trkpt>
      <trkpt lat="37.1845013486" lon="-7.43965918888">
        <ele>17.8</ele>
        <time>2011-03-21T17:37:09Z</time>
      </trkpt>
      <trkpt lat="37.184526662" lon="-7.4395917984">
        <ele>17.8</ele>
        <time>2011-03-21T17:37:11Z</time>
      </trkpt>
      <trkpt lat="37.1845568368" lon="-7.43952373737">
        <ele>17.8</ele>
        <time>2011-03-21T17:37:13Z</time>
      </trkpt>
      <trkpt lat="37.1845889395" lon="-7.43945123394">
        <ele>17.8</ele>
        <time>2011-03-21T17:37:15Z</time>
      </trkpt>
      <trkpt lat="37.1846147557" lon="-7.43936406218">
        <ele>17.8</ele>
        <time>2011-03-21T17:37:17Z</time>
      </trkpt>
      <trkpt lat="37.1846401529" lon="-7.43929415713">
        <ele>17.8</ele>
        <time>2011-03-21T17:37:19Z</time>
      </trkpt>
      <trkpt lat="37.184663706" lon="-7.43922576083">
        <ele>17.8</ele>
        <time>2011-03-21T17:37:21Z</time>
      </trkpt>
      <trkpt lat="37.1846811404" lon="-7.43916138783">
        <ele>17.8</ele>
        <time>2011-03-21T17:37:23Z</time>
      </trkpt>
      <trkpt lat="37.1847001673" lon="-7.439094165">
        <ele>17.8</ele>
        <time>2011-03-21T17:37:25Z</time>
      </trkpt>
      <trkpt lat="37.1847156738" lon="-7.43902392467">
        <ele>17.8</ele>
        <time>2011-03-21T17:37:27Z</time>
      </trkpt>
      <trkpt lat="37.1847331082" lon="-7.43894999632">
        <ele>17.8</ele>
        <time>2011-03-21T17:37:29Z</time>
      </trkpt>
      <trkpt lat="37.184758673" lon="-7.43887531359">
        <ele>17.8</ele>
        <time>2011-03-21T17:37:31Z</time>
      </trkpt>
      <trkpt lat="37.1847890993" lon="-7.43881345517">
        <ele>17.8</ele>
        <time>2011-03-21T17:37:33Z</time>
      </trkpt>
      <trkpt lat="37.1848231298" lon="-7.43873977826">
        <ele>17.8</ele>
        <time>2011-03-21T17:37:35Z</time>
      </trkpt>
      <trkpt lat="37.1848571603" lon="-7.4386649279">
        <ele>17.8</ele>
        <time>2011-03-21T17:37:37Z</time>
      </trkpt>
      <trkpt lat="37.1848906041" lon="-7.43859108336">
        <ele>17.8</ele>
        <time>2011-03-21T17:37:39Z</time>
      </trkpt>
      <trkpt lat="37.1849129837" lon="-7.43851824465">
        <ele>17.8</ele>
        <time>2011-03-21T17:37:41Z</time>
      </trkpt>
      <trkpt lat="37.1849455055" lon="-7.4384452383">
        <ele>17.8</ele>
        <time>2011-03-21T17:37:43Z</time>
      </trkpt>
      <trkpt lat="37.184972579" lon="-7.43837214813">
        <ele>17.8</ele>
        <time>2011-03-21T17:37:45Z</time>
      </trkpt>
      <trkpt lat="37.1849984791" lon="-7.4383023269">
        <ele>17.8</ele>
        <time>2011-03-21T17:37:47Z</time>
      </trkpt>
      <trkpt lat="37.1850309171" lon="-7.43823141603">
        <ele>17.8</ele>
        <time>2011-03-21T17:37:49Z</time>
      </trkpt>
      <trkpt lat="37.1850394666" lon="-7.43819847516">
        <ele>17.8</ele>
        <time>2011-03-21T17:37:50Z</time>
      </trkpt>
      <trkpt lat="37.1850574877" lon="-7.43813217433">
        <ele>17.8</ele>
        <time>2011-03-21T17:37:52Z</time>
      </trkpt>
      <trkpt lat="37.1850838907" lon="-7.43806335893">
        <ele>17.8</ele>
        <time>2011-03-21T17:37:54Z</time>
      </trkpt>
      <trkpt lat="37.1851069409" lon="-7.43799186133">
        <ele>17.8</ele>
        <time>2011-03-21T17:37:56Z</time>
      </trkpt>
      <trkpt lat="37.1851361937" lon="-7.43791726242">
        <ele>17.8</ele>
        <time>2011-03-21T17:37:58Z</time>
      </trkpt>
      <trkpt lat="37.1851661171" lon="-7.43783905929">
        <ele>17.8</ele>
        <time>2011-03-21T17:38:00Z</time>
      </trkpt>
      <trkpt lat="37.1851974654" lon="-7.43776068853">
        <ele>17.8</ele>
        <time>2011-03-21T17:38:02Z</time>
      </trkpt>
      <trkpt lat="37.1852345134" lon="-7.43767519315">
        <ele>17.8</ele>
        <time>2011-03-21T17:38:04Z</time>
      </trkpt>
      <trkpt lat="37.1852690469" lon="-7.43758274079">
        <ele>17.6</ele>
        <time>2011-03-21T17:38:06Z</time>
      </trkpt>
      <trkpt lat="37.185301401" lon="-7.43749447938">
        <ele>17.2</ele>
        <time>2011-03-21T17:38:08Z</time>
      </trkpt>
      <trkpt lat="37.1853371917" lon="-7.43741703063">
        <ele>17</ele>
        <time>2011-03-21T17:38:10Z</time>
      </trkpt>
      <trkpt lat="37.1853591523" lon="-7.43734377282">
        <ele>16.8</ele>
        <time>2011-03-21T17:38:12Z</time>
      </trkpt>
      <trkpt lat="37.1853692944" lon="-7.43726892245">
        <ele>16.6</ele>
        <time>2011-03-21T17:38:14Z</time>
      </trkpt>
      <trkpt lat="37.1854011456" lon="-7.43719474264">
        <ele>16.4</ele>
        <time>2011-03-21T17:38:16Z</time>
      </trkpt>
      <trkpt lat="37.1854281353" lon="-7.43712349649">
        <ele>16.2</ele>
        <time>2011-03-21T17:38:18Z</time>
      </trkpt>
      <trkpt lat="37.1854553765" lon="-7.43705836912">
        <ele>16.2</ele>
        <time>2011-03-21T17:38:20Z</time>
      </trkpt>
      <trkpt lat="37.185479684" lon="-7.43698594951">
        <ele>16</ele>
        <time>2011-03-21T17:38:22Z</time>
      </trkpt>
      <trkpt lat="37.1855052488" lon="-7.43691294316">
        <ele>16</ele>
        <time>2011-03-21T17:38:24Z</time>
      </trkpt>
      <trkpt lat="37.1855334958" lon="-7.43683976917">
        <ele>16</ele>
        <time>2011-03-21T17:38:26Z</time>
      </trkpt>
      <trkpt lat="37.1855591444" lon="-7.436766679">
        <ele>16</ele>
        <time>2011-03-21T17:38:28Z</time>
      </trkpt>
      <trkpt lat="37.1855824461" lon="-7.43669233155">
        <ele>16</ele>
        <time>2011-03-21T17:38:30Z</time>
      </trkpt>
      <trkpt lat="37.185610274" lon="-7.43662318088">
        <ele>15.8</ele>
        <time>2011-03-21T17:38:32Z</time>
      </trkpt>
      <trkpt lat="37.1856381019" lon="-7.43655210236">
        <ele>15.8</ele>
        <time>2011-03-21T17:38:34Z</time>
      </trkpt>
      <trkpt lat="37.1856603139" lon="-7.43648018566">
        <ele>15.8</ele>
        <time>2011-03-21T17:38:36Z</time>
      </trkpt>
      <trkpt lat="37.1856853758" lon="-7.43640793368">
        <ele>15.8</ele>
        <time>2011-03-21T17:38:38Z</time>
      </trkpt>
      <trkpt lat="37.1857080908" lon="-7.43633400533">
        <ele>15.8</ele>
        <time>2011-03-21T17:38:40Z</time>
      </trkpt>
      <trkpt lat="37.1857292132" lon="-7.43626426792">
        <ele>15.4</ele>
        <time>2011-03-21T17:38:42Z</time>
      </trkpt>
      <trkpt lat="37.1857561191" lon="-7.43619595543">
        <ele>15.2</ele>
        <time>2011-03-21T17:38:44Z</time>
      </trkpt>
      <trkpt lat="37.1857807618" lon="-7.43612806204">
        <ele>14.8</ele>
        <time>2011-03-21T17:38:46Z</time>
      </trkpt>
      <trkpt lat="37.1858041473" lon="-7.43606083921">
        <ele>14.6</ele>
        <time>2011-03-21T17:38:48Z</time>
      </trkpt>
      <trkpt lat="37.1858287901" lon="-7.43599185617">
        <ele>14.4</ele>
        <time>2011-03-21T17:38:50Z</time>
      </trkpt>
      <trkpt lat="37.185860809" lon="-7.43592706408">
        <ele>14.4</ele>
        <time>2011-03-21T17:38:52Z</time>
      </trkpt>
      <trkpt lat="37.1858827696" lon="-7.4358600927">
        <ele>14.2</ele>
        <time>2011-03-21T17:38:54Z</time>
      </trkpt>
      <trkpt lat="37.1859007068" lon="-7.43580058121">
        <ele>14.2</ele>
        <time>2011-03-21T17:38:56Z</time>
      </trkpt>
      <trkpt lat="37.1859229189" lon="-7.43573059235">
        <ele>14</ele>
        <time>2011-03-21T17:38:58Z</time>
      </trkpt>
      <trkpt lat="37.1859411076" lon="-7.4356536465">
        <ele>14</ele>
        <time>2011-03-21T17:39:00Z</time>
      </trkpt>
      <trkpt lat="37.1859597992" lon="-7.43558114307">
        <ele>14</ele>
        <time>2011-03-21T17:39:02Z</time>
      </trkpt>
      <trkpt lat="37.1859882139" lon="-7.43550838818">
        <ele>14</ele>
        <time>2011-03-21T17:39:04Z</time>
      </trkpt>
      <trkpt lat="37.1860232502" lon="-7.43543337017">
        <ele>13.8</ele>
        <time>2011-03-21T17:39:06Z</time>
      </trkpt>
      <trkpt lat="37.1860540956" lon="-7.43535650815">
        <ele>13.8</ele>
        <time>2011-03-21T17:39:08Z</time>
      </trkpt>
      <trkpt lat="37.1860779002" lon="-7.43527905939">
        <ele>13.8</ele>
        <time>2011-03-21T17:39:10Z</time>
      </trkpt>
      <trkpt lat="37.1861003637" lon="-7.43520152682">
        <ele>13.8</ele>
        <time>2011-03-21T17:39:12Z</time>
      </trkpt>
      <trkpt lat="37.1861193068" lon="-7.43512474861">
        <ele>13.8</ele>
        <time>2011-03-21T17:39:14Z</time>
      </trkpt>
      <trkpt lat="37.1861413512" lon="-7.43505082026">
        <ele>13.8</ele>
        <time>2011-03-21T17:39:16Z</time>
      </trkpt>
      <trkpt lat="37.1861723642" lon="-7.43498217249">
        <ele>13.8</ele>
        <time>2011-03-21T17:39:18Z</time>
      </trkpt>
      <trkpt lat="37.1861945763" lon="-7.43491587167">
        <ele>13.8</ele>
        <time>2011-03-21T17:39:20Z</time>
      </trkpt>
      <trkpt lat="37.1862151119" lon="-7.43485225304">
        <ele>13.8</ele>
        <time>2011-03-21T17:39:22Z</time>
      </trkpt>
      <trkpt lat="37.1862367372" lon="-7.43479140045">
        <ele>13.8</ele>
        <time>2011-03-21T17:39:24Z</time>
      </trkpt>
      <trkpt lat="37.1862710192" lon="-7.43473792393">
        <ele>13.8</ele>
        <time>2011-03-21T17:39:26Z</time>
      </trkpt>
      <trkpt lat="37.1863092406" lon="-7.43467849626">
        <ele>13.8</ele>
        <time>2011-03-21T17:39:28Z</time>
      </trkpt>
      <trkpt lat="37.1863457019" lon="-7.43461621874">
        <ele>13.8</ele>
        <time>2011-03-21T17:39:30Z</time>
      </trkpt>
      <trkpt lat="37.1863690036" lon="-7.43455000173">
        <ele>13.8</ele>
        <time>2011-03-21T17:39:32Z</time>
      </trkpt>
      <trkpt lat="37.1863889525" lon="-7.43447892322">
        <ele>13.8</ele>
        <time>2011-03-21T17:39:34Z</time>
      </trkpt>
      <trkpt lat="37.1864130924" lon="-7.43441279003">
        <ele>13.8</ele>
        <time>2011-03-21T17:39:36Z</time>
      </trkpt>
      <trkpt lat="37.1864397468" lon="-7.43434447754">
        <ele>13.8</ele>
        <time>2011-03-21T17:39:38Z</time>
      </trkpt>
      <trkpt lat="37.1864596119" lon="-7.43427323139">
        <ele>13.8</ele>
        <time>2011-03-21T17:39:40Z</time>
      </trkpt>
      <trkpt lat="37.1864867693" lon="-7.434195615">
        <ele>13.8</ele>
        <time>2011-03-21T17:39:42Z</time>
      </trkpt>
      <trkpt lat="37.1865213027" lon="-7.43410752123">
        <ele>13.8</ele>
        <time>2011-03-21T17:39:44Z</time>
      </trkpt>
      <trkpt lat="37.1865495497" lon="-7.43405144632">
        <ele>13.8</ele>
        <time>2011-03-21T17:39:46Z</time>
      </trkpt>
      <trkpt lat="37.1865794731" lon="-7.43397156681">
        <ele>13.8</ele>
        <time>2011-03-21T17:39:48Z</time>
      </trkpt>
      <trkpt lat="37.1866050379" lon="-7.43389202258">
        <ele>13.8</ele>
        <time>2011-03-21T17:39:50Z</time>
      </trkpt>
      <trkpt lat="37.1866444328" lon="-7.43382790105">
        <ele>13.8</ele>
        <time>2011-03-21T17:39:52Z</time>
      </trkpt>
      <trkpt lat="37.1867037767" lon="-7.43378959576">
        <ele>13.8</ele>
        <time>2011-03-21T17:39:54Z</time>
      </trkpt>
      <trkpt lat="37.1867693231" lon="-7.43376252223">
        <ele>13.8</ele>
        <time>2011-03-21T17:39:56Z</time>
      </trkpt>
      <trkpt lat="37.1868424133" lon="-7.43373528105">
        <ele>13.8</ele>
        <time>2011-03-21T17:39:58Z</time>
      </trkpt>
      <trkpt lat="37.1869034335" lon="-7.43369773014">
        <ele>13.8</ele>
        <time>2011-03-21T17:40:00Z</time>
      </trkpt>
      <trkpt lat="37.1869241368" lon="-7.43366763912">
        <ele>13.8</ele>
        <time>2011-03-21T17:40:01Z</time>
      </trkpt>
      <trkpt lat="37.1869393081" lon="-7.43363310569">
        <ele>13.8</ele>
        <time>2011-03-21T17:40:02Z</time>
      </trkpt>
      <trkpt lat="37.1869637832" lon="-7.4335215426">
        <ele>13.8</ele>
        <time>2011-03-21T17:40:05Z</time>
      </trkpt>
      <trkpt lat="37.1869798765" lon="-7.4334478657">
        <ele>13.8</ele>
        <time>2011-03-21T17:40:07Z</time>
      </trkpt>
      <trkpt lat="37.1869932037" lon="-7.43338550436">
        <ele>13.6</ele>
        <time>2011-03-21T17:40:09Z</time>
      </trkpt>
      <trkpt lat="37.1870065309" lon="-7.43332264011">
        <ele>13.2</ele>
        <time>2011-03-21T17:40:11Z</time>
      </trkpt>
      <trkpt lat="37.1870195228" lon="-7.43325608783">
        <ele>13</ele>
        <time>2011-03-21T17:40:13Z</time>
      </trkpt>
      <trkpt lat="37.1870241329" lon="-7.43318710479">
        <ele>12.8</ele>
        <time>2011-03-21T17:40:15Z</time>
      </trkpt>
      <trkpt lat="37.1870287429" lon="-7.43311518809">
        <ele>12.6</ele>
        <time>2011-03-21T17:40:17Z</time>
      </trkpt>
      <trkpt lat="37.1870311737" lon="-7.43304117591">
        <ele>12.4</ele>
        <time>2011-03-21T17:40:19Z</time>
      </trkpt>
      <trkpt lat="37.1870411482" lon="-7.43300303827">
        <ele>12.4</ele>
        <time>2011-03-21T17:40:20Z</time>
      </trkpt>
      <trkpt lat="37.1870595045" lon="-7.43292424841">
        <ele>12.2</ele>
        <time>2011-03-21T17:40:22Z</time>
      </trkpt>
      <trkpt lat="37.1870780285" lon="-7.4328478893">
        <ele>12.2</ele>
        <time>2011-03-21T17:40:24Z</time>
      </trkpt>
      <trkpt lat="37.1870905175" lon="-7.43277681079">
        <ele>12</ele>
        <time>2011-03-21T17:40:26Z</time>
      </trkpt>
      <trkpt lat="37.1871087063" lon="-7.43269827238">
        <ele>12</ele>
        <time>2011-03-21T17:40:28Z</time>
      </trkpt>
      <trkpt lat="37.1871327623" lon="-7.43262048835">
        <ele>12</ele>
        <time>2011-03-21T17:40:30Z</time>
      </trkpt>
      <trkpt lat="37.1871470954" lon="-7.43254639235">
        <ele>11.8</ele>
        <time>2011-03-21T17:40:32Z</time>
      </trkpt>
      <trkpt lat="37.1871616799" lon="-7.43246818923">
        <ele>11.8</ele>
        <time>2011-03-21T17:40:34Z</time>
      </trkpt>
      <trkpt lat="37.1871836405" lon="-7.43239384177">
        <ele>11.8</ele>
        <time>2011-03-21T17:40:36Z</time>
      </trkpt>
      <trkpt lat="37.1872058525" lon="-7.43232234417">
        <ele>11.8</ele>
        <time>2011-03-21T17:40:38Z</time>
      </trkpt>
      <trkpt lat="37.1872258852" lon="-7.43225168475">
        <ele>11.8</ele>
        <time>2011-03-21T17:40:40Z</time>
      </trkpt>
      <trkpt lat="37.1872493545" lon="-7.43217658293">
        <ele>11.8</ele>
        <time>2011-03-21T17:40:42Z</time>
      </trkpt>
      <trkpt lat="37.1872726562" lon="-7.43210097819">
        <ele>11.8</ele>
        <time>2011-03-21T17:40:44Z</time>
      </trkpt>
      <trkpt lat="37.1872879951" lon="-7.43202713365">
        <ele>11.8</ele>
        <time>2011-03-21T17:40:46Z</time>
      </trkpt>
      <trkpt lat="37.1873075249" lon="-7.43195739624">
        <ele>11.8</ele>
        <time>2011-03-21T17:40:48Z</time>
      </trkpt>
      <trkpt lat="37.1873379512" lon="-7.43187986367">
        <ele>11.8</ele>
        <time>2011-03-21T17:40:50Z</time>
      </trkpt>
      <trkpt lat="37.1873478419" lon="-7.43184348622">
        <ele>11.8</ele>
        <time>2011-03-21T17:40:51Z</time>
      </trkpt>
      <trkpt lat="37.1873575649" lon="-7.43177550901">
        <ele>11.8</ele>
        <time>2011-03-21T17:40:53Z</time>
      </trkpt>
      <trkpt lat="37.1873703054" lon="-7.43171256094">
        <ele>11.8</ele>
        <time>2011-03-21T17:40:55Z</time>
      </trkpt>
      <trkpt lat="37.1873834649" lon="-7.43164592484">
        <ele>11.8</ele>
        <time>2011-03-21T17:40:57Z</time>
      </trkpt>
      <trkpt lat="37.1873910087" lon="-7.43157057156">
        <ele>11.8</ele>
        <time>2011-03-21T17:40:59Z</time>
      </trkpt>
      <trkpt lat="37.1874028271" lon="-7.43150108561">
        <ele>11.8</ele>
        <time>2011-03-21T17:41:01Z</time>
      </trkpt>
      <trkpt lat="37.1874157353" lon="-7.43143587442">
        <ele>11.8</ele>
        <time>2011-03-21T17:41:03Z</time>
      </trkpt>
      <trkpt lat="37.1874352651" lon="-7.43135792275">
        <ele>11.8</ele>
        <time>2011-03-21T17:41:05Z</time>
      </trkpt>
      <trkpt lat="37.1874562198" lon="-7.43127946817">
        <ele>11.8</ele>
        <time>2011-03-21T17:41:07Z</time>
      </trkpt>
      <trkpt lat="37.1874823714" lon="-7.43120227087">
        <ele>11.8</ele>
        <time>2011-03-21T17:41:09Z</time>
      </trkpt>
      <trkpt lat="37.187502907" lon="-7.43113052181">
        <ele>11.8</ele>
        <time>2011-03-21T17:41:11Z</time>
      </trkpt>
      <trkpt lat="37.187517743" lon="-7.43105567144">
        <ele>11.8</ele>
        <time>2011-03-21T17:41:13Z</time>
      </trkpt>
      <trkpt lat="37.1875267116" lon="-7.43097906087">
        <ele>11.8</ele>
        <time>2011-03-21T17:41:15Z</time>
      </trkpt>
      <trkpt lat="37.1875406256" lon="-7.4309015283">
        <ele>11.8</ele>
        <time>2011-03-21T17:41:17Z</time>
      </trkpt>
      <trkpt lat="37.1875533661" lon="-7.43082709703">
        <ele>11.8</ele>
        <time>2011-03-21T17:41:19Z</time>
      </trkpt>
      <trkpt lat="37.1875660227" lon="-7.43076012565">
        <ele>11.8</ele>
        <time>2011-03-21T17:41:21Z</time>
      </trkpt>
      <trkpt lat="37.187584882" lon="-7.43069323808">
        <ele>11.8</ele>
        <time>2011-03-21T17:41:23Z</time>
      </trkpt>
      <trkpt lat="37.1876005562" lon="-7.43062459032">
        <ele>11.8</ele>
        <time>2011-03-21T17:41:25Z</time>
      </trkpt>
      <trkpt lat="37.1876124585" lon="-7.43055284126">
        <ele>11.8</ele>
        <time>2011-03-21T17:41:27Z</time>
      </trkpt>
      <trkpt lat="37.1876198345" lon="-7.43048184657">
        <ele>11.8</ele>
        <time>2011-03-21T17:41:29Z</time>
      </trkpt>
      <trkpt lat="37.1876288032" lon="-7.43041789267">
        <ele>11.8</ele>
        <time>2011-03-21T17:41:31Z</time>
      </trkpt>
      <trkpt lat="37.187639532" lon="-7.43034564069">
        <ele>11.8</ele>
        <time>2011-03-21T17:41:33Z</time>
      </trkpt>
      <trkpt lat="37.1876490874" lon="-7.43027129324">
        <ele>11.8</ele>
        <time>2011-03-21T17:41:35Z</time>
      </trkpt>
      <trkpt lat="37.187662666" lon="-7.43019543704">
        <ele>11.8</ele>
        <time>2011-03-21T17:41:37Z</time>
      </trkpt>
      <trkpt lat="37.1876790107" lon="-7.43012310124">
        <ele>11.8</ele>
        <time>2011-03-21T17:41:39Z</time>
      </trkpt>
      <trkpt lat="37.1876935952" lon="-7.43005026253">
        <ele>11.8</ele>
        <time>2011-03-21T17:41:41Z</time>
      </trkpt>
      <trkpt lat="37.1877107781" lon="-7.42997692091">
        <ele>11.8</ele>
        <time>2011-03-21T17:41:43Z</time>
      </trkpt>
      <trkpt lat="37.1877277096" lon="-7.42989938833">
        <ele>11.8</ele>
        <time>2011-03-21T17:41:45Z</time>
      </trkpt>
      <trkpt lat="37.1877465689" lon="-7.42982680108">
        <ele>11.8</ele>
        <time>2011-03-21T17:41:47Z</time>
      </trkpt>
      <trkpt lat="37.1877591417" lon="-7.42975195071">
        <ele>11.8</ele>
        <time>2011-03-21T17:41:49Z</time>
      </trkpt>
      <trkpt lat="37.1877667692" lon="-7.42967969874">
        <ele>11.8</ele>
        <time>2011-03-21T17:41:51Z</time>
      </trkpt>
      <trkpt lat="37.1877803479" lon="-7.42960074124">
        <ele>11.8</ele>
        <time>2011-03-21T17:41:53Z</time>
      </trkpt>
      <trkpt lat="37.1878007997" lon="-7.42952932745">
        <ele>11.8</ele>
        <time>2011-03-21T17:41:55Z</time>
      </trkpt>
      <trkpt lat="37.1878030629" lon="-7.42948842378">
        <ele>11.8</ele>
        <time>2011-03-21T17:41:56Z</time>
      </trkpt>
      <trkpt lat="37.1878230118" lon="-7.42938080018">
        <ele>11.8</ele>
        <time>2011-03-21T17:41:59Z</time>
      </trkpt>
      <trkpt lat="37.1878355846" lon="-7.42930553072">
        <ele>11.8</ele>
        <time>2011-03-21T17:42:01Z</time>
      </trkpt>
      <trkpt lat="37.1878465649" lon="-7.42922858488">
        <ele>11.8</ele>
        <time>2011-03-21T17:42:03Z</time>
      </trkpt>
      <trkpt lat="37.1878551983" lon="-7.42915532707">
        <ele>11.8</ele>
        <time>2011-03-21T17:42:05Z</time>
      </trkpt>
      <trkpt lat="37.1878679388" lon="-7.42907511229">
        <ele>11.8</ele>
        <time>2011-03-21T17:42:07Z</time>
      </trkpt>
      <trkpt lat="37.1878826909" lon="-7.42899917227">
        <ele>11.8</ele>
        <time>2011-03-21T17:42:09Z</time>
      </trkpt>
      <trkpt lat="37.1878908214" lon="-7.42892675266">
        <ele>11.8</ele>
        <time>2011-03-21T17:42:11Z</time>
      </trkpt>
      <trkpt lat="37.1879033104" lon="-7.42885827254">
        <ele>11.8</ele>
        <time>2011-03-21T17:42:13Z</time>
      </trkpt>
      <trkpt lat="37.1879207447" lon="-7.42879339663">
        <ele>11.8</ele>
        <time>2011-03-21T17:42:15Z</time>
      </trkpt>
      <trkpt lat="37.187938682" lon="-7.42872315631">
        <ele>11.8</ele>
        <time>2011-03-21T17:42:17Z</time>
      </trkpt>
      <trkpt lat="37.1879546914" lon="-7.42865383799">
        <ele>11.8</ele>
        <time>2011-03-21T17:42:19Z</time>
      </trkpt>
      <trkpt lat="37.187966929" lon="-7.42858929736">
        <ele>11.8</ele>
        <time>2011-03-21T17:42:21Z</time>
      </trkpt>
      <trkpt lat="37.1879769035" lon="-7.42852626548">
        <ele>11.8</ele>
        <time>2011-03-21T17:42:23Z</time>
      </trkpt>
      <trkpt lat="37.1879948407" lon="-7.42845644425">
        <ele>11.8</ele>
        <time>2011-03-21T17:42:25Z</time>
      </trkpt>
      <trkpt lat="37.1880142867" lon="-7.42838762885">
        <ele>11.8</ele>
        <time>2011-03-21T17:42:27Z</time>
      </trkpt>
      <trkpt lat="37.1880273625" lon="-7.42830917427">
        <ele>11.8</ele>
        <time>2011-03-21T17:42:29Z</time>
      </trkpt>
      <trkpt lat="37.1880380075" lon="-7.42823801193">
        <ele>11.8</ele>
        <time>2011-03-21T17:42:31Z</time>
      </trkpt>
      <trkpt lat="37.1880484849" lon="-7.42820473579">
        <ele>11.8</ele>
        <time>2011-03-21T17:42:32Z</time>
      </trkpt>
      <trkpt lat="37.1880716189" lon="-7.42809945913">
        <ele>11.8</ele>
        <time>2011-03-21T17:42:35Z</time>
      </trkpt>
      <trkpt lat="37.1880904782" lon="-7.42803257157">
        <ele>11.8</ele>
        <time>2011-03-21T17:42:37Z</time>
      </trkpt>
      <trkpt lat="37.1880954235" lon="-7.42799820578">
        <ele>11.8</ele>
        <time>2011-03-21T17:42:38Z</time>
      </trkpt>
      <trkpt lat="37.1881222456" lon="-7.42786870542">
        <ele>11.8</ele>
        <time>2011-03-21T17:42:42Z</time>
      </trkpt>
      <trkpt lat="37.1881404343" lon="-7.42780408097">
        <ele>11.8</ele>
        <time>2011-03-21T17:42:44Z</time>
      </trkpt>
      <trkpt lat="37.1881587907" lon="-7.42773694195">
        <ele>11.8</ele>
        <time>2011-03-21T17:42:46Z</time>
      </trkpt>
      <trkpt lat="37.1881757221" lon="-7.42767466444">
        <ele>11.8</ele>
        <time>2011-03-21T17:42:48Z</time>
      </trkpt>
      <trkpt lat="37.1881903066" lon="-7.42760811215">
        <ele>11.8</ele>
        <time>2011-03-21T17:42:50Z</time>
      </trkpt>
      <trkpt lat="37.1881993591" lon="-7.42753912911">
        <ele>11.8</ele>
        <time>2011-03-21T17:42:52Z</time>
      </trkpt>
      <trkpt lat="37.1882228284" lon="-7.42746327292">
        <ele>11.8</ele>
        <time>2011-03-21T17:42:54Z</time>
      </trkpt>
      <trkpt lat="37.188235988" lon="-7.42737928628">
        <ele>11.8</ele>
        <time>2011-03-21T17:42:56Z</time>
      </trkpt>
      <trkpt lat="37.1882534223" lon="-7.42728884558">
        <ele>11.8</ele>
        <time>2011-03-21T17:42:58Z</time>
      </trkpt>
      <trkpt lat="37.188261469" lon="-7.42720175764">
        <ele>11.8</ele>
        <time>2011-03-21T17:43:00Z</time>
      </trkpt>
      <trkpt lat="37.1882525003" lon="-7.42712665581">
        <ele>11.8</ele>
        <time>2011-03-21T17:43:02Z</time>
      </trkpt>
      <trkpt lat="37.1882496505" lon="-7.42709463696">
        <ele>11.8</ele>
        <time>2011-03-21T17:43:03Z</time>
      </trkpt>
      <trkpt lat="37.1882663305" lon="-7.42701291343">
        <ele>11.8</ele>
        <time>2011-03-21T17:43:06Z</time>
      </trkpt>
      <trkpt lat="37.1882721978" lon="-7.42698407969">
        <ele>11.8</ele>
        <time>2011-03-21T17:43:07Z</time>
      </trkpt>
      <trkpt lat="37.1882798253" lon="-7.42691576721">
        <ele>11.8</ele>
        <time>2011-03-21T17:43:09Z</time>
      </trkpt>
      <trkpt lat="37.1882802444" lon="-7.42683924046">
        <ele>11.8</ele>
        <time>2011-03-21T17:43:11Z</time>
      </trkpt>
      <trkpt lat="37.1882825075" lon="-7.42676791049">
        <ele>11.8</ele>
        <time>2011-03-21T17:43:13Z</time>
      </trkpt>
      <trkpt lat="37.1882881234" lon="-7.4266969158">
        <ele>12.2</ele>
        <time>2011-03-21T17:43:15Z</time>
      </trkpt>
      <trkpt lat="37.188294326" lon="-7.42661762303">
        <ele>12.4</ele>
        <time>2011-03-21T17:43:17Z</time>
      </trkpt>
      <trkpt lat="37.1883038814" lon="-7.42653665387">
        <ele>12.6</ele>
        <time>2011-03-21T17:43:19Z</time>
      </trkpt>
      <trkpt lat="37.1883090782" lon="-7.42649357091">
        <ele>12.8</ele>
        <time>2011-03-21T17:43:20Z</time>
      </trkpt>
      <trkpt lat="37.1883740379" lon="-7.4264105901">
        <ele>13</ele>
        <time>2011-03-21T17:43:23Z</time>
      </trkpt>
      <trkpt lat="37.1884066435" lon="-7.42640120237">
        <ele>13.2</ele>
        <time>2011-03-21T17:43:24Z</time>
      </trkpt>
      <trkpt lat="37.1884754589" lon="-7.42640765643">
        <ele>13.2</ele>
        <time>2011-03-21T17:43:26Z</time>
      </trkpt>
      <trkpt lat="37.1885445257" lon="-7.42642148657">
        <ele>13.4</ele>
        <time>2011-03-21T17:43:28Z</time>
      </trkpt>
      <trkpt lat="37.1886159395" lon="-7.42643967529">
        <ele>13.4</ele>
        <time>2011-03-21T17:43:30Z</time>
      </trkpt>
      <trkpt lat="37.188678217" lon="-7.42645392452">
        <ele>13.4</ele>
        <time>2011-03-21T17:43:32Z</time>
      </trkpt>
      <trkpt lat="37.1887428415" lon="-7.42649189453">
        <ele>13.6</ele>
        <time>2011-03-21T17:43:34Z</time>
      </trkpt>
      <trkpt lat="37.1888043646" lon="-7.42653212765">
        <ele>13.6</ele>
        <time>2011-03-21T17:43:36Z</time>
      </trkpt>
      <trkpt lat="37.1888620321" lon="-7.42657068439">
        <ele>13.6</ele>
        <time>2011-03-21T17:43:38Z</time>
      </trkpt>
      <trkpt lat="37.1889219627" lon="-7.42661259389">
        <ele>13.6</ele>
        <time>2011-03-21T17:43:40Z</time>
      </trkpt>
      <trkpt lat="37.1889748525" lon="-7.42665534158">
        <ele>13.6</ele>
        <time>2011-03-21T17:43:42Z</time>
      </trkpt>
      <trkpt lat="37.1890315979" lon="-7.42668434295">
        <ele>13.6</ele>
        <time>2011-03-21T17:43:44Z</time>
      </trkpt>
      <trkpt lat="37.1890887625" lon="-7.42670420805">
        <ele>13.6</ele>
        <time>2011-03-21T17:43:46Z</time>
      </trkpt>
      <trkpt lat="37.1891525488" lon="-7.42671787055">
        <ele>13.8</ele>
        <time>2011-03-21T17:43:48Z</time>
      </trkpt>
      <trkpt lat="37.1892174247" lon="-7.42672918612">
        <ele>13.8</ele>
        <time>2011-03-21T17:43:50Z</time>
      </trkpt>
      <trkpt lat="37.1892777743" lon="-7.42673245506">
        <ele>13.8</ele>
        <time>2011-03-21T17:43:52Z</time>
      </trkpt>
      <trkpt lat="37.1893336816" lon="-7.42673790329">
        <ele>13.8</ele>
        <time>2011-03-21T17:43:54Z</time>
      </trkpt>
      <trkpt lat="37.1893923549" lon="-7.42675567292">
        <ele>13.8</ele>
        <time>2011-03-21T17:43:56Z</time>
      </trkpt>
      <trkpt lat="37.189453459" lon="-7.42677117944">
        <ele>13.8</ele>
        <time>2011-03-21T17:43:58Z</time>
      </trkpt>
      <trkpt lat="37.1895149821" lon="-7.42676791049">
        <ele>13.8</ele>
        <time>2011-03-21T17:44:00Z</time>
      </trkpt>
      <trkpt lat="37.1895455761" lon="-7.42675181725">
        <ele>13.8</ele>
        <time>2011-03-21T17:44:01Z</time>
      </trkpt>
      <trkpt lat="37.1895800257" lon="-7.42668073873">
        <ele>13.8</ele>
        <time>2011-03-21T17:44:03Z</time>
      </trkpt>
      <trkpt lat="37.1895844681" lon="-7.4266364823">
        <ele>13.8</ele>
        <time>2011-03-21T17:44:04Z</time>
      </trkpt>
      <trkpt lat="37.1895709732" lon="-7.42651033471">
        <ele>13.8</ele>
        <time>2011-03-21T17:44:07Z</time>
      </trkpt>
      <trkpt lat="37.1895464981" lon="-7.42643866946">
        <ele>13.8</ele>
        <time>2011-03-21T17:44:09Z</time>
      </trkpt>
      <trkpt lat="37.1895141439" lon="-7.42636968643">
        <ele>13.8</ele>
        <time>2011-03-21T17:44:11Z</time>
      </trkpt>
      <trkpt lat="37.1894834662" lon="-7.42629022601">
        <ele>13.8</ele>
        <time>2011-03-21T17:44:13Z</time>
      </trkpt>
      <trkpt lat="37.1894583205" lon="-7.42621529183">
        <ele>13.8</ele>
        <time>2011-03-21T17:44:15Z</time>
      </trkpt>
      <trkpt lat="37.189435857" lon="-7.42614203402">
        <ele>13.8</ele>
        <time>2011-03-21T17:44:17Z</time>
      </trkpt>
      <trkpt lat="37.18941222" lon="-7.42606961441">
        <ele>13.8</ele>
        <time>2011-03-21T17:44:19Z</time>
      </trkpt>
      <trkpt lat="37.1893816261" lon="-7.42600155338">
        <ele>13.8</ele>
        <time>2011-03-21T17:44:21Z</time>
      </trkpt>
      <trkpt lat="37.1893491881" lon="-7.42594061696">
        <ele>13.8</ele>
        <time>2011-03-21T17:44:23Z</time>
      </trkpt>
      <trkpt lat="37.1893175046" lon="-7.42587993201">
        <ele>13.8</ele>
        <time>2011-03-21T17:44:25Z</time>
      </trkpt>
      <trkpt lat="37.189287665" lon="-7.42581773831">
        <ele>13.8</ele>
        <time>2011-03-21T17:44:27Z</time>
      </trkpt>
      <trkpt lat="37.1892544727" lon="-7.42574900673">
        <ele>13.8</ele>
        <time>2011-03-21T17:44:29Z</time>
      </trkpt>
      <trkpt lat="37.189228405" lon="-7.42567901787">
        <ele>13.4</ele>
        <time>2011-03-21T17:44:31Z</time>
      </trkpt>
      <trkpt lat="37.1891965537" lon="-7.42561070538">
        <ele>13</ele>
        <time>2011-03-21T17:44:33Z</time>
      </trkpt>
      <trkpt lat="37.1891650378" lon="-7.42554365018">
        <ele>12.8</ele>
        <time>2011-03-21T17:44:35Z</time>
      </trkpt>
      <trkpt lat="37.1891326837" lon="-7.42547776845">
        <ele>12.6</ele>
        <time>2011-03-21T17:44:37Z</time>
      </trkpt>
      <trkpt lat="37.1890972282" lon="-7.42541565857">
        <ele>12.4</ele>
        <time>2011-03-21T17:44:39Z</time>
      </trkpt>
      <trkpt lat="37.1890570789" lon="-7.42535304577">
        <ele>12.4</ele>
        <time>2011-03-21T17:44:41Z</time>
      </trkpt>
      <trkpt lat="37.1890243057" lon="-7.42528087762">
        <ele>12.2</ele>
        <time>2011-03-21T17:44:43Z</time>
      </trkpt>
      <trkpt lat="37.1889978189" lon="-7.42521097257">
        <ele>12.2</ele>
        <time>2011-03-21T17:44:45Z</time>
      </trkpt>
      <trkpt lat="37.1889671411" lon="-7.42513897205">
        <ele>12</ele>
        <time>2011-03-21T17:44:47Z</time>
      </trkpt>
      <trkpt lat="37.1889345355" lon="-7.4250646246">
        <ele>12</ele>
        <time>2011-03-21T17:44:49Z</time>
      </trkpt>
      <trkpt lat="37.1889044445" lon="-7.42500134125">
        <ele>12</ele>
        <time>2011-03-21T17:44:51Z</time>
      </trkpt>
      <trkpt lat="37.1888677318" lon="-7.42493487278">
        <ele>12</ele>
        <time>2011-03-21T17:44:53Z</time>
      </trkpt>
      <trkpt lat="37.1888404068" lon="-7.42486890723">
        <ele>11.8</ele>
        <time>2011-03-21T17:44:55Z</time>
      </trkpt>
      <trkpt lat="37.1888095614" lon="-7.42480277404">
        <ele>11.8</ele>
        <time>2011-03-21T17:44:57Z</time>
      </trkpt>
      <trkpt lat="37.1887752794" lon="-7.42473747904">
        <ele>11.8</ele>
        <time>2011-03-21T17:44:59Z</time>
      </trkpt>
      <trkpt lat="37.1887456913" lon="-7.42467126203">
        <ele>11.8</ele>
        <time>2011-03-21T17:45:01Z</time>
      </trkpt>
      <trkpt lat="37.1887236469" lon="-7.42460169226">
        <ele>11.8</ele>
        <time>2011-03-21T17:45:03Z</time>
      </trkpt>
      <trkpt lat="37.1886918795" lon="-7.42453203867">
        <ele>11.8</ele>
        <time>2011-03-21T17:45:05Z</time>
      </trkpt>
      <trkpt lat="37.1886640516" lon="-7.42447244336">
        <ele>11.8</ele>
        <time>2011-03-21T17:45:07Z</time>
      </trkpt>
      <trkpt lat="37.1886330386" lon="-7.42440454997">
        <ele>11.8</ele>
        <time>2011-03-21T17:45:09Z</time>
      </trkpt>
      <trkpt lat="37.1886006006" lon="-7.42433959025">
        <ele>11.8</ele>
        <time>2011-03-21T17:45:11Z</time>
      </trkpt>
      <trkpt lat="37.1885705096" lon="-7.42427261886">
        <ele>11.8</ele>
        <time>2011-03-21T17:45:13Z</time>
      </trkpt>
      <trkpt lat="37.1885342998" lon="-7.42420799442">
        <ele>11.8</ele>
        <time>2011-03-21T17:45:15Z</time>
      </trkpt>
      <trkpt lat="37.1884931447" lon="-7.42414311851">
        <ele>11.8</ele>
        <time>2011-03-21T17:45:17Z</time>
      </trkpt>
      <trkpt lat="37.1884562643" lon="-7.42408251737">
        <ele>11.8</ele>
        <time>2011-03-21T17:45:19Z</time>
      </trkpt>
      <trkpt lat="37.1884181267" lon="-7.42401806056">
        <ele>11.8</ele>
        <time>2011-03-21T17:45:21Z</time>
      </trkpt>
      <trkpt lat="37.1883752952" lon="-7.42395259792">
        <ele>11.8</ele>
        <time>2011-03-21T17:45:23Z</time>
      </trkpt>
      <trkpt lat="37.188345288" lon="-7.42389141005">
        <ele>11.8</ele>
        <time>2011-03-21T17:45:25Z</time>
      </trkpt>
      <trkpt lat="37.1883146102" lon="-7.42382888108">
        <ele>11.8</ele>
        <time>2011-03-21T17:45:27Z</time>
      </trkpt>
      <trkpt lat="37.1882856927" lon="-7.42376082005">
        <ele>11.8</ele>
        <time>2011-03-21T17:45:29Z</time>
      </trkpt>
      <trkpt lat="37.1882593735" lon="-7.42369812344">
        <ele>11.8</ele>
        <time>2011-03-21T17:45:31Z</time>
      </trkpt>
      <trkpt lat="37.1882304559" lon="-7.4236375223">
        <ele>11.8</ele>
        <time>2011-03-21T17:45:33Z</time>
      </trkpt>
      <trkpt lat="37.1881960063" lon="-7.42358161503">
        <ele>11.8</ele>
        <time>2011-03-21T17:45:35Z</time>
      </trkpt>
      <trkpt lat="37.1881652448" lon="-7.42352285791">
        <ele>11.8</ele>
        <time>2011-03-21T17:45:37Z</time>
      </trkpt>
      <trkpt lat="37.188136411" lon="-7.42345865256">
        <ele>11.8</ele>
        <time>2011-03-21T17:45:39Z</time>
      </trkpt>
      <trkpt lat="37.1881344832" lon="-7.42333191823">
        <ele>11.8</ele>
        <time>2011-03-21T17:45:43Z</time>
      </trkpt>
      <trkpt lat="37.1881441224" lon="-7.42330484469">
        <ele>11.8</ele>
        <time>2011-03-21T17:45:44Z</time>
      </trkpt>
      <trkpt lat="37.1881766441" lon="-7.42324566848">
        <ele>11.8</ele>
        <time>2011-03-21T17:45:46Z</time>
      </trkpt>
      <trkpt lat="37.1882081601" lon="-7.4231716563">
        <ele>11.8</ele>
        <time>2011-03-21T17:45:48Z</time>
      </trkpt>
      <trkpt lat="37.1882434479" lon="-7.42310485256">
        <ele>11.8</ele>
        <time>2011-03-21T17:45:50Z</time>
      </trkpt>
      <trkpt lat="37.1882581162" lon="-7.42307316897">
        <ele>11.8</ele>
        <time>2011-03-21T17:45:51Z</time>
      </trkpt>
      <trkpt lat="37.1883028756" lon="-7.42299722896">
        <ele>11.8</ele>
        <time>2011-03-21T17:45:54Z</time>
      </trkpt>
      <trkpt lat="37.1883168733" lon="-7.42296613211">
        <ele>11.8</ele>
        <time>2011-03-21T17:45:55Z</time>
      </trkpt>
      <trkpt lat="37.1883465453" lon="-7.42289823872">
        <ele>11.8</ele>
        <time>2011-03-21T17:45:57Z</time>
      </trkpt>
      <trkpt lat="37.1883331342" lon="-7.42284073889">
        <ele>11.8</ele>
        <time>2011-03-21T17:45:59Z</time>
      </trkpt>
      <trkpt lat="37.1882935716" lon="-7.42280486436">
        <ele>11.8</ele>
        <time>2011-03-21T17:46:01Z</time>
      </trkpt>
      <trkpt lat="37.1882718625" lon="-7.42278650799">
        <ele>11.8</ele>
        <time>2011-03-21T17:46:02Z</time>
      </trkpt>
      <trkpt lat="37.188222577" lon="-7.42275482441">
        <ele>11.8</ele>
        <time>2011-03-21T17:46:04Z</time>
      </trkpt>
      <trkpt lat="37.1881700224" lon="-7.42273185801">
        <ele>11.8</ele>
        <time>2011-03-21T17:46:06Z</time>
      </trkpt>
      <trkpt lat="37.1881200663" lon="-7.4227075505">
        <ele>11.8</ele>
        <time>2011-03-21T17:46:08Z</time>
      </trkpt>
      <trkpt lat="37.1880661707" lon="-7.42268500319">
        <ele>11.8</ele>
        <time>2011-03-21T17:46:10Z</time>
      </trkpt>
      <trkpt lat="37.1880116884" lon="-7.42266052804">
        <ele>11.8</ele>
        <time>2011-03-21T17:46:12Z</time>
      </trkpt>
      <trkpt lat="37.1879574575" lon="-7.42262884446">
        <ele>11.8</ele>
        <time>2011-03-21T17:46:14Z</time>
      </trkpt>
      <trkpt lat="37.1879042324" lon="-7.42259674178">
        <ele>11.8</ele>
        <time>2011-03-21T17:46:16Z</time>
      </trkpt>
      <trkpt lat="37.1878509235" lon="-7.4225681595">
        <ele>11.8</ele>
        <time>2011-03-21T17:46:18Z</time>
      </trkpt>
      <trkpt lat="37.1877943457" lon="-7.42254686947">
        <ele>11.8</ele>
        <time>2011-03-21T17:46:20Z</time>
      </trkpt>
      <trkpt lat="37.1877394442" lon="-7.42252080176">
        <ele>11.8</ele>
        <time>2011-03-21T17:46:22Z</time>
      </trkpt>
      <trkpt lat="37.1876847943" lon="-7.42249724863">
        <ele>11.8</ele>
        <time>2011-03-21T17:46:24Z</time>
      </trkpt>
      <trkpt lat="37.1876314015" lon="-7.42247294112">
        <ele>11.8</ele>
        <time>2011-03-21T17:46:26Z</time>
      </trkpt>
      <trkpt lat="37.1875761648" lon="-7.42245274074">
        <ele>11.8</ele>
        <time>2011-03-21T17:46:28Z</time>
      </trkpt>
      <trkpt lat="37.187520509" lon="-7.42242508047">
        <ele>11.8</ele>
        <time>2011-03-21T17:46:30Z</time>
      </trkpt>
      <trkpt lat="37.1874651047" lon="-7.42239825839">
        <ele>11.8</ele>
        <time>2011-03-21T17:46:32Z</time>
      </trkpt>
      <trkpt lat="37.1874076886" lon="-7.4223722745">
        <ele>11.8</ele>
        <time>2011-03-21T17:46:34Z</time>
      </trkpt>
      <trkpt lat="37.1873503564" lon="-7.42234126147">
        <ele>11.8</ele>
        <time>2011-03-21T17:46:36Z</time>
      </trkpt>
      <trkpt lat="37.1872916831" lon="-7.42231544521">
        <ele>11.8</ele>
        <time>2011-03-21T17:46:38Z</time>
      </trkpt>
      <trkpt lat="37.1872357759" lon="-7.42229004806">
        <ele>11.8</ele>
        <time>2011-03-21T17:46:40Z</time>
      </trkpt>
      <trkpt lat="37.1871531303" lon="-7.42225216187">
        <ele>11.8</ele>
        <time>2011-03-21T17:46:43Z</time>
      </trkpt>
      <trkpt lat="37.1870964687" lon="-7.42222349577">
        <ele>12</ele>
        <time>2011-03-21T17:46:45Z</time>
      </trkpt>
      <trkpt lat="37.1870386336" lon="-7.42220011027">
        <ele>12.4</ele>
        <time>2011-03-21T17:46:47Z</time>
      </trkpt>
      <trkpt lat="37.1869781163" lon="-7.42216616358">
        <ele>12.6</ele>
        <time>2011-03-21T17:46:49Z</time>
      </trkpt>
      <trkpt lat="37.1869217899" lon="-7.42213221688">
        <ele>12.8</ele>
        <time>2011-03-21T17:46:51Z</time>
      </trkpt>
      <trkpt lat="37.1868630328" lon="-7.42210304787">
        <ele>13</ele>
        <time>2011-03-21T17:46:53Z</time>
      </trkpt>
      <trkpt lat="37.1868051977" lon="-7.42207404649">
        <ele>13.2</ele>
        <time>2011-03-21T17:46:55Z</time>
      </trkpt>
      <trkpt lat="37.1867433392" lon="-7.42203473538">
        <ele>13.2</ele>
        <time>2011-03-21T17:46:57Z</time>
      </trkpt>
      <trkpt lat="37.1866845821" lon="-7.42200497964">
        <ele>13.4</ele>
        <time>2011-03-21T17:46:59Z</time>
      </trkpt>
      <trkpt lat="37.1866275014" lon="-7.42197363133">
        <ele>13.4</ele>
        <time>2011-03-21T17:47:01Z</time>
      </trkpt>
      <trkpt lat="37.1865680737" lon="-7.42194404323">
        <ele>13.6</ele>
        <time>2011-03-21T17:47:03Z</time>
      </trkpt>
      <trkpt lat="37.1865125017" lon="-7.42191604768">
        <ele>13.6</ele>
        <time>2011-03-21T17:47:05Z</time>
      </trkpt>
      <trkpt lat="37.1864565106" lon="-7.4218892256">
        <ele>13.6</ele>
        <time>2011-03-21T17:47:07Z</time>
      </trkpt>
      <trkpt lat="37.186398005" lon="-7.42186039186">
        <ele>13.6</ele>
        <time>2011-03-21T17:47:09Z</time>
      </trkpt>
      <trkpt lat="37.1863403375" lon="-7.42183356978">
        <ele>13.6</ele>
        <time>2011-03-21T17:47:11Z</time>
      </trkpt>
      <trkpt lat="37.1862894594" lon="-7.42179367194">
        <ele>13.6</ele>
        <time>2011-03-21T17:47:13Z</time>
      </trkpt>
      <trkpt lat="37.1862441971" lon="-7.42175067279">
        <ele>13.8</ele>
        <time>2011-03-21T17:47:15Z</time>
      </trkpt>
      <trkpt lat="37.1861915588" lon="-7.42171178078">
        <ele>13.8</ele>
        <time>2011-03-21T17:47:17Z</time>
      </trkpt>
      <trkpt lat="37.1861592046" lon="-7.42165780134">
        <ele>13.8</ele>
        <time>2011-03-21T17:47:19Z</time>
      </trkpt>
      <trkpt lat="37.1861500684" lon="-7.42160046914">
        <ele>13.8</ele>
        <time>2011-03-21T17:47:21Z</time>
      </trkpt>
      <trkpt lat="37.1861364059" lon="-7.42157767038">
        <ele>13.8</ele>
        <time>2011-03-21T17:47:22Z</time>
      </trkpt>
      <trkpt lat="37.1860913951" lon="-7.42154221494">
        <ele>13.8</ele>
        <time>2011-03-21T17:47:24Z</time>
      </trkpt>
      <trkpt lat="37.1860695183" lon="-7.42151723688">
        <ele>13.8</ele>
        <time>2011-03-21T17:47:25Z</time>
      </trkpt>
      <trkpt lat="37.186017802" lon="-7.42142620944">
        <ele>13.8</ele>
        <time>2011-03-21T17:47:28Z</time>
      </trkpt>
      <trkpt lat="37.1859903093" lon="-7.42135990861">
        <ele>13.8</ele>
        <time>2011-03-21T17:47:30Z</time>
      </trkpt>
      <trkpt lat="37.1859684326" lon="-7.42128405242">
        <ele>13.8</ele>
        <time>2011-03-21T17:47:32Z</time>
      </trkpt>
      <trkpt lat="37.1859661695" lon="-7.42120484346">
        <ele>13.8</ele>
        <time>2011-03-21T17:47:34Z</time>
      </trkpt>
      <trkpt lat="37.1859834362" lon="-7.421119851">
        <ele>13.8</ele>
        <time>2011-03-21T17:47:36Z</time>
      </trkpt>
      <trkpt lat="37.1859987751" lon="-7.42104324043">
        <ele>13.8</ele>
        <time>2011-03-21T17:47:38Z</time>
      </trkpt>
      <trkpt lat="37.1860201489" lon="-7.42096880916">
        <ele>13.8</ele>
        <time>2011-03-21T17:47:40Z</time>
      </trkpt>
      <trkpt lat="37.1860428639" lon="-7.42089370734">
        <ele>13.8</ele>
        <time>2011-03-21T17:47:42Z</time>
      </trkpt>
      <trkpt lat="37.1860564425" lon="-7.42082187445">
        <ele>13.8</ele>
        <time>2011-03-21T17:47:44Z</time>
      </trkpt>
      <trkpt lat="37.186052084" lon="-7.42074291696">
        <ele>13.8</ele>
        <time>2011-03-21T17:47:46Z</time>
      </trkpt>
      <trkpt lat="37.1860466357" lon="-7.42067091643">
        <ele>13.8</ele>
        <time>2011-03-21T17:47:48Z</time>
      </trkpt>
      <trkpt lat="37.1860538441" lon="-7.42059254567">
        <ele>13.8</ele>
        <time>2011-03-21T17:47:50Z</time>
      </trkpt>
      <trkpt lat="37.1860727034" lon="-7.42051224707">
        <ele>13.8</ele>
        <time>2011-03-21T17:47:52Z</time>
      </trkpt>
      <trkpt lat="37.1860924847" lon="-7.42043261902">
        <ele>13.8</ele>
        <time>2011-03-21T17:47:54Z</time>
      </trkpt>
      <trkpt lat="37.1861078236" lon="-7.42035475117">
        <ele>13.8</ele>
        <time>2011-03-21T17:47:56Z</time>
      </trkpt>
      <trkpt lat="37.1861333046" lon="-7.42027654804">
        <ele>13.8</ele>
        <time>2011-03-21T17:47:58Z</time>
      </trkpt>
      <trkpt lat="37.1861509904" lon="-7.42020035657">
        <ele>13.8</ele>
        <time>2011-03-21T17:48:00Z</time>
      </trkpt>
      <trkpt lat="37.1861683409" lon="-7.42012215344">
        <ele>13.4</ele>
        <time>2011-03-21T17:48:02Z</time>
      </trkpt>
      <trkpt lat="37.1861887927" lon="-7.42004059755">
        <ele>13</ele>
        <time>2011-03-21T17:48:04Z</time>
      </trkpt>
      <trkpt lat="37.1862101666" lon="-7.41995904167">
        <ele>12.8</ele>
        <time>2011-03-21T17:48:06Z</time>
      </trkpt>
      <trkpt lat="37.186225254" lon="-7.41987874307">
        <ele>12.6</ele>
        <time>2011-03-21T17:48:08Z</time>
      </trkpt>
      <trkpt lat="37.1862503159" lon="-7.41980313833">
        <ele>12.4</ele>
        <time>2011-03-21T17:48:10Z</time>
      </trkpt>
      <trkpt lat="37.1862778085" lon="-7.4197297967">
        <ele>12.4</ele>
        <time>2011-03-21T17:48:12Z</time>
      </trkpt>
      <trkpt lat="37.1863042115" lon="-7.41965670653">
        <ele>12.2</ele>
        <time>2011-03-21T17:48:14Z</time>
      </trkpt>
      <trkpt lat="37.1863292734" lon="-7.41958168853">
        <ele>12.2</ele>
        <time>2011-03-21T17:48:16Z</time>
      </trkpt>
      <trkpt lat="37.186345199" lon="-7.41952091975">
        <ele>12</ele>
        <time>2011-03-21T17:48:18Z</time>
      </trkpt>
      <trkpt lat="37.1863699256" lon="-7.41946518012">
        <ele>12</ele>
        <time>2011-03-21T17:48:20Z</time>
      </trkpt>
      <trkpt lat="37.1863922215" lon="-7.4193962809">
        <ele>12</ele>
        <time>2011-03-21T17:48:22Z</time>
      </trkpt>
      <trkpt lat="37.1864090691" lon="-7.4193177425">
        <ele>11.8</ele>
        <time>2011-03-21T17:48:24Z</time>
      </trkpt>
      <trkpt lat="37.1864258329" lon="-7.41923853354">
        <ele>11.8</ele>
        <time>2011-03-21T17:48:26Z</time>
      </trkpt>
      <trkpt lat="37.1864478773" lon="-7.41916175534">
        <ele>11.8</ele>
        <time>2011-03-21T17:48:28Z</time>
      </trkpt>
      <trkpt lat="37.186479477" lon="-7.41909017391">
        <ele>11.8</ele>
        <time>2011-03-21T17:48:30Z</time>
      </trkpt>
      <trkpt lat="37.1865047904" lon="-7.41901456918">
        <ele>11.8</ele>
        <time>2011-03-21T17:48:32Z</time>
      </trkpt>
      <trkpt lat="37.1865192072" lon="-7.41893552786">
        <ele>11.8</ele>
        <time>2011-03-21T17:48:34Z</time>
      </trkpt>
      <trkpt lat="37.1865301037" lon="-7.41885682182">
        <ele>11.8</ele>
        <time>2011-03-21T17:48:36Z</time>
      </trkpt>
      <trkpt lat="37.1865473704" lon="-7.4187791216">
        <ele>11.8</ele>
        <time>2011-03-21T17:48:38Z</time>
      </trkpt>
      <trkpt lat="37.1865663135" lon="-7.41870225958">
        <ele>11.8</ele>
        <time>2011-03-21T17:48:40Z</time>
      </trkpt>
      <trkpt lat="37.1865847537" lon="-7.41862372118">
        <ele>11.8</ele>
        <time>2011-03-21T17:48:42Z</time>
      </trkpt>
      <trkpt lat="37.1866086421" lon="-7.41854610478">
        <ele>11.8</ele>
        <time>2011-03-21T17:48:44Z</time>
      </trkpt>
      <trkpt lat="37.1866218855" lon="-7.4184764512">
        <ele>11.8</ele>
        <time>2011-03-21T17:48:46Z</time>
      </trkpt>
      <trkpt lat="37.1866270823" lon="-7.41840151701">
        <ele>11.8</ele>
        <time>2011-03-21T17:48:48Z</time>
      </trkpt>
      <trkpt lat="37.1866396551" lon="-7.41832431971">
        <ele>11.8</ele>
        <time>2011-03-21T17:48:50Z</time>
      </trkpt>
      <trkpt lat="37.1866695785" lon="-7.41825164864">
        <ele>11.8</ele>
        <time>2011-03-21T17:48:52Z</time>
      </trkpt>
      <trkpt lat="37.1867037767" lon="-7.41818048631">
        <ele>11.8</ele>
        <time>2011-03-21T17:48:54Z</time>
      </trkpt>
      <trkpt lat="37.1867340353" lon="-7.41811485603">
        <ele>11.8</ele>
        <time>2011-03-21T17:48:56Z</time>
      </trkpt>
      <trkpt lat="37.1867589296" lon="-7.41804008948">
        <ele>11.8</ele>
        <time>2011-03-21T17:48:58Z</time>
      </trkpt>
      <trkpt lat="37.1867799681" lon="-7.41796213781">
        <ele>11.8</ele>
        <time>2011-03-21T17:49:00Z</time>
      </trkpt>
      <trkpt lat="37.1868011744" lon="-7.41788426996">
        <ele>11.8</ele>
        <time>2011-03-21T17:49:02Z</time>
      </trkpt>
      <trkpt lat="37.1868240569" lon="-7.41780908432">
        <ele>11.8</ele>
        <time>2011-03-21T17:49:04Z</time>
      </trkpt>
      <trkpt lat="37.1868431677" lon="-7.4177349045">
        <ele>11.8</ele>
        <time>2011-03-21T17:49:06Z</time>
      </trkpt>
      <trkpt lat="37.1868697383" lon="-7.41766282016">
        <ele>11.6</ele>
        <time>2011-03-21T17:49:08Z</time>
      </trkpt>
      <trkpt lat="37.1868966442" lon="-7.41759123874">
        <ele>11.2</ele>
        <time>2011-03-21T17:49:10Z</time>
      </trkpt>
      <trkpt lat="37.1869225443" lon="-7.41752242334">
        <ele>11</ele>
        <time>2011-03-21T17:49:12Z</time>
      </trkpt>
      <trkpt lat="37.186945343" lon="-7.4174499199">
        <ele>10.6</ele>
        <time>2011-03-21T17:49:14Z</time>
      </trkpt>
      <trkpt lat="37.1869636994" lon="-7.41737574009">
        <ele>10.6</ele>
        <time>2011-03-21T17:49:16Z</time>
      </trkpt>
      <trkpt lat="37.1869853247" lon="-7.41730348811">
        <ele>10.4</ele>
        <time>2011-03-21T17:49:18Z</time>
      </trkpt>
      <trkpt lat="37.1870097998" lon="-7.41723509181">
        <ele>10.2</ele>
        <time>2011-03-21T17:49:20Z</time>
      </trkpt>
      <trkpt lat="37.1870309222" lon="-7.41716485148">
        <ele>10.2</ele>
        <time>2011-03-21T17:49:22Z</time>
      </trkpt>
      <trkpt lat="37.1870552297" lon="-7.41709117458">
        <ele>10</ele>
        <time>2011-03-21T17:49:24Z</time>
      </trkpt>
      <trkpt lat="37.1870776094" lon="-7.41701950934">
        <ele>10</ele>
        <time>2011-03-21T17:49:26Z</time>
      </trkpt>
      <trkpt lat="37.1871028389" lon="-7.4169491852">
        <ele>10</ele>
        <time>2011-03-21T17:49:28Z</time>
      </trkpt>
      <trkpt lat="37.1871206924" lon="-7.41687567593">
        <ele>9.8</ele>
        <time>2011-03-21T17:49:30Z</time>
      </trkpt>
      <trkpt lat="37.1871432397" lon="-7.41680359159">
        <ele>9.8</ele>
        <time>2011-03-21T17:49:32Z</time>
      </trkpt>
      <trkpt lat="37.1871716543" lon="-7.41673184253">
        <ele>9.8</ele>
        <time>2011-03-21T17:49:34Z</time>
      </trkpt>
      <trkpt lat="37.1871915194" lon="-7.41665204684">
        <ele>9.8</ele>
        <time>2011-03-21T17:49:36Z</time>
      </trkpt>
      <trkpt lat="37.1872095405" lon="-7.41656780875">
        <ele>9.8</ele>
        <time>2011-03-21T17:49:38Z</time>
      </trkpt>
      <trkpt lat="37.1872455827" lon="-7.41648222955">
        <ele>9.8</ele>
        <time>2011-03-21T17:49:40Z</time>
      </trkpt>
      <trkpt lat="37.1872711475" lon="-7.41638525096">
        <ele>9.8</ele>
        <time>2011-03-21T17:49:42Z</time>
      </trkpt>
      <trkpt lat="37.1872855644" lon="-7.41629606755">
        <ele>9.8</ele>
        <time>2011-03-21T17:49:44Z</time>
      </trkpt>
      <trkpt lat="37.1873032502" lon="-7.4162314431">
        <ele>9.8</ele>
        <time>2011-03-21T17:49:46Z</time>
      </trkpt>
      <trkpt lat="37.1873177508" lon="-7.41616078368">
        <ele>9.8</ele>
        <time>2011-03-21T17:49:48Z</time>
      </trkpt>
      <trkpt lat="37.1873331735" lon="-7.41608836407">
        <ele>9.8</ele>
        <time>2011-03-21T17:49:50Z</time>
      </trkpt>
      <trkpt lat="37.1873436509" lon="-7.41601602827">
        <ele>9.8</ele>
        <time>2011-03-21T17:49:52Z</time>
      </trkpt>
      <trkpt lat="37.1873656115" lon="-7.41594260282">
        <ele>9.8</ele>
        <time>2011-03-21T17:49:54Z</time>
      </trkpt>
      <trkpt lat="37.1873927689" lon="-7.41587118904">
        <ele>9.8</ele>
        <time>2011-03-21T17:49:56Z</time>
      </trkpt>
      <trkpt lat="37.1874118796" lon="-7.41579784741">
        <ele>9.8</ele>
        <time>2011-03-21T17:49:58Z</time>
      </trkpt>
      <trkpt lat="37.1874322476" lon="-7.41572123685">
        <ele>9.8</ele>
        <time>2011-03-21T17:50:00Z</time>
      </trkpt>
      <trkpt lat="37.1874477541" lon="-7.41564454246">
        <ele>9.8</ele>
        <time>2011-03-21T17:50:02Z</time>
      </trkpt>
      <trkpt lat="37.187464937" lon="-7.41556860245">
        <ele>9.8</ele>
        <time>2011-03-21T17:50:04Z</time>
      </trkpt>
      <trkpt lat="37.1874815332" lon="-7.41549366826">
        <ele>9.8</ele>
        <time>2011-03-21T17:50:06Z</time>
      </trkpt>
      <trkpt lat="37.1875017336" lon="-7.41541915317">
        <ele>9.8</ele>
        <time>2011-03-21T17:50:08Z</time>
      </trkpt>
      <trkpt lat="37.1875231074" lon="-7.41534522481">
        <ele>9.8</ele>
        <time>2011-03-21T17:50:10Z</time>
      </trkpt>
      <trkpt lat="37.1875405418" lon="-7.41526911716">
        <ele>9.8</ele>
        <time>2011-03-21T17:50:12Z</time>
      </trkpt>
      <trkpt lat="37.1875554615" lon="-7.41519275805">
        <ele>9.8</ele>
        <time>2011-03-21T17:50:14Z</time>
      </trkpt>
      <trkpt lat="37.1875708004" lon="-7.41511572839">
        <ele>9.8</ele>
        <time>2011-03-21T17:50:16Z</time>
      </trkpt>
      <trkpt lat="37.1875767516" lon="-7.41504188385">
        <ele>9.8</ele>
        <time>2011-03-21T17:50:18Z</time>
      </trkpt>
      <trkpt lat="37.1875773383" lon="-7.41496611148">
        <ele>9.8</ele>
        <time>2011-03-21T17:50:20Z</time>
      </trkpt>
      <trkpt lat="37.1875846305" lon="-7.41489360804">
        <ele>9.8</ele>
        <time>2011-03-21T17:50:22Z</time>
      </trkpt>
      <trkpt lat="37.1875767516" lon="-7.41481817094">
        <ele>9.8</ele>
        <time>2011-03-21T17:50:24Z</time>
      </trkpt>
      <trkpt lat="37.1875589819" lon="-7.41474181183">
        <ele>9.8</ele>
        <time>2011-03-21T17:50:26Z</time>
      </trkpt>
      <trkpt lat="37.1875361832" lon="-7.41466821875">
        <ele>9.8</ele>
        <time>2011-03-21T17:50:28Z</time>
      </trkpt>
      <trkpt lat="37.1875021527" lon="-7.41460242083">
        <ele>9.8</ele>
        <time>2011-03-21T17:50:30Z</time>
      </trkpt>
      <trkpt lat="37.1874576448" lon="-7.41455766149">
        <ele>9.8</ele>
        <time>2011-03-21T17:50:32Z</time>
      </trkpt>
      <trkpt lat="37.1874118796" lon="-7.41451038757">
        <ele>9.8</ele>
        <time>2011-03-21T17:50:34Z</time>
      </trkpt>
      <trkpt lat="37.187362594" lon="-7.41446680169">
        <ele>9.8</ele>
        <time>2011-03-21T17:50:36Z</time>
      </trkpt>
      <trkpt lat="37.1873099557" lon="-7.41442505983">
        <ele>9.8</ele>
        <time>2011-03-21T17:50:38Z</time>
      </trkpt>
      <trkpt lat="37.1872568983" lon="-7.41438792801">
        <ele>9.8</ele>
        <time>2011-03-21T17:50:40Z</time>
      </trkpt>
      <trkpt lat="37.187185233" lon="-7.41437267296">
        <ele>9.8</ele>
        <time>2011-03-21T17:50:42Z</time>
      </trkpt>
      <trkpt lat="37.1871227879" lon="-7.41435398132">
        <ele>9.8</ele>
        <time>2011-03-21T17:50:44Z</time>
      </trkpt>
      <trkpt lat="37.1870591692" lon="-7.41433193692">
        <ele>9.8</ele>
        <time>2011-03-21T17:50:46Z</time>
      </trkpt>
      <trkpt lat="37.1870019209" lon="-7.41430955725">
        <ele>9.8</ele>
        <time>2011-03-21T17:50:48Z</time>
      </trkpt>
      <trkpt lat="37.1869386375" lon="-7.41429203908">
        <ele>9.8</ele>
        <time>2011-03-21T17:50:50Z</time>
      </trkpt>
      <trkpt lat="37.1868759409" lon="-7.41427753839">
        <ele>9.8</ele>
        <time>2011-03-21T17:50:52Z</time>
      </trkpt>
      <trkpt lat="37.1868196145" lon="-7.41426362444">
        <ele>9.8</ele>
        <time>2011-03-21T17:50:54Z</time>
      </trkpt>
      <trkpt lat="37.1867611089" lon="-7.41424962666">
        <ele>9.8</ele>
        <time>2011-03-21T17:50:56Z</time>
      </trkpt>
      <trkpt lat="37.1866979093" lon="-7.41423504216">
        <ele>9.8</ele>
        <time>2011-03-21T17:50:58Z</time>
      </trkpt>
      <trkpt lat="37.1866363862" lon="-7.41421752399">
        <ele>10</ele>
        <time>2011-03-21T17:51:00Z</time>
      </trkpt>
      <trkpt lat="37.1865767909" lon="-7.4142012631">
        <ele>10.2</ele>
        <time>2011-03-21T17:51:02Z</time>
      </trkpt>
      <trkpt lat="37.1865184529" lon="-7.41418190091">
        <ele>10.6</ele>
        <time>2011-03-21T17:51:04Z</time>
      </trkpt>
      <trkpt lat="37.1864606178" lon="-7.4141642151">
        <ele>10.8</ele>
        <time>2011-03-21T17:51:06Z</time>
      </trkpt>
      <trkpt lat="37.186401693" lon="-7.41414669693">
        <ele>11</ele>
        <time>2011-03-21T17:51:08Z</time>
      </trkpt>
      <trkpt lat="37.1863445284" lon="-7.41412792147">
        <ele>11.2</ele>
        <time>2011-03-21T17:51:10Z</time>
      </trkpt>
      <trkpt lat="37.1862858551" lon="-7.4141143428">
        <ele>11.2</ele>
        <time>2011-03-21T17:51:12Z</time>
      </trkpt>
      <trkpt lat="37.1862255055" lon="-7.4140971599">
        <ele>11.6</ele>
        <time>2011-03-21T17:51:14Z</time>
      </trkpt>
      <trkpt lat="37.1861664131" lon="-7.41407226566">
        <ele>12</ele>
        <time>2011-03-21T17:51:16Z</time>
      </trkpt>
      <trkpt lat="37.1861094161" lon="-7.41404477303">
        <ele>12.4</ele>
        <time>2011-03-21T17:51:18Z</time>
      </trkpt>
      <trkpt lat="37.1860525869" lon="-7.41402088461">
        <ele>12.6</ele>
        <time>2011-03-21T17:51:20Z</time>
      </trkpt>
      <trkpt lat="37.1860044748" lon="-7.41399984604">
        <ele>12.8</ele>
        <time>2011-03-21T17:51:22Z</time>
      </trkpt>
      <trkpt lat="37.1859372519" lon="-7.41396019966">
        <ele>13.2</ele>
        <time>2011-03-21T17:51:25Z</time>
      </trkpt>
      <trkpt lat="37.1858827696" lon="-7.41393153356">
        <ele>13.4</ele>
        <time>2011-03-21T17:51:27Z</time>
      </trkpt>
      <trkpt lat="37.1858268623" lon="-7.41390026907">
        <ele>13.4</ele>
        <time>2011-03-21T17:51:29Z</time>
      </trkpt>
      <trkpt lat="37.1857723799" lon="-7.4138695075">
        <ele>13.6</ele>
        <time>2011-03-21T17:51:31Z</time>
      </trkpt>
      <trkpt lat="37.1857145448" lon="-7.41383438734">
        <ele>13.6</ele>
        <time>2011-03-21T17:51:33Z</time>
      </trkpt>
      <trkpt lat="37.1856619903" lon="-7.41380354195">
        <ele>13.6</ele>
        <time>2011-03-21T17:51:35Z</time>
      </trkpt>
      <trkpt lat="37.1855974497" lon="-7.41375559748">
        <ele>13.8</ele>
        <time>2011-03-21T17:51:37Z</time>
      </trkpt>
      <trkpt lat="37.1855414586" lon="-7.41371427471">
        <ele>14.2</ele>
        <time>2011-03-21T17:51:39Z</time>
      </trkpt>
      <trkpt lat="37.1854867248" lon="-7.41367429305">
        <ele>14.6</ele>
        <time>2011-03-21T17:51:41Z</time>
      </trkpt>
      <trkpt lat="37.1854298117" lon="-7.41363355701">
        <ele>14.8</ele>
        <time>2011-03-21T17:51:43Z</time>
      </trkpt>
      <trkpt lat="37.1853715575" lon="-7.41359391063">
        <ele>15</ele>
        <time>2011-03-21T17:51:45Z</time>
      </trkpt>
      <trkpt lat="37.1853147282" lon="-7.41354672053">
        <ele>15.2</ele>
        <time>2011-03-21T17:51:47Z</time>
      </trkpt>
      <trkpt lat="37.1852572284" lon="-7.41350631977">
        <ele>15.4</ele>
        <time>2011-03-21T17:51:49Z</time>
      </trkpt>
      <trkpt lat="37.1852048415" lon="-7.41346617047">
        <ele>15.4</ele>
        <time>2011-03-21T17:51:51Z</time>
      </trkpt>
      <trkpt lat="37.1851500239" lon="-7.41342610499">
        <ele>15.6</ele>
        <time>2011-03-21T17:51:53Z</time>
      </trkpt>
      <trkpt lat="37.185091602" lon="-7.41337883107">
        <ele>15.6</ele>
        <time>2011-03-21T17:51:55Z</time>
      </trkpt>
      <trkpt lat="37.1850400533" lon="-7.4133379274">
        <ele>15.6</ele>
        <time>2011-03-21T17:51:57Z</time>
      </trkpt>
      <trkpt lat="37.1849879179" lon="-7.41330213669">
        <ele>15.8</ele>
        <time>2011-03-21T17:51:59Z</time>
      </trkpt>
      <trkpt lat="37.1849333518" lon="-7.41326575924">
        <ele>15.8</ele>
        <time>2011-03-21T17:52:01Z</time>
      </trkpt>
      <trkpt lat="37.1848794561" lon="-7.41322628049">
        <ele>15.8</ele>
        <time>2011-03-21T17:52:03Z</time>
      </trkpt>
      <trkpt lat="37.1848212019" lon="-7.41319283671">
        <ele>15.8</ele>
        <time>2011-03-21T17:52:05Z</time>
      </trkpt>
      <trkpt lat="37.184765127" lon="-7.41316316479">
        <ele>15.8</ele>
        <time>2011-03-21T17:52:07Z</time>
      </trkpt>
      <trkpt lat="37.1847083816" lon="-7.41313022392">
        <ele>15.8</ele>
        <time>2011-03-21T17:52:09Z</time>
      </trkpt>
      <trkpt lat="37.1846520552" lon="-7.41309200245">
        <ele>15.8</ele>
        <time>2011-03-21T17:52:11Z</time>
      </trkpt>
      <trkpt lat="37.1845952259" lon="-7.41304992532">
        <ele>16</ele>
        <time>2011-03-21T17:52:13Z</time>
      </trkpt>
      <trkpt lat="37.1845409112" lon="-7.41300759672">
        <ele>16.4</ele>
        <time>2011-03-21T17:52:15Z</time>
      </trkpt>
      <trkpt lat="37.184485423" lon="-7.41296971053">
        <ele>16.8</ele>
        <time>2011-03-21T17:52:17Z</time>
      </trkpt>
      <trkpt lat="37.1844287614" lon="-7.41292889068">
        <ele>17</ele>
        <time>2011-03-21T17:52:19Z</time>
      </trkpt>
      <trkpt lat="37.1843743628" lon="-7.41289377052">
        <ele>17.2</ele>
        <time>2011-03-21T17:52:21Z</time>
      </trkpt>
      <trkpt lat="37.1843474569" lon="-7.41287566562">
        <ele>17.2</ele>
        <time>2011-03-21T17:52:22Z</time>
      </trkpt>
      <trkpt lat="37.184320551" lon="-7.41285906945">
        <ele>17.2</ele>
        <time>2011-03-21T17:52:23Z</time>
      </trkpt>
      <trkpt lat="37.1842701758" lon="-7.41282017744">
        <ele>17.4</ele>
        <time>2011-03-21T17:52:25Z</time>
      </trkpt>
      <trkpt lat="37.1842202197" lon="-7.41279008642">
        <ele>17.6</ele>
        <time>2011-03-21T17:52:27Z</time>
      </trkpt>
      <trkpt lat="37.1841660726" lon="-7.41275513389">
        <ele>17.6</ele>
        <time>2011-03-21T17:52:29Z</time>
      </trkpt>
      <trkpt lat="37.1841146916" lon="-7.4127128053">
        <ele>17.6</ele>
        <time>2011-03-21T17:52:31Z</time>
      </trkpt>
      <trkpt lat="37.1840653222" lon="-7.41267642785">
        <ele>17.8</ele>
        <time>2011-03-21T17:52:33Z</time>
      </trkpt>
      <trkpt lat="37.1840133544" lon="-7.41263476981">
        <ele>17.8</ele>
        <time>2011-03-21T17:52:35Z</time>
      </trkpt>
      <trkpt lat="37.1839644041" lon="-7.41260090693">
        <ele>17.8</ele>
        <time>2011-03-21T17:52:37Z</time>
      </trkpt>
      <trkpt lat="37.1839148671" lon="-7.41256821752">
        <ele>17.8</ele>
        <time>2011-03-21T17:52:39Z</time>
      </trkpt>
      <trkpt lat="37.1838632346" lon="-7.4125328459">
        <ele>17.8</ele>
        <time>2011-03-21T17:52:41Z</time>
      </trkpt>
      <trkpt lat="37.1838057348" lon="-7.41249806102">
        <ele>17.8</ele>
        <time>2011-03-21T17:52:43Z</time>
      </trkpt>
      <trkpt lat="37.1837482349" lon="-7.41246537161">
        <ele>17.8</ele>
        <time>2011-03-21T17:52:45Z</time>
      </trkpt>
      <trkpt lat="37.1836893102" lon="-7.41242279156">
        <ele>17.8</ele>
        <time>2011-03-21T17:52:47Z</time>
      </trkpt>
      <trkpt lat="37.183633822" lon="-7.41238188789">
        <ele>18</ele>
        <time>2011-03-21T17:52:49Z</time>
      </trkpt>
      <trkpt lat="37.1835829438" lon="-7.41235288651">
        <ele>18</ele>
        <time>2011-03-21T17:52:51Z</time>
      </trkpt>
      <trkpt lat="37.1835306408" lon="-7.41231458123">
        <ele>18</ele>
        <time>2011-03-21T17:52:53Z</time>
      </trkpt>
      <trkpt lat="37.1834788407" lon="-7.41227409665">
        <ele>18</ele>
        <time>2011-03-21T17:52:55Z</time>
      </trkpt>
      <trkpt lat="37.1834255318" lon="-7.41223109751">
        <ele>18</ele>
        <time>2011-03-21T17:52:57Z</time>
      </trkpt>
      <trkpt lat="37.1833709656" lon="-7.412188266">
        <ele>18</ele>
        <time>2011-03-21T17:52:59Z</time>
      </trkpt>
      <trkpt lat="37.183315226" lon="-7.4121445963">
        <ele>18</ele>
        <time>2011-03-21T17:53:01Z</time>
      </trkpt>
      <trkpt lat="37.1832583129" lon="-7.41209623273">
        <ele>18</ele>
        <time>2011-03-21T17:53:03Z</time>
      </trkpt>
      <trkpt lat="37.1832072671" lon="-7.41205985529">
        <ele>18</ele>
        <time>2011-03-21T17:53:05Z</time>
      </trkpt>
      <trkpt lat="37.1831574786" lon="-7.41202750115">
        <ele>18</ele>
        <time>2011-03-21T17:53:07Z</time>
      </trkpt>
      <trkpt lat="37.1831042535" lon="-7.41198601075">
        <ele>18</ele>
        <time>2011-03-21T17:53:09Z</time>
      </trkpt>
      <trkpt lat="37.1830515314" lon="-7.4119451909">
        <ele>18</ele>
        <time>2011-03-21T17:53:11Z</time>
      </trkpt>
      <trkpt lat="37.1829987254" lon="-7.4119077238">
        <ele>18</ele>
        <time>2011-03-21T17:53:13Z</time>
      </trkpt>
      <trkpt lat="37.1829436563" lon="-7.41186707159">
        <ele>18</ele>
        <time>2011-03-21T17:53:15Z</time>
      </trkpt>
      <trkpt lat="37.1828889225" lon="-7.41182465917">
        <ele>18</ele>
        <time>2011-03-21T17:53:17Z</time>
      </trkpt>
      <trkpt lat="37.1828348593" lon="-7.41178191148">
        <ele>18</ele>
        <time>2011-03-21T17:53:19Z</time>
      </trkpt>
      <trkpt lat="37.1827836459" lon="-7.41174603695">
        <ele>18</ele>
        <time>2011-03-21T17:53:21Z</time>
      </trkpt>
      <trkpt lat="37.1827293312" lon="-7.41171108443">
        <ele>18</ele>
        <time>2011-03-21T17:53:23Z</time>
      </trkpt>
      <trkpt lat="37.1826765252" lon="-7.41167629954">
        <ele>18</ele>
        <time>2011-03-21T17:53:25Z</time>
      </trkpt>
      <trkpt lat="37.1826285807" lon="-7.41163908391">
        <ele>18</ele>
        <time>2011-03-21T17:53:27Z</time>
      </trkpt>
      <trkpt lat="37.182573344" lon="-7.41159985662">
        <ele>18</ele>
        <time>2011-03-21T17:53:29Z</time>
      </trkpt>
      <trkpt lat="37.1825192807" lon="-7.41156322771">
        <ele>18</ele>
        <time>2011-03-21T17:53:31Z</time>
      </trkpt>
      <trkpt lat="37.1824643793" lon="-7.41151980947">
        <ele>18</ele>
        <time>2011-03-21T17:53:33Z</time>
      </trkpt>
      <trkpt lat="37.1824088911" lon="-7.4114753854">
        <ele>18.4</ele>
        <time>2011-03-21T17:53:35Z</time>
      </trkpt>
      <trkpt lat="37.1823516427" lon="-7.41143121279">
        <ele>18.6</ele>
        <time>2011-03-21T17:53:37Z</time>
      </trkpt>
      <trkpt lat="37.1822970766" lon="-7.41138955474">
        <ele>19</ele>
        <time>2011-03-21T17:53:39Z</time>
      </trkpt>
      <trkpt lat="37.1822466175" lon="-7.41135409931">
        <ele>19.2</ele>
        <time>2011-03-21T17:53:41Z</time>
      </trkpt>
      <trkpt lat="37.1821896206" lon="-7.41130917232">
        <ele>19.2</ele>
        <time>2011-03-21T17:53:43Z</time>
      </trkpt>
      <trkpt lat="37.1821347192" lon="-7.41126315569">
        <ele>19.4</ele>
        <time>2011-03-21T17:53:45Z</time>
      </trkpt>
      <trkpt lat="37.1820858527" lon="-7.41122728116">
        <ele>19.6</ele>
        <time>2011-03-21T17:53:47Z</time>
      </trkpt>
      <trkpt lat="37.1820369024" lon="-7.41118654513">
        <ele>19.6</ele>
        <time>2011-03-21T17:53:49Z</time>
      </trkpt>
      <trkpt lat="37.1819892932" lon="-7.41115167642">
        <ele>19.6</ele>
        <time>2011-03-21T17:53:51Z</time>
      </trkpt>
      <trkpt lat="37.1819383312" lon="-7.41111555043">
        <ele>19.8</ele>
        <time>2011-03-21T17:53:53Z</time>
      </trkpt>
      <trkpt lat="37.1818843518" lon="-7.41107900535">
        <ele>19.8</ele>
        <time>2011-03-21T17:53:55Z</time>
      </trkpt>
      <trkpt lat="37.1818297856" lon="-7.41104346609">
        <ele>19.8</ele>
        <time>2011-03-21T17:53:57Z</time>
      </trkpt>
      <trkpt lat="37.181780081" lon="-7.4110112796">
        <ele>19.8</ele>
        <time>2011-03-21T17:53:59Z</time>
      </trkpt>
      <trkpt lat="37.1817262692" lon="-7.41097356105">
        <ele>19.8</ele>
        <time>2011-03-21T17:54:01Z</time>
      </trkpt>
      <trkpt lat="37.1816706134" lon="-7.41093508813">
        <ele>20</ele>
        <time>2011-03-21T17:54:03Z</time>
      </trkpt>
      <trkpt lat="37.181618897" lon="-7.41090273399">
        <ele>20</ele>
        <time>2011-03-21T17:54:05Z</time>
      </trkpt>
      <trkpt lat="37.1815637441" lon="-7.41086845202">
        <ele>20</ele>
        <time>2011-03-21T17:54:07Z</time>
      </trkpt>
      <trkpt lat="37.1815037297" lon="-7.41083458915">
        <ele>20</ele>
        <time>2011-03-21T17:54:09Z</time>
      </trkpt>
      <trkpt lat="37.1814495827" lon="-7.41079569713">
        <ele>20</ele>
        <time>2011-03-21T17:54:11Z</time>
      </trkpt>
      <trkpt lat="37.1813960223" lon="-7.41075714039">
        <ele>20</ele>
        <time>2011-03-21T17:54:13Z</time>
      </trkpt>
      <trkpt lat="37.1813410371" lon="-7.41072076294">
        <ele>20</ele>
        <time>2011-03-21T17:54:15Z</time>
      </trkpt>
      <trkpt lat="37.1812869738" lon="-7.41068094892">
        <ele>20</ele>
        <time>2011-03-21T17:54:17Z</time>
      </trkpt>
      <trkpt lat="37.1812334973" lon="-7.41064457147">
        <ele>20</ele>
        <time>2011-03-21T17:54:19Z</time>
      </trkpt>
      <trkpt lat="37.1811765004" lon="-7.41060769111">
        <ele>20</ele>
        <time>2011-03-21T17:54:21Z</time>
      </trkpt>
      <trkpt lat="37.1811221856" lon="-7.41057198422">
        <ele>20</ele>
        <time>2011-03-21T17:54:23Z</time>
      </trkpt>
      <trkpt lat="37.18106829" lon="-7.41054130647">
        <ele>20</ele>
        <time>2011-03-21T17:54:25Z</time>
      </trkpt>
      <trkpt lat="37.1810110417" lon="-7.41050727595">
        <ele>20</ele>
        <time>2011-03-21T17:54:27Z</time>
      </trkpt>
      <trkpt lat="37.1809548829" lon="-7.41045958294">
        <ele>20</ele>
        <time>2011-03-21T17:54:29Z</time>
      </trkpt>
      <trkpt lat="37.1809042562" lon="-7.41041985273">
        <ele>20</ele>
        <time>2011-03-21T17:54:31Z</time>
      </trkpt>
      <trkpt lat="37.1808496063" lon="-7.4103826371">
        <ele>20</ele>
        <time>2011-03-21T17:54:33Z</time>
      </trkpt>
      <trkpt lat="37.1808009912" lon="-7.41034399654">
        <ele>20</ele>
        <time>2011-03-21T17:54:35Z</time>
      </trkpt>
      <trkpt lat="37.1807450001" lon="-7.41030250613">
        <ele>20</ele>
        <time>2011-03-21T17:54:37Z</time>
      </trkpt>
      <trkpt lat="37.1806363707" lon="-7.41022916451">
        <ele>20</ele>
        <time>2011-03-21T17:54:41Z</time>
      </trkpt>
      <trkpt lat="37.1805803796" lon="-7.41019220033">
        <ele>20</ele>
        <time>2011-03-21T17:54:43Z</time>
      </trkpt>
      <trkpt lat="37.1805279928" lon="-7.41015054229">
        <ele>20</ele>
        <time>2011-03-21T17:54:45Z</time>
      </trkpt>
      <trkpt lat="37.1804692356" lon="-7.41010553148">
        <ele>20</ele>
        <time>2011-03-21T17:54:47Z</time>
      </trkpt>
      <trkpt lat="37.1804115682" lon="-7.4100658851">
        <ele>20</ele>
        <time>2011-03-21T17:54:49Z</time>
      </trkpt>
      <trkpt lat="37.1803578402" lon="-7.41003202222">
        <ele>20</ele>
        <time>2011-03-21T17:54:51Z</time>
      </trkpt>
      <trkpt lat="37.1803007594" lon="-7.410000171">
        <ele>20</ele>
        <time>2011-03-21T17:54:53Z</time>
      </trkpt>
      <trkpt lat="37.180271339" lon="-7.40998743051">
        <ele>20</ele>
        <time>2011-03-21T17:54:54Z</time>
      </trkpt>
      <trkpt lat="37.1801807306" lon="-7.41000620597">
        <ele>20</ele>
        <time>2011-03-21T17:54:57Z</time>
      </trkpt>
      <trkpt lat="37.1801274218" lon="-7.41004970803">
        <ele>20</ele>
        <time>2011-03-21T17:54:59Z</time>
      </trkpt>
      <trkpt lat="37.1801052935" lon="-7.41007619483">
        <ele>20</ele>
        <time>2011-03-21T17:55:00Z</time>
      </trkpt>
      <trkpt lat="37.180058774" lon="-7.41012355257">
        <ele>20</ele>
        <time>2011-03-21T17:55:02Z</time>
      </trkpt>
      <trkpt lat="37.1800122544" lon="-7.41017434688">
        <ele>20</ele>
        <time>2011-03-21T17:55:04Z</time>
      </trkpt>
      <trkpt lat="37.1799636394" lon="-7.41023335546">
        <ele>20</ele>
        <time>2011-03-21T17:55:06Z</time>
      </trkpt>
      <trkpt lat="37.1799197183" lon="-7.41028909509">
        <ele>20</ele>
        <time>2011-03-21T17:55:08Z</time>
      </trkpt>
      <trkpt lat="37.1798728635" lon="-7.41034332599">
        <ele>20</ele>
        <time>2011-03-21T17:55:10Z</time>
      </trkpt>
      <trkpt lat="37.1798265954" lon="-7.41039537759">
        <ele>20</ele>
        <time>2011-03-21T17:55:12Z</time>
      </trkpt>
      <trkpt lat="37.179781836" lon="-7.41044038839">
        <ele>20</ele>
        <time>2011-03-21T17:55:14Z</time>
      </trkpt>
      <trkpt lat="37.1797354003" lon="-7.41048975778">
        <ele>20</ele>
        <time>2011-03-21T17:55:16Z</time>
      </trkpt>
      <trkpt lat="37.1796898028" lon="-7.41053686406">
        <ele>20</ele>
        <time>2011-03-21T17:55:18Z</time>
      </trkpt>
      <trkpt lat="37.1796421936" lon="-7.41057223568">
        <ele>20</ele>
        <time>2011-03-21T17:55:20Z</time>
      </trkpt>
      <trkpt lat="37.1795908125" lon="-7.41061179824">
        <ele>20</ele>
        <time>2011-03-21T17:55:22Z</time>
      </trkpt>
      <trkpt lat="37.1795425328" lon="-7.41066175437">
        <ele>20</ele>
        <time>2011-03-21T17:55:24Z</time>
      </trkpt>
      <trkpt lat="37.1794929957" lon="-7.41071137522">
        <ele>20</ele>
        <time>2011-03-21T17:55:26Z</time>
      </trkpt>
      <trkpt lat="37.1794489069" lon="-7.41076359445">
        <ele>20</ele>
        <time>2011-03-21T17:55:28Z</time>
      </trkpt>
      <trkpt lat="37.179404902" lon="-7.4108149755">
        <ele>20</ele>
        <time>2011-03-21T17:55:30Z</time>
      </trkpt>
      <trkpt lat="37.179361819" lon="-7.41086241705">
        <ele>20</ele>
        <time>2011-03-21T17:55:32Z</time>
      </trkpt>
      <trkpt lat="37.1793127011" lon="-7.4109137981">
        <ele>20</ele>
        <time>2011-03-21T17:55:34Z</time>
      </trkpt>
      <trkpt lat="37.1792680255" lon="-7.41096794518">
        <ele>20</ele>
        <time>2011-03-21T17:55:36Z</time>
      </trkpt>
      <trkpt lat="37.1792215898" lon="-7.41103030651">
        <ele>20</ele>
        <time>2011-03-21T17:55:38Z</time>
      </trkpt>
      <trkpt lat="37.1791991263" lon="-7.41106048135">
        <ele>20</ele>
        <time>2011-03-21T17:55:39Z</time>
      </trkpt>
      <trkpt lat="37.1791468233" lon="-7.41114882658">
        <ele>20</ele>
        <time>2011-03-21T17:55:42Z</time>
      </trkpt>
      <trkpt lat="37.1791084342" lon="-7.41121495977">
        <ele>20</ele>
        <time>2011-03-21T17:55:44Z</time>
      </trkpt>
      <trkpt lat="37.1790697098" lon="-7.41128880431">
        <ele>20</ele>
        <time>2011-03-21T17:55:46Z</time>
      </trkpt>
      <trkpt lat="37.1790338353" lon="-7.41136122392">
        <ele>20</ele>
        <time>2011-03-21T17:55:48Z</time>
      </trkpt>
      <trkpt lat="37.1789969549" lon="-7.41143221862">
        <ele>20</ele>
        <time>2011-03-21T17:55:50Z</time>
      </trkpt>
      <trkpt lat="37.1789609966" lon="-7.41150287803">
        <ele>20</ele>
        <time>2011-03-21T17:55:52Z</time>
      </trkpt>
      <trkpt lat="37.1789316599" lon="-7.41157697403">
        <ele>20</ele>
        <time>2011-03-21T17:55:54Z</time>
      </trkpt>
      <trkpt lat="37.1789053407" lon="-7.41164989656">
        <ele>20</ele>
        <time>2011-03-21T17:55:56Z</time>
      </trkpt>
      <trkpt lat="37.1788764232" lon="-7.41172189708">
        <ele>20</ele>
        <time>2011-03-21T17:55:58Z</time>
      </trkpt>
      <trkpt lat="37.1788468351" lon="-7.41179347851">
        <ele>20</ele>
        <time>2011-03-21T17:56:00Z</time>
      </trkpt>
      <trkpt lat="37.1788135589" lon="-7.41186070134">
        <ele>20</ele>
        <time>2011-03-21T17:56:02Z</time>
      </trkpt>
      <trkpt lat="37.1787801151" lon="-7.41192675072">
        <ele>20</ele>
        <time>2011-03-21T17:56:04Z</time>
      </trkpt>
      <trkpt lat="37.1787442406" lon="-7.41199338682">
        <ele>20</ele>
        <time>2011-03-21T17:56:06Z</time>
      </trkpt>
      <trkpt lat="37.1787119703" lon="-7.41205599961">
        <ele>20</ele>
        <time>2011-03-21T17:56:08Z</time>
      </trkpt>
      <trkpt lat="37.1786789456" lon="-7.41212179753">
        <ele>19.8</ele>
        <time>2011-03-21T17:56:10Z</time>
      </trkpt>
      <trkpt lat="37.1786520397" lon="-7.41218742781">
        <ele>19.4</ele>
        <time>2011-03-21T17:56:12Z</time>
      </trkpt>
      <trkpt lat="37.1786256367" lon="-7.41225096261">
        <ele>19.2</ele>
        <time>2011-03-21T17:56:14Z</time>
      </trkpt>
      <trkpt lat="37.1785963839" lon="-7.41232078384">
        <ele>19</ele>
        <time>2011-03-21T17:56:16Z</time>
      </trkpt>
      <trkpt lat="37.1785660414" lon="-7.41239085652">
        <ele>18.8</ele>
        <time>2011-03-21T17:56:18Z</time>
      </trkpt>
      <trkpt lat="37.1785367886" lon="-7.41246327614">
        <ele>18.6</ele>
        <time>2011-03-21T17:56:20Z</time>
      </trkpt>
      <trkpt lat="37.1785066976" lon="-7.41253301354">
        <ele>18.4</ele>
        <time>2011-03-21T17:56:22Z</time>
      </trkpt>
      <trkpt lat="37.1784771095" lon="-7.41260224804">
        <ele>18.4</ele>
        <time>2011-03-21T17:56:24Z</time>
      </trkpt>
      <trkpt lat="37.178449533" lon="-7.41267475147">
        <ele>18.2</ele>
        <time>2011-03-21T17:56:26Z</time>
      </trkpt>
      <trkpt lat="37.1784200287" lon="-7.41274298014">
        <ele>18.2</ele>
        <time>2011-03-21T17:56:28Z</time>
      </trkpt>
      <trkpt lat="37.1783928714" lon="-7.41281565121">
        <ele>18.2</ele>
        <time>2011-03-21T17:56:30Z</time>
      </trkpt>
      <trkpt lat="37.1783704917" lon="-7.41288547244">
        <ele>18.2</ele>
        <time>2011-03-21T17:56:32Z</time>
      </trkpt>
      <trkpt lat="37.1783477767" lon="-7.41295705386">
        <ele>18</ele>
        <time>2011-03-21T17:56:34Z</time>
      </trkpt>
      <trkpt lat="37.178326822" lon="-7.41303341297">
        <ele>17.8</ele>
        <time>2011-03-21T17:56:36Z</time>
      </trkpt>
      <trkpt lat="37.1782997485" lon="-7.41310583259">
        <ele>17.6</ele>
        <time>2011-03-21T17:56:38Z</time>
      </trkpt>
      <trkpt lat="37.1782647121" lon="-7.41319283671">
        <ele>17.2</ele>
        <time>2011-03-21T17:56:40Z</time>
      </trkpt>
      <trkpt lat="37.1782410752" lon="-7.41325394076">
        <ele>17</ele>
        <time>2011-03-21T17:56:42Z</time>
      </trkpt>
      <trkpt lat="37.1782127443" lon="-7.41332543837">
        <ele>16.8</ele>
        <time>2011-03-21T17:56:44Z</time>
      </trkpt>
      <trkpt lat="37.1781870957" lon="-7.41339769035">
        <ele>16.6</ele>
        <time>2011-03-21T17:56:46Z</time>
      </trkpt>
      <trkpt lat="37.1781578429" lon="-7.41347363036">
        <ele>16.4</ele>
        <time>2011-03-21T17:56:48Z</time>
      </trkpt>
      <trkpt lat="37.1781328648" lon="-7.41354998947">
        <ele>16.4</ele>
        <time>2011-03-21T17:56:50Z</time>
      </trkpt>
      <trkpt lat="37.178109647" lon="-7.41362400165">
        <ele>16.4</ele>
        <time>2011-03-21T17:56:52Z</time>
      </trkpt>
      <trkpt lat="37.1780837469" lon="-7.41369960639">
        <ele>16.2</ele>
        <time>2011-03-21T17:56:54Z</time>
      </trkpt>
      <trkpt lat="37.1780582659" lon="-7.41377563022">
        <ele>16.2</ele>
        <time>2011-03-21T17:56:56Z</time>
      </trkpt>
      <trkpt lat="37.1780323658" lon="-7.41384997767">
        <ele>16.2</ele>
        <time>2011-03-21T17:56:58Z</time>
      </trkpt>
      <trkpt lat="37.1780014366" lon="-7.41392373839">
        <ele>16.2</ele>
        <time>2011-03-21T17:57:00Z</time>
      </trkpt>
      <trkpt lat="37.1779754527" lon="-7.41399531982">
        <ele>16</ele>
        <time>2011-03-21T17:57:02Z</time>
      </trkpt>
      <trkpt lat="37.177947541" lon="-7.41406732034">
        <ele>16</ele>
        <time>2011-03-21T17:57:04Z</time>
      </trkpt>
      <trkpt lat="37.1779210542" lon="-7.41413856649">
        <ele>16</ele>
        <time>2011-03-21T17:57:06Z</time>
      </trkpt>
      <trkpt lat="37.1778979202" lon="-7.41420956118">
        <ele>16</ele>
        <time>2011-03-21T17:57:08Z</time>
      </trkpt>
      <trkpt lat="37.1778760434" lon="-7.41428030442">
        <ele>16</ele>
        <time>2011-03-21T17:57:10Z</time>
      </trkpt>
      <trkpt lat="37.1778639735" lon="-7.41431651423">
        <ele>16</ele>
        <time>2011-03-21T17:57:11Z</time>
      </trkpt>
      <trkpt lat="37.1778523226" lon="-7.41435188584">
        <ele>16</ele>
        <time>2011-03-21T17:57:12Z</time>
      </trkpt>
      <trkpt lat="37.1778280151" lon="-7.41442153943">
        <ele>15.6</ele>
        <time>2011-03-21T17:57:14Z</time>
      </trkpt>
      <trkpt lat="37.1778032885" lon="-7.41448951664">
        <ele>15.2</ele>
        <time>2011-03-21T17:57:16Z</time>
      </trkpt>
      <trkpt lat="37.1777827529" lon="-7.41456637866">
        <ele>15</ele>
        <time>2011-03-21T17:57:18Z</time>
      </trkpt>
      <trkpt lat="37.1777643127" lon="-7.41464282159">
        <ele>14.8</ele>
        <time>2011-03-21T17:57:20Z</time>
      </trkpt>
      <trkpt lat="37.1777509855" lon="-7.41471901306">
        <ele>14.6</ele>
        <time>2011-03-21T17:57:22Z</time>
      </trkpt>
      <trkpt lat="37.1777374906" lon="-7.41479042685">
        <ele>14.4</ele>
        <time>2011-03-21T17:57:24Z</time>
      </trkpt>
      <trkpt lat="37.1777130155" lon="-7.41486175682">
        <ele>14.4</ele>
        <time>2011-03-21T17:57:26Z</time>
      </trkpt>
      <trkpt lat="37.1776886241" lon="-7.41493300297">
        <ele>14.2</ele>
        <time>2011-03-21T17:57:28Z</time>
      </trkpt>
      <trkpt lat="37.1776576111" lon="-7.4150094459">
        <ele>14.2</ele>
        <time>2011-03-21T17:57:30Z</time>
      </trkpt>
      <trkpt lat="37.177627101" lon="-7.4150827037">
        <ele>14.2</ele>
        <time>2011-03-21T17:57:32Z</time>
      </trkpt>
      <trkpt lat="37.1775961718" lon="-7.41515537478">
        <ele>14.2</ele>
        <time>2011-03-21T17:57:34Z</time>
      </trkpt>
      <trkpt lat="37.1775658293" lon="-7.41522754294">
        <ele>14</ele>
        <time>2011-03-21T17:57:36Z</time>
      </trkpt>
      <trkpt lat="37.1775415218" lon="-7.41530189039">
        <ele>14</ele>
        <time>2011-03-21T17:57:38Z</time>
      </trkpt>
      <trkpt lat="37.177519645" lon="-7.41537196307">
        <ele>14</ele>
        <time>2011-03-21T17:57:40Z</time>
      </trkpt>
      <trkpt lat="37.1774928229" lon="-7.4154431254">
        <ele>14</ele>
        <time>2011-03-21T17:57:42Z</time>
      </trkpt>
      <trkpt lat="37.1774629834" lon="-7.41551520974">
        <ele>14</ele>
        <time>2011-03-21T17:57:44Z</time>
      </trkpt>
      <trkpt lat="37.17743306" lon="-7.4155873779">
        <ele>14</ele>
        <time>2011-03-21T17:57:46Z</time>
      </trkpt>
      <trkpt lat="37.177405735" lon="-7.4156610548">
        <ele>14</ele>
        <time>2011-03-21T17:57:48Z</time>
      </trkpt>
      <trkpt lat="37.1773769013" lon="-7.41573104367">
        <ele>14</ele>
        <time>2011-03-21T17:57:50Z</time>
      </trkpt>
      <trkpt lat="37.1773478161" lon="-7.41580321183">
        <ele>14</ele>
        <time>2011-03-21T17:57:52Z</time>
      </trkpt>
      <trkpt lat="37.1773154619" lon="-7.41587755928">
        <ele>14</ele>
        <time>2011-03-21T17:57:54Z</time>
      </trkpt>
      <trkpt lat="37.1772837784" lon="-7.4159517391">
        <ele>14</ele>
        <time>2011-03-21T17:57:56Z</time>
      </trkpt>
      <trkpt lat="37.1772599738" lon="-7.41602315288">
        <ele>14</ele>
        <time>2011-03-21T17:57:58Z</time>
      </trkpt>
      <trkpt lat="37.1772360853" lon="-7.41609146537">
        <ele>14</ele>
        <time>2011-03-21T17:58:00Z</time>
      </trkpt>
      <trkpt lat="37.1772090118" lon="-7.41616765684">
        <ele>14</ele>
        <time>2011-03-21T17:58:02Z</time>
      </trkpt>
      <trkpt lat="37.1771847043" lon="-7.41624611142">
        <ele>14</ele>
        <time>2011-03-21T17:58:04Z</time>
      </trkpt>
      <trkpt lat="37.1771646716" lon="-7.41632205144">
        <ele>14</ele>
        <time>2011-03-21T17:58:06Z</time>
      </trkpt>
      <trkpt lat="37.1771480754" lon="-7.41640050602">
        <ele>14</ele>
        <time>2011-03-21T17:58:08Z</time>
      </trkpt>
      <trkpt lat="37.177135754" lon="-7.41648122372">
        <ele>14</ele>
        <time>2011-03-21T17:58:10Z</time>
      </trkpt>
      <trkpt lat="37.177123265" lon="-7.41656445599">
        <ele>14</ele>
        <time>2011-03-21T17:58:12Z</time>
      </trkpt>
      <trkpt lat="37.1771131229" lon="-7.41664400022">
        <ele>14</ele>
        <time>2011-03-21T17:58:14Z</time>
      </trkpt>
      <trkpt lat="37.1771070041" lon="-7.41672186807">
        <ele>14</ele>
        <time>2011-03-21T17:58:16Z</time>
      </trkpt>
      <trkpt lat="37.1771007177" lon="-7.41679696989">
        <ele>14</ele>
        <time>2011-03-21T17:58:18Z</time>
      </trkpt>
      <trkpt lat="37.1771022264" lon="-7.41687257463">
        <ele>14</ele>
        <time>2011-03-21T17:58:20Z</time>
      </trkpt>
      <trkpt lat="37.1770988736" lon="-7.41695329233">
        <ele>13.6</ele>
        <time>2011-03-21T17:58:22Z</time>
      </trkpt>
      <trkpt lat="37.1770910785" lon="-7.41703501585">
        <ele>13.2</ele>
        <time>2011-03-21T17:58:24Z</time>
      </trkpt>
      <trkpt lat="37.1770854626" lon="-7.41711380571">
        <ele>13</ele>
        <time>2011-03-21T17:58:26Z</time>
      </trkpt>
      <trkpt lat="37.1770858817" lon="-7.41718622533">
        <ele>12.8</ele>
        <time>2011-03-21T17:58:28Z</time>
      </trkpt>
      <trkpt lat="37.1770776674" lon="-7.41726518283">
        <ele>12.6</ele>
        <time>2011-03-21T17:58:30Z</time>
      </trkpt>
      <trkpt lat="37.1770626638" lon="-7.41734707399">
        <ele>12.4</ele>
        <time>2011-03-21T17:58:32Z</time>
      </trkpt>
      <trkpt lat="37.1770460677" lon="-7.41742561239">
        <ele>12.4</ele>
        <time>2011-03-21T17:58:34Z</time>
      </trkpt>
      <trkpt lat="37.1770367638" lon="-7.41750348024">
        <ele>12.2</ele>
        <time>2011-03-21T17:58:36Z</time>
      </trkpt>
      <trkpt lat="37.1770321537" lon="-7.41758009081">
        <ele>12.2</ele>
        <time>2011-03-21T17:58:38Z</time>
      </trkpt>
      <trkpt lat="37.1770281304" lon="-7.417655025">
        <ele>12</ele>
        <time>2011-03-21T17:58:40Z</time>
      </trkpt>
      <trkpt lat="37.1770242747" lon="-7.41773079737">
        <ele>12</ele>
        <time>2011-03-21T17:58:42Z</time>
      </trkpt>
      <trkpt lat="37.1770204191" lon="-7.41781302381">
        <ele>12</ele>
        <time>2011-03-21T17:58:44Z</time>
      </trkpt>
      <trkpt lat="37.1770112828" lon="-7.41789918974">
        <ele>12</ele>
        <time>2011-03-21T17:58:46Z</time>
      </trkpt>
      <trkpt lat="37.1770046611" lon="-7.41798627768">
        <ele>12</ele>
        <time>2011-03-21T17:58:48Z</time>
      </trkpt>
      <trkpt lat="37.177002398" lon="-7.4180684203">
        <ele>12</ele>
        <time>2011-03-21T17:58:50Z</time>
      </trkpt>
      <trkpt lat="37.1769940999" lon="-7.41814746162">
        <ele>12</ele>
        <time>2011-03-21T17:58:52Z</time>
      </trkpt>
      <trkpt lat="37.1769920044" lon="-7.41822750877">
        <ele>11.8</ele>
        <time>2011-03-21T17:58:54Z</time>
      </trkpt>
      <trkpt lat="37.1769920882" lon="-7.41831090867">
        <ele>11.4</ele>
        <time>2011-03-21T17:58:56Z</time>
      </trkpt>
      <trkpt lat="37.1769907471" lon="-7.41839279983">
        <ele>11</ele>
        <time>2011-03-21T17:58:58Z</time>
      </trkpt>
      <trkpt lat="37.1769899089" lon="-7.41847552919">
        <ele>10.8</ele>
        <time>2011-03-21T17:59:00Z</time>
      </trkpt>
      <trkpt lat="37.1769899928" lon="-7.41855943201">
        <ele>10.6</ele>
        <time>2011-03-21T17:59:02Z</time>
      </trkpt>
      <trkpt lat="37.1769878973" lon="-7.41864450829">
        <ele>10.4</ele>
        <time>2011-03-21T17:59:04Z</time>
      </trkpt>
      <trkpt lat="37.1769878135" lon="-7.41872832729">
        <ele>10.4</ele>
        <time>2011-03-21T17:59:06Z</time>
      </trkpt>
      <trkpt lat="37.17698664" lon="-7.41881323594">
        <ele>10.2</ele>
        <time>2011-03-21T17:59:08Z</time>
      </trkpt>
      <trkpt lat="37.1769878135" lon="-7.41889445655">
        <ele>10.2</ele>
        <time>2011-03-21T17:59:10Z</time>
      </trkpt>
      <trkpt lat="37.1769892384" lon="-7.41897291113">
        <ele>10.2</ele>
        <time>2011-03-21T17:59:12Z</time>
      </trkpt>
      <trkpt lat="37.17698664" lon="-7.41905513757">
        <ele>10</ele>
        <time>2011-03-21T17:59:14Z</time>
      </trkpt>
      <trkpt lat="37.1769803536" lon="-7.4191368611">
        <ele>10</ele>
        <time>2011-03-21T17:59:16Z</time>
      </trkpt>
      <trkpt lat="37.1769808565" lon="-7.41922176974">
        <ele>10</ele>
        <time>2011-03-21T17:59:18Z</time>
      </trkpt>
      <trkpt lat="37.1769790963" lon="-7.41930500201">
        <ele>10</ele>
        <time>2011-03-21T17:59:20Z</time>
      </trkpt>
      <trkpt lat="37.1769725584" lon="-7.41938873719">
        <ele>10</ele>
        <time>2011-03-21T17:59:22Z</time>
      </trkpt>
      <trkpt lat="37.1769673616" lon="-7.41947473549">
        <ele>10</ele>
        <time>2011-03-21T17:59:24Z</time>
      </trkpt>
      <trkpt lat="37.1769744863" lon="-7.41954313179">
        <ele>10</ele>
        <time>2011-03-21T17:59:26Z</time>
      </trkpt>
      <trkpt lat="37.1769754083" lon="-7.41961353975">
        <ele>9.8</ele>
        <time>2011-03-21T17:59:28Z</time>
      </trkpt>
      <trkpt lat="37.1769689542" lon="-7.41969132378">
        <ele>9.8</ele>
        <time>2011-03-21T17:59:30Z</time>
      </trkpt>
      <trkpt lat="37.1769632545" lon="-7.41977137093">
        <ele>9.8</ele>
        <time>2011-03-21T17:59:32Z</time>
      </trkpt>
      <trkpt lat="37.1769564652" lon="-7.41985208862">
        <ele>9.6</ele>
        <time>2011-03-21T17:59:34Z</time>
      </trkpt>
      <trkpt lat="37.176949592" lon="-7.41993750018">
        <ele>9.4</ele>
        <time>2011-03-21T17:59:36Z</time>
      </trkpt>
      <trkpt lat="37.1769432218" lon="-7.42001796642">
        <ele>9</ele>
        <time>2011-03-21T17:59:38Z</time>
      </trkpt>
      <trkpt lat="37.1769406234" lon="-7.42009952231">
        <ele>8.8</ele>
        <time>2011-03-21T17:59:40Z</time>
      </trkpt>
      <trkpt lat="37.1769375221" lon="-7.42017822835">
        <ele>8.6</ele>
        <time>2011-03-21T17:59:42Z</time>
      </trkpt>
      <trkpt lat="37.1769336664" lon="-7.42025953278">
        <ele>8.4</ele>
        <time>2011-03-21T17:59:44Z</time>
      </trkpt>
      <trkpt lat="37.176930146" lon="-7.42034058576">
        <ele>8.4</ele>
        <time>2011-03-21T17:59:46Z</time>
      </trkpt>
      <trkpt lat="37.1769247816" lon="-7.42042046526">
        <ele>8.2</ele>
        <time>2011-03-21T17:59:48Z</time>
      </trkpt>
      <trkpt lat="37.176922267" lon="-7.42050176969">
        <ele>8.2</ele>
        <time>2011-03-21T17:59:50Z</time>
      </trkpt>
      <trkpt lat="37.1769205906" lon="-7.42058290648">
        <ele>8.2</ele>
        <time>2011-03-21T17:59:52Z</time>
      </trkpt>
      <trkpt lat="37.1769202554" lon="-7.42066203162">
        <ele>8</ele>
        <time>2011-03-21T17:59:54Z</time>
      </trkpt>
      <trkpt lat="37.1769171541" lon="-7.42074115676">
        <ele>8</ele>
        <time>2011-03-21T17:59:56Z</time>
      </trkpt>
      <trkpt lat="37.1769148071" lon="-7.42081776732">
        <ele>8</ele>
        <time>2011-03-21T17:59:58Z</time>
      </trkpt>
      <trkpt lat="37.1769117058" lon="-7.42089731155">
        <ele>8</ele>
        <time>2011-03-21T18:00:00Z</time>
      </trkpt>
      <trkpt lat="37.1769094427" lon="-7.42097995709">
        <ele>8</ele>
        <time>2011-03-21T18:00:02Z</time>
      </trkpt>
      <trkpt lat="37.1769092751" lon="-7.42106209971">
        <ele>8</ele>
        <time>2011-03-21T18:00:04Z</time>
      </trkpt>
      <trkpt lat="37.1769113705" lon="-7.42114306886">
        <ele>7.8</ele>
        <time>2011-03-21T18:00:06Z</time>
      </trkpt>
      <trkpt lat="37.1769150586" lon="-7.42122554676">
        <ele>7.8</ele>
        <time>2011-03-21T18:00:08Z</time>
      </trkpt>
      <trkpt lat="37.1769170702" lon="-7.42130727028">
        <ele>7.8</ele>
        <time>2011-03-21T18:00:10Z</time>
      </trkpt>
      <trkpt lat="37.1769248654" lon="-7.42139150838">
        <ele>7.8</ele>
        <time>2011-03-21T18:00:12Z</time>
      </trkpt>
      <trkpt lat="37.1769316547" lon="-7.42147474064">
        <ele>7.8</ele>
        <time>2011-03-21T18:00:14Z</time>
      </trkpt>
      <trkpt lat="37.1769418807" lon="-7.42155277613">
        <ele>7.8</ele>
        <time>2011-03-21T18:00:16Z</time>
      </trkpt>
      <trkpt lat="37.1769487538" lon="-7.42163097926">
        <ele>7.8</ele>
        <time>2011-03-21T18:00:18Z</time>
      </trkpt>
      <trkpt lat="37.1769563813" lon="-7.4217083442">
        <ele>7.8</ele>
        <time>2011-03-21T18:00:20Z</time>
      </trkpt>
      <trkpt lat="37.1769610752" lon="-7.4217515948">
        <ele>7.8</ele>
        <time>2011-03-21T18:00:21Z</time>
      </trkpt>
      <trkpt lat="37.177023688" lon="-7.4218442148">
        <ele>7.8</ele>
        <time>2011-03-21T18:00:24Z</time>
      </trkpt>
      <trkpt lat="37.1770532761" lon="-7.42186164915">
        <ele>7.8</ele>
        <time>2011-03-21T18:00:25Z</time>
      </trkpt>
      <trkpt lat="37.1771475725" lon="-7.42190850397">
        <ele>7.8</ele>
        <time>2011-03-21T18:00:28Z</time>
      </trkpt>
      <trkpt lat="37.177213538" lon="-7.42193633188">
        <ele>7.8</ele>
        <time>2011-03-21T18:00:30Z</time>
      </trkpt>
      <trkpt lat="37.1772800065" lon="-7.42195921446">
        <ele>7.8</ele>
        <time>2011-03-21T18:00:32Z</time>
      </trkpt>
      <trkpt lat="37.177348319" lon="-7.42196927274">
        <ele>7.8</ele>
        <time>2011-03-21T18:00:34Z</time>
      </trkpt>
      <trkpt lat="37.177418224" lon="-7.42197120058">
        <ele>7.8</ele>
        <time>2011-03-21T18:00:36Z</time>
      </trkpt>
      <trkpt lat="37.1774842734" lon="-7.42196550089">
        <ele>7.8</ele>
        <time>2011-03-21T18:00:38Z</time>
      </trkpt>
      <trkpt lat="37.1775587047" lon="-7.42195770572">
        <ele>7.8</ele>
        <time>2011-03-21T18:00:40Z</time>
      </trkpt>
      <trkpt lat="37.1776281906" lon="-7.42194907237">
        <ele>7.8</ele>
        <time>2011-03-21T18:00:42Z</time>
      </trkpt>
      <trkpt lat="37.1776947429" lon="-7.42194010373">
        <ele>7.8</ele>
        <time>2011-03-21T18:00:44Z</time>
      </trkpt>
      <trkpt lat="37.1777571043" lon="-7.42192862053">
        <ele>7.8</ele>
        <time>2011-03-21T18:00:46Z</time>
      </trkpt>
      <trkpt lat="37.1778301944" lon="-7.42192023863">
        <ele>7.8</ele>
        <time>2011-03-21T18:00:48Z</time>
      </trkpt>
      <trkpt lat="37.1778946512" lon="-7.4219143713">
        <ele>7.8</ele>
        <time>2011-03-21T18:00:50Z</time>
      </trkpt>
      <trkpt lat="37.1779613712" lon="-7.4219077496">
        <ele>7.8</ele>
        <time>2011-03-21T18:00:52Z</time>
      </trkpt>
      <trkpt lat="37.1780192063" lon="-7.42189484147">
        <ele>7.8</ele>
        <time>2011-03-21T18:00:54Z</time>
      </trkpt>
      <trkpt lat="37.1780847527" lon="-7.42188243626">
        <ele>7.8</ele>
        <time>2011-03-21T18:00:56Z</time>
      </trkpt>
      <trkpt lat="37.1781429231" lon="-7.42187346763">
        <ele>7.8</ele>
        <time>2011-03-21T18:00:58Z</time>
      </trkpt>
      <trkpt lat="37.1782010935" lon="-7.42186500191">
        <ele>7.8</ele>
        <time>2011-03-21T18:01:00Z</time>
      </trkpt>
      <trkpt lat="37.1782559111" lon="-7.42184966303">
        <ele>7.8</ele>
        <time>2011-03-21T18:01:02Z</time>
      </trkpt>
      <trkpt lat="37.1783097229" lon="-7.42183801219">
        <ele>7.8</ele>
        <time>2011-03-21T18:01:04Z</time>
      </trkpt>
      <trkpt lat="37.1783633671" lon="-7.42182678044">
        <ele>7.8</ele>
        <time>2011-03-21T18:01:06Z</time>
      </trkpt>
      <trkpt lat="37.1784233815" lon="-7.42181647071">
        <ele>7.8</ele>
        <time>2011-03-21T18:01:08Z</time>
      </trkpt>
      <trkpt lat="37.1784842341" lon="-7.42180373022">
        <ele>7.8</ele>
        <time>2011-03-21T18:01:10Z</time>
      </trkpt>
      <trkpt lat="37.1785377944" lon="-7.42179048682">
        <ele>7.8</ele>
        <time>2011-03-21T18:01:12Z</time>
      </trkpt>
      <trkpt lat="37.1785921929" lon="-7.42178109909">
        <ele>7.8</ele>
        <time>2011-03-21T18:01:14Z</time>
      </trkpt>
      <trkpt lat="37.1786522074" lon="-7.42177992562">
        <ele>7.8</ele>
        <time>2011-03-21T18:01:16Z</time>
      </trkpt>
      <trkpt lat="37.1787345176" lon="-7.42176894533">
        <ele>7.8</ele>
        <time>2011-03-21T18:01:19Z</time>
      </trkpt>
      <trkpt lat="37.1787865692" lon="-7.42175964142">
        <ele>7.8</ele>
        <time>2011-03-21T18:01:21Z</time>
      </trkpt>
      <trkpt lat="37.1788415545" lon="-7.42174891259">
        <ele>7.8</ele>
        <time>2011-03-21T18:01:23Z</time>
      </trkpt>
      <trkpt lat="37.1788947795" lon="-7.42174723621">
        <ele>7.8</ele>
        <time>2011-03-21T18:01:25Z</time>
      </trkpt>
      <trkpt lat="37.1789595716" lon="-7.42174882877">
        <ele>7.8</ele>
        <time>2011-03-21T18:01:27Z</time>
      </trkpt>
      <trkpt lat="37.1790242799" lon="-7.42174346436">
        <ele>7.8</ele>
        <time>2011-03-21T18:01:29Z</time>
      </trkpt>
      <trkpt lat="37.1790879823" lon="-7.42174162034">
        <ele>7.8</ele>
        <time>2011-03-21T18:01:31Z</time>
      </trkpt>
      <trkpt lat="37.1791512657" lon="-7.42173885431">
        <ele>7.8</ele>
        <time>2011-03-21T18:01:33Z</time>
      </trkpt>
      <trkpt lat="37.1792168121" lon="-7.42172779021">
        <ele>7.8</ele>
        <time>2011-03-21T18:01:35Z</time>
      </trkpt>
      <trkpt lat="37.1792842864" lon="-7.42171236751">
        <ele>7.8</ele>
        <time>2011-03-21T18:01:37Z</time>
      </trkpt>
      <trkpt lat="37.179360897" lon="-7.42170230923">
        <ele>7.8</ele>
        <time>2011-03-21T18:01:39Z</time>
      </trkpt>
      <trkpt lat="37.1794284551" lon="-7.42169535225">
        <ele>7.8</ele>
        <time>2011-03-21T18:01:41Z</time>
      </trkpt>
      <trkpt lat="37.1794983602" lon="-7.42168806">
        <ele>8</ele>
        <time>2011-03-21T18:01:43Z</time>
      </trkpt>
      <trkpt lat="37.1795653315" lon="-7.42167213439">
        <ele>8.4</ele>
        <time>2011-03-21T18:01:45Z</time>
      </trkpt>
      <trkpt lat="37.1796328058" lon="-7.42165486768">
        <ele>8.6</ele>
        <time>2011-03-21T18:01:47Z</time>
      </trkpt>
      <trkpt lat="37.1797020403" lon="-7.42163726569">
        <ele>8.8</ele>
        <time>2011-03-21T18:01:49Z</time>
      </trkpt>
      <trkpt lat="37.179764234" lon="-7.42161983133">
        <ele>9</ele>
        <time>2011-03-21T18:01:51Z</time>
      </trkpt>
      <trkpt lat="37.179799438" lon="-7.4216122038">
        <ele>9.2</ele>
        <time>2011-03-21T18:01:52Z</time>
      </trkpt>
      <trkpt lat="37.1798339714" lon="-7.42160398954">
        <ele>9.2</ele>
        <time>2011-03-21T18:01:53Z</time>
      </trkpt>
      <trkpt lat="37.1799011943" lon="-7.42158588464">
        <ele>9.4</ele>
        <time>2011-03-21T18:01:55Z</time>
      </trkpt>
      <trkpt lat="37.1799645614" lon="-7.4215685341">
        <ele>9.4</ele>
        <time>2011-03-21T18:01:57Z</time>
      </trkpt>
      <trkpt lat="37.1800336283" lon="-7.42155436869">
        <ele>9.4</ele>
        <time>2011-03-21T18:01:59Z</time>
      </trkpt>
      <trkpt lat="37.1800994262" lon="-7.42153483887">
        <ele>9.6</ele>
        <time>2011-03-21T18:02:01Z</time>
      </trkpt>
      <trkpt lat="37.1801650565" lon="-7.42151547668">
        <ele>9.6</ele>
        <time>2011-03-21T18:02:03Z</time>
      </trkpt>
      <trkpt lat="37.1802304353" lon="-7.42149460575">
        <ele>9.6</ele>
        <time>2011-03-21T18:02:05Z</time>
      </trkpt>
      <trkpt lat="37.1802936348" lon="-7.42147432155">
        <ele>9.6</ele>
        <time>2011-03-21T18:02:07Z</time>
      </trkpt>
      <trkpt lat="37.1803557447" lon="-7.4214568872">
        <ele>9.8</ele>
        <time>2011-03-21T18:02:09Z</time>
      </trkpt>
      <trkpt lat="37.1804161782" lon="-7.42144817002">
        <ele>9.8</ele>
        <time>2011-03-21T18:02:11Z</time>
      </trkpt>
      <trkpt lat="37.1804767793" lon="-7.42143417225">
        <ele>9.8</ele>
        <time>2011-03-21T18:02:13Z</time>
      </trkpt>
      <trkpt lat="37.1805398112" lon="-7.42141925247">
        <ele>9.8</ele>
        <time>2011-03-21T18:02:15Z</time>
      </trkpt>
      <trkpt lat="37.1806022564" lon="-7.42140500324">
        <ele>9.8</ele>
        <time>2011-03-21T18:02:17Z</time>
      </trkpt>
      <trkpt lat="37.1806622708" lon="-7.42138966436">
        <ele>9.8</ele>
        <time>2011-03-21T18:02:19Z</time>
      </trkpt>
      <trkpt lat="37.1807203574" lon="-7.42137591804">
        <ele>9.8</ele>
        <time>2011-03-21T18:02:21Z</time>
      </trkpt>
      <trkpt lat="37.1807865744" lon="-7.42136317756">
        <ele>9.8</ele>
        <time>2011-03-21T18:02:23Z</time>
      </trkpt>
      <trkpt lat="37.1808519532" lon="-7.42135999243">
        <ele>9.8</ele>
        <time>2011-03-21T18:02:25Z</time>
      </trkpt>
      <trkpt lat="37.1809117161" lon="-7.42134959888">
        <ele>9.8</ele>
        <time>2011-03-21T18:02:27Z</time>
      </trkpt>
      <trkpt lat="37.1809786875" lon="-7.42134331245">
        <ele>9.8</ele>
        <time>2011-03-21T18:02:29Z</time>
      </trkpt>
      <trkpt lat="37.1810434796" lon="-7.42133887005">
        <ele>9.8</ele>
        <time>2011-03-21T18:02:31Z</time>
      </trkpt>
      <trkpt lat="37.1811101995" lon="-7.42133099106">
        <ele>9.8</ele>
        <time>2011-03-21T18:02:33Z</time>
      </trkpt>
      <trkpt lat="37.1811719741" lon="-7.42131799911">
        <ele>9.8</ele>
        <time>2011-03-21T18:02:35Z</time>
      </trkpt>
      <trkpt lat="37.1812386941" lon="-7.42129880456">
        <ele>9.8</ele>
        <time>2011-03-21T18:02:37Z</time>
      </trkpt>
      <trkpt lat="37.1813016421" lon="-7.42128078348">
        <ele>9.8</ele>
        <time>2011-03-21T18:02:39Z</time>
      </trkpt>
      <trkpt lat="37.1813519335" lon="-7.42127240158">
        <ele>9.8</ele>
        <time>2011-03-21T18:02:41Z</time>
      </trkpt>
      <trkpt lat="37.1814308072" lon="-7.42125421286">
        <ele>9.8</ele>
        <time>2011-03-21T18:02:43Z</time>
      </trkpt>
      <trkpt lat="37.1814967728" lon="-7.42123443157">
        <ele>9.8</ele>
        <time>2011-03-21T18:02:45Z</time>
      </trkpt>
      <trkpt lat="37.1815600561" lon="-7.42122018234">
        <ele>9.8</ele>
        <time>2011-03-21T18:02:47Z</time>
      </trkpt>
      <trkpt lat="37.1816284524" lon="-7.42120098779">
        <ele>9.8</ele>
        <time>2011-03-21T18:02:49Z</time>
      </trkpt>
      <trkpt lat="37.1816964296" lon="-7.4211833858">
        <ele>9.8</ele>
        <time>2011-03-21T18:02:51Z</time>
      </trkpt>
      <trkpt lat="37.181766167" lon="-7.4211631016">
        <ele>9.8</ele>
        <time>2011-03-21T18:02:53Z</time>
      </trkpt>
      <trkpt lat="37.1818440349" lon="-7.42114516434">
        <ele>9.8</ele>
        <time>2011-03-21T18:02:55Z</time>
      </trkpt>
      <trkpt lat="37.1819163707" lon="-7.42112689179">
        <ele>9.8</ele>
        <time>2011-03-21T18:02:57Z</time>
      </trkpt>
      <trkpt lat="37.181985689" lon="-7.42110853543">
        <ele>9.8</ele>
        <time>2011-03-21T18:02:59Z</time>
      </trkpt>
      <trkpt lat="37.1820524089" lon="-7.42109017907">
        <ele>9.8</ele>
        <time>2011-03-21T18:03:01Z</time>
      </trkpt>
      <trkpt lat="37.18210379" lon="-7.42107333145">
        <ele>9.8</ele>
        <time>2011-03-21T18:03:03Z</time>
      </trkpt>
      <trkpt lat="37.1821587752" lon="-7.42105489127">
        <ele>9.8</ele>
        <time>2011-03-21T18:03:05Z</time>
      </trkpt>
      <trkpt lat="37.1822240702" lon="-7.42103946858">
        <ele>9.8</ele>
        <time>2011-03-21T18:03:07Z</time>
      </trkpt>
      <trkpt lat="37.1822884432" lon="-7.4210254708">
        <ele>9.8</ele>
        <time>2011-03-21T18:03:09Z</time>
      </trkpt>
      <trkpt lat="37.1823489605" lon="-7.42101004811">
        <ele>9.8</ele>
        <time>2011-03-21T18:03:11Z</time>
      </trkpt>
      <trkpt lat="37.1824111542" lon="-7.42099085356">
        <ele>9.8</ele>
        <time>2011-03-21T18:03:13Z</time>
      </trkpt>
      <trkpt lat="37.1824761978" lon="-7.4209720781">
        <ele>9.8</ele>
        <time>2011-03-21T18:03:15Z</time>
      </trkpt>
      <trkpt lat="37.1825426662" lon="-7.42095673922">
        <ele>9.8</ele>
        <time>2011-03-21T18:03:17Z</time>
      </trkpt>
      <trkpt lat="37.1826088832" lon="-7.42093821523">
        <ele>9.8</ele>
        <time>2011-03-21T18:03:19Z</time>
      </trkpt>
      <trkpt lat="37.1826721666" lon="-7.42091709284">
        <ele>9.8</ele>
        <time>2011-03-21T18:03:21Z</time>
      </trkpt>
      <trkpt lat="37.1827368749" lon="-7.42089387497">
        <ele>9.8</ele>
        <time>2011-03-21T18:03:23Z</time>
      </trkpt>
      <trkpt lat="37.1828037624" lon="-7.42087409369">
        <ele>9.8</ele>
        <time>2011-03-21T18:03:25Z</time>
      </trkpt>
      <trkpt lat="37.1828695603" lon="-7.42085833572">
        <ele>9.8</ele>
        <time>2011-03-21T18:03:27Z</time>
      </trkpt>
      <trkpt lat="37.1829320893" lon="-7.42083939262">
        <ele>9.8</ele>
        <time>2011-03-21T18:03:29Z</time>
      </trkpt>
      <trkpt lat="37.1829898406" lon="-7.42082547867">
        <ele>9.8</ele>
        <time>2011-03-21T18:03:31Z</time>
      </trkpt>
      <trkpt lat="37.1830522019" lon="-7.4208075414">
        <ele>9.8</ele>
        <time>2011-03-21T18:03:33Z</time>
      </trkpt>
      <trkpt lat="37.1831146471" lon="-7.42078843067">
        <ele>9.8</ele>
        <time>2011-03-21T18:03:35Z</time>
      </trkpt>
      <trkpt lat="37.1831747453" lon="-7.42077208597">
        <ele>9.8</ele>
        <time>2011-03-21T18:03:37Z</time>
      </trkpt>
      <trkpt lat="37.1832339215" lon="-7.42075490307">
        <ele>9.8</ele>
        <time>2011-03-21T18:03:39Z</time>
      </trkpt>
      <trkpt lat="37.1832984622" lon="-7.42074249786">
        <ele>9.8</ele>
        <time>2011-03-21T18:03:41Z</time>
      </trkpt>
      <trkpt lat="37.1833589795" lon="-7.42072808099">
        <ele>9.8</ele>
        <time>2011-03-21T18:03:43Z</time>
      </trkpt>
      <trkpt lat="37.1834206703" lon="-7.42071567578">
        <ele>9.8</ele>
        <time>2011-03-21T18:03:45Z</time>
      </trkpt>
      <trkpt lat="37.1834816067" lon="-7.42070511459">
        <ele>9.8</ele>
        <time>2011-03-21T18:03:47Z</time>
      </trkpt>
      <trkpt lat="37.18354489" lon="-7.42069497249">
        <ele>9.6</ele>
        <time>2011-03-21T18:03:49Z</time>
      </trkpt>
      <trkpt lat="37.183602306" lon="-7.42067946597">
        <ele>9.2</ele>
        <time>2011-03-21T18:03:51Z</time>
      </trkpt>
      <trkpt lat="37.1836631586" lon="-7.42066203162">
        <ele>9</ele>
        <time>2011-03-21T18:03:53Z</time>
      </trkpt>
      <trkpt lat="37.1837190659" lon="-7.42064074159">
        <ele>8.8</ele>
        <time>2011-03-21T18:03:55Z</time>
      </trkpt>
      <trkpt lat="37.1837761466" lon="-7.42061928393">
        <ele>8.6</ele>
        <time>2011-03-21T18:03:57Z</time>
      </trkpt>
      <trkpt lat="37.1838322216" lon="-7.42059925119">
        <ele>8.4</ele>
        <time>2011-03-21T18:03:59Z</time>
      </trkpt>
      <trkpt lat="37.1838946667" lon="-7.42057921845">
        <ele>8.4</ele>
        <time>2011-03-21T18:04:01Z</time>
      </trkpt>
      <trkpt lat="37.1839633145" lon="-7.42056153264">
        <ele>8.2</ele>
        <time>2011-03-21T18:04:03Z</time>
      </trkpt>
      <trkpt lat="37.1840250891" lon="-7.42054091317">
        <ele>8.2</ele>
        <time>2011-03-21T18:04:05Z</time>
      </trkpt>
      <trkpt lat="37.184089043" lon="-7.42052096424">
        <ele>8</ele>
        <time>2011-03-21T18:04:07Z</time>
      </trkpt>
      <trkpt lat="37.1841523263" lon="-7.42050017713">
        <ele>8</ele>
        <time>2011-03-21T18:04:09Z</time>
      </trkpt>
      <trkpt lat="37.1842138495" lon="-7.42048316187">
        <ele>8</ele>
        <time>2011-03-21T18:04:11Z</time>
      </trkpt>
      <trkpt lat="37.1842778872" lon="-7.42046581134">
        <ele>8</ele>
        <time>2011-03-21T18:04:13Z</time>
      </trkpt>
      <trkpt lat="37.1843413382" lon="-7.42044871227">
        <ele>8</ele>
        <time>2011-03-21T18:04:15Z</time>
      </trkpt>
      <trkpt lat="37.1844070523" lon="-7.42043773198">
        <ele>8</ele>
        <time>2011-03-21T18:04:17Z</time>
      </trkpt>
      <trkpt lat="37.1844722634" lon="-7.42042205782">
        <ele>7.8</ele>
        <time>2011-03-21T18:04:19Z</time>
      </trkpt>
      <trkpt lat="37.1845329484" lon="-7.42040814387">
        <ele>7.8</ele>
        <time>2011-03-21T18:04:21Z</time>
      </trkpt>
      <trkpt lat="37.1845959803" lon="-7.42039297263">
        <ele>7.8</ele>
        <time>2011-03-21T18:04:23Z</time>
      </trkpt>
      <trkpt lat="37.1846650471" lon="-7.42037855576">
        <ele>7.8</ele>
        <time>2011-03-21T18:04:25Z</time>
      </trkpt>
      <trkpt lat="37.1847301745" lon="-7.42036698874">
        <ele>7.8</ele>
        <time>2011-03-21T18:04:27Z</time>
      </trkpt>
      <trkpt lat="37.1847929549" lon="-7.4203500573">
        <ele>7.8</ele>
        <time>2011-03-21T18:04:29Z</time>
      </trkpt>
      <trkpt lat="37.1848548134" lon="-7.42033061129">
        <ele>7.8</ele>
        <time>2011-03-21T18:04:31Z</time>
      </trkpt>
      <trkpt lat="37.1849207789" lon="-7.42030756107">
        <ele>7.8</ele>
        <time>2011-03-21T18:04:33Z</time>
      </trkpt>
      <trkpt lat="37.1849847328" lon="-7.42028660632">
        <ele>7.8</ele>
        <time>2011-03-21T18:04:35Z</time>
      </trkpt>
      <trkpt lat="37.1850547217" lon="-7.42026506484">
        <ele>7.8</ele>
        <time>2011-03-21T18:04:37Z</time>
      </trkpt>
      <trkpt lat="37.1851173345" lon="-7.42024687611">
        <ele>7.8</ele>
        <time>2011-03-21T18:04:39Z</time>
      </trkpt>
      <trkpt lat="37.1851829647" lon="-7.42023463854">
        <ele>7.8</ele>
        <time>2011-03-21T18:04:41Z</time>
      </trkpt>
      <trkpt lat="37.1852710585" lon="-7.42022164659">
        <ele>7.8</ele>
        <time>2011-03-21T18:04:44Z</time>
      </trkpt>
      <trkpt lat="37.1853231939" lon="-7.42021401907">
        <ele>7.8</ele>
        <time>2011-03-21T18:04:45Z</time>
      </trkpt>
      <trkpt lat="37.1853843818" lon="-7.42019968602">
        <ele>7.8</ele>
        <time>2011-03-21T18:04:47Z</time>
      </trkpt>
      <trkpt lat="37.1854443962" lon="-7.42018359277">
        <ele>7.8</ele>
        <time>2011-03-21T18:04:49Z</time>
      </trkpt>
      <trkpt lat="37.1854957772" lon="-7.42016758334">
        <ele>7.8</ele>
        <time>2011-03-21T18:04:51Z</time>
      </trkpt>
      <trkpt lat="37.1855508463" lon="-7.42014939462">
        <ele>7.8</ele>
        <time>2011-03-21T18:04:53Z</time>
      </trkpt>
      <trkpt lat="37.1856031494" lon="-7.42012651203">
        <ele>7.8</ele>
        <time>2011-03-21T18:04:55Z</time>
      </trkpt>
      <trkpt lat="37.1856580508" lon="-7.42010832331">
        <ele>7.8</ele>
        <time>2011-03-21T18:04:57Z</time>
      </trkpt>
      <trkpt lat="37.1857152154" lon="-7.42009499609">
        <ele>7.8</ele>
        <time>2011-03-21T18:04:59Z</time>
      </trkpt>
      <trkpt lat="37.185775146" lon="-7.4200804954">
        <ele>7.8</ele>
        <time>2011-03-21T18:05:01Z</time>
      </trkpt>
      <trkpt lat="37.1858261079" lon="-7.42006800637">
        <ele>7.8</ele>
        <time>2011-03-21T18:05:03Z</time>
      </trkpt>
      <trkpt lat="37.1858815123" lon="-7.42006163612">
        <ele>7.8</ele>
        <time>2011-03-21T18:05:05Z</time>
      </trkpt>
      <trkpt lat="37.185938593" lon="-7.42005057202">
        <ele>7.8</ele>
        <time>2011-03-21T18:05:07Z</time>
      </trkpt>
      <trkpt lat="37.1859899741" lon="-7.42003489786">
        <ele>7.8</ele>
        <time>2011-03-21T18:05:09Z</time>
      </trkpt>
      <trkpt lat="37.1860114317" lon="-7.42002299556">
        <ele>7.8</ele>
        <time>2011-03-21T18:05:10Z</time>
      </trkpt>
      <trkpt lat="37.1860121023" lon="-7.41999684404">
        <ele>7.8</ele>
        <time>2011-03-21T18:05:13Z</time>
      </trkpt>
      <trkpt lat="37.1859569494" lon="-7.42000782433">
        <ele>7.8</ele>
        <time>2011-03-21T18:05:15Z</time>
      </trkpt>
      <trkpt lat="37.1859193985" lon="-7.4200134402">
        <ele>7.8</ele>
        <time>2011-03-21T18:05:16Z</time>
      </trkpt>
      <trkpt lat="37.1858497449" lon="-7.42003146128">
        <ele>7.8</ele>
        <time>2011-03-21T18:05:18Z</time>
      </trkpt>
      <trkpt lat="37.1857849528" lon="-7.42004260921">
        <ele>7.8</ele>
        <time>2011-03-21T18:05:20Z</time>
      </trkpt>
      <trkpt lat="37.1857174785" lon="-7.42004076519">
        <ele>7.8</ele>
        <time>2011-03-21T18:05:22Z</time>
      </trkpt>
      <trkpt lat="37.1856523511" lon="-7.42004361504">
        <ele>7.8</ele>
        <time>2011-03-21T18:05:24Z</time>
      </trkpt>
      <trkpt lat="37.1855913309" lon="-7.4200690122">
        <ele>7.8</ele>
        <time>2011-03-21T18:05:26Z</time>
      </trkpt>
      <trkpt lat="37.1855345854" lon="-7.42009315207">
        <ele>7.8</ele>
        <time>2011-03-21T18:05:28Z</time>
      </trkpt>
      <trkpt lat="37.1854749063" lon="-7.4200972592">
        <ele>7.8</ele>
        <time>2011-03-21T18:05:30Z</time>
      </trkpt>
      <trkpt lat="37.1854151434" lon="-7.42009759447">
        <ele>7.8</ele>
        <time>2011-03-21T18:05:32Z</time>
      </trkpt>
      <trkpt lat="37.1853562186" lon="-7.42010773657">
        <ele>7.8</ele>
        <time>2011-03-21T18:05:34Z</time>
      </trkpt>
      <trkpt lat="37.1852909236" lon="-7.4201202256">
        <ele>7.8</ele>
        <time>2011-03-21T18:05:36Z</time>
      </trkpt>
      <trkpt lat="37.1852267183" lon="-7.42013045152">
        <ele>7.8</ele>
        <time>2011-03-21T18:05:38Z</time>
      </trkpt>
      <trkpt lat="37.185161088" lon="-7.42014746678">
        <ele>7.8</ele>
        <time>2011-03-21T18:05:40Z</time>
      </trkpt>
      <trkpt lat="37.1850963797" lon="-7.42016314093">
        <ele>7.8</ele>
        <time>2011-03-21T18:05:42Z</time>
      </trkpt>
      <trkpt lat="37.1850346051" lon="-7.42018208403">
        <ele>7.8</ele>
        <time>2011-03-21T18:05:44Z</time>
      </trkpt>
      <trkpt lat="37.1849687234" lon="-7.42019532743">
        <ele>7.8</ele>
        <time>2011-03-21T18:05:46Z</time>
      </trkpt>
      <trkpt lat="37.1849070326" lon="-7.42020999575">
        <ele>7.8</ele>
        <time>2011-03-21T18:05:48Z</time>
      </trkpt>
      <trkpt lat="37.1848465991" lon="-7.42022365825">
        <ele>7.8</ele>
        <time>2011-03-21T18:05:50Z</time>
      </trkpt>
      <trkpt lat="37.184785495" lon="-7.42023941622">
        <ele>7.8</ele>
        <time>2011-03-21T18:05:52Z</time>
      </trkpt>
      <trkpt lat="37.1847198648" lon="-7.42025374927">
        <ele>7.8</ele>
        <time>2011-03-21T18:05:54Z</time>
      </trkpt>
      <trkpt lat="37.1846557432" lon="-7.42026355609">
        <ele>7.8</ele>
        <time>2011-03-21T18:05:56Z</time>
      </trkpt>
      <trkpt lat="37.1845966508" lon="-7.42028090663">
        <ele>7.8</ele>
        <time>2011-03-21T18:05:58Z</time>
      </trkpt>
      <trkpt lat="37.184543761" lon="-7.42030730961">
        <ele>7.8</ele>
        <time>2011-03-21T18:06:00Z</time>
      </trkpt>
      <trkpt lat="37.1844864288" lon="-7.42032750999">
        <ele>7.8</ele>
        <time>2011-03-21T18:06:02Z</time>
      </trkpt>
      <trkpt lat="37.1844290128" lon="-7.42033840646">
        <ele>8.2</ele>
        <time>2011-03-21T18:06:04Z</time>
      </trkpt>
      <trkpt lat="37.1843692499" lon="-7.42035173368">
        <ele>8.6</ele>
        <time>2011-03-21T18:06:06Z</time>
      </trkpt>
      <trkpt lat="37.1843053798" lon="-7.42036380362">
        <ele>8.8</ele>
        <time>2011-03-21T18:06:08Z</time>
      </trkpt>
      <trkpt lat="37.1842425156" lon="-7.42037704702">
        <ele>9</ele>
        <time>2011-03-21T18:06:10Z</time>
      </trkpt>
      <trkpt lat="37.1841813277" lon="-7.42038928459">
        <ele>9.2</ele>
        <time>2011-03-21T18:06:12Z</time>
      </trkpt>
      <trkpt lat="37.1841190502" lon="-7.42040051634">
        <ele>9.2</ele>
        <time>2011-03-21T18:06:14Z</time>
      </trkpt>
      <trkpt lat="37.1840581138" lon="-7.42041686105">
        <ele>9.4</ele>
        <time>2011-03-21T18:06:16Z</time>
      </trkpt>
      <trkpt lat="37.183995501" lon="-7.42043287047">
        <ele>9.4</ele>
        <time>2011-03-21T18:06:18Z</time>
      </trkpt>
      <trkpt lat="37.1839355704" lon="-7.42045072392">
        <ele>9.6</ele>
        <time>2011-03-21T18:06:20Z</time>
      </trkpt>
      <trkpt lat="37.1838773162" lon="-7.42046975083">
        <ele>9.6</ele>
        <time>2011-03-21T18:06:22Z</time>
      </trkpt>
      <trkpt lat="37.1838184752" lon="-7.42049179523">
        <ele>9.6</ele>
        <time>2011-03-21T18:06:24Z</time>
      </trkpt>
      <trkpt lat="37.1837591314" lon="-7.42051962314">
        <ele>9.6</ele>
        <time>2011-03-21T18:06:26Z</time>
      </trkpt>
      <trkpt lat="37.1836985302" lon="-7.42053806332">
        <ele>9.6</ele>
        <time>2011-03-21T18:06:28Z</time>
      </trkpt>
      <trkpt lat="37.1836344087" lon="-7.42055734169">
        <ele>9.8</ele>
        <time>2011-03-21T18:06:30Z</time>
      </trkpt>
      <trkpt lat="37.1835691137" lon="-7.42057335112">
        <ele>9.8</ele>
        <time>2011-03-21T18:06:32Z</time>
      </trkpt>
      <trkpt lat="37.1835079258" lon="-7.42059204276">
        <ele>9.8</ele>
        <time>2011-03-21T18:06:34Z</time>
      </trkpt>
      <trkpt lat="37.1834469894" lon="-7.42061333278">
        <ele>9.8</ele>
        <time>2011-03-21T18:06:36Z</time>
      </trkpt>
      <trkpt lat="37.1833852148" lon="-7.4206305995">
        <ele>9.8</ele>
        <time>2011-03-21T18:06:38Z</time>
      </trkpt>
      <trkpt lat="37.1833215962" lon="-7.42064442963">
        <ele>9.8</ele>
        <time>2011-03-21T18:06:40Z</time>
      </trkpt>
      <trkpt lat="37.1832553792" lon="-7.42065608047">
        <ele>9.8</ele>
        <time>2011-03-21T18:06:42Z</time>
      </trkpt>
      <trkpt lat="37.1831918444" lon="-7.42066773131">
        <ele>9.8</ele>
        <time>2011-03-21T18:06:44Z</time>
      </trkpt>
      <trkpt lat="37.1831293154" lon="-7.42068114235">
        <ele>9.8</ele>
        <time>2011-03-21T18:06:46Z</time>
      </trkpt>
      <trkpt lat="37.1830654453" lon="-7.42069312847">
        <ele>9.8</ele>
        <time>2011-03-21T18:06:48Z</time>
      </trkpt>
      <trkpt lat="37.1830036707" lon="-7.42070352203">
        <ele>9.8</ele>
        <time>2011-03-21T18:06:50Z</time>
      </trkpt>
      <trkpt lat="37.1829459194" lon="-7.4207210402">
        <ele>9.8</ele>
        <time>2011-03-21T18:06:52Z</time>
      </trkpt>
      <trkpt lat="37.1828858212" lon="-7.42073336159">
        <ele>9.8</ele>
        <time>2011-03-21T18:06:54Z</time>
      </trkpt>
      <trkpt lat="37.1828264774" lon="-7.42074467715">
        <ele>9.8</ele>
        <time>2011-03-21T18:06:56Z</time>
      </trkpt>
      <trkpt lat="37.1827672173" lon="-7.42075842347">
        <ele>9.8</ele>
        <time>2011-03-21T18:06:58Z</time>
      </trkpt>
      <trkpt lat="37.1827072029" lon="-7.42076747592">
        <ele>9.8</ele>
        <time>2011-03-21T18:07:00Z</time>
      </trkpt>
      <trkpt lat="37.1826451769" lon="-7.42077392999">
        <ele>9.8</ele>
        <time>2011-03-21T18:07:02Z</time>
      </trkpt>
      <trkpt lat="37.1825874256" lon="-7.42079329217">
        <ele>9.8</ele>
        <time>2011-03-21T18:07:04Z</time>
      </trkpt>
      <trkpt lat="37.1825294228" lon="-7.42080661939">
        <ele>9.8</ele>
        <time>2011-03-21T18:07:06Z</time>
      </trkpt>
      <trkpt lat="37.1824739347" lon="-7.42081676149">
        <ele>9.8</ele>
        <time>2011-03-21T18:07:08Z</time>
      </trkpt>
      <trkpt lat="37.1824162672" lon="-7.42082656832">
        <ele>9.8</ele>
        <time>2011-03-21T18:07:10Z</time>
      </trkpt>
      <trkpt lat="37.1823603599" lon="-7.42084668488">
        <ele>10.2</ele>
        <time>2011-03-21T18:07:12Z</time>
      </trkpt>
      <trkpt lat="37.1823009322" lon="-7.4208745966">
        <ele>10.6</ele>
        <time>2011-03-21T18:07:14Z</time>
      </trkpt>
      <trkpt lat="37.1822400796" lon="-7.42090301125">
        <ele>10.8</ele>
        <time>2011-03-21T18:07:16Z</time>
      </trkpt>
      <trkpt lat="37.1821809873" lon="-7.42092581001">
        <ele>11</ele>
        <time>2011-03-21T18:07:18Z</time>
      </trkpt>
      <trkpt lat="37.1821251638" lon="-7.42095632013">
        <ele>11.2</ele>
        <time>2011-03-21T18:07:20Z</time>
      </trkpt>
      <trkpt lat="37.1820685022" lon="-7.42100610862">
        <ele>11.4</ele>
        <time>2011-03-21T18:07:22Z</time>
      </trkpt>
      <trkpt lat="37.1820450328" lon="-7.42103100286">
        <ele>11.4</ele>
        <time>2011-03-21T18:07:23Z</time>
      </trkpt>
      <trkpt lat="37.1821124233" lon="-7.4211030872">
        <ele>11.6</ele>
        <time>2011-03-21T18:07:26Z</time>
      </trkpt>
      <trkpt lat="37.1821830827" lon="-7.42112798144">
        <ele>11.6</ele>
        <time>2011-03-21T18:07:28Z</time>
      </trkpt>
      <trkpt lat="37.182237146" lon="-7.42114793036">
        <ele>11.6</ele>
        <time>2011-03-21T18:07:30Z</time>
      </trkpt>
      <trkpt lat="37.1822892814" lon="-7.4211732437">
        <ele>11.8</ele>
        <time>2011-03-21T18:07:32Z</time>
      </trkpt>
      <trkpt lat="37.1823534029" lon="-7.4212155723">
        <ele>11.8</ele>
        <time>2011-03-21T18:07:34Z</time>
      </trkpt>
      <trkpt lat="37.1823838292" lon="-7.42124264583">
        <ele>11.8</ele>
        <time>2011-03-21T18:07:35Z</time>
      </trkpt>
      <trkpt lat="37.182430265" lon="-7.42134272572">
        <ele>11.8</ele>
        <time>2011-03-21T18:07:38Z</time>
      </trkpt>
      <trkpt lat="37.1824597692" lon="-7.42142042593">
        <ele>11.8</ele>
        <time>2011-03-21T18:07:40Z</time>
      </trkpt>
      <trkpt lat="37.1824838253" lon="-7.42149561158">
        <ele>11.8</ele>
        <time>2011-03-21T18:07:42Z</time>
      </trkpt>
      <trkpt lat="37.1825113179" lon="-7.42157448525">
        <ele>11.8</ele>
        <time>2011-03-21T18:07:44Z</time>
      </trkpt>
      <trkpt lat="37.1825406546" lon="-7.42165327511">
        <ele>11.8</ele>
        <time>2011-03-21T18:07:46Z</time>
      </trkpt>
      <trkpt lat="37.1825699912" lon="-7.42173566919">
        <ele>11.8</ele>
        <time>2011-03-21T18:07:48Z</time>
      </trkpt>
      <trkpt lat="37.1825991602" lon="-7.42181655453">
        <ele>11.8</ele>
        <time>2011-03-21T18:07:50Z</time>
      </trkpt>
      <trkpt lat="37.1826294189" lon="-7.42190179845">
        <ele>11.8</ele>
        <time>2011-03-21T18:07:52Z</time>
      </trkpt>
      <trkpt lat="37.1826596776" lon="-7.42197757083">
        <ele>11.8</ele>
        <time>2011-03-21T18:07:54Z</time>
      </trkpt>
      <trkpt lat="37.1826927861" lon="-7.42205149918">
        <ele>12</ele>
        <time>2011-03-21T18:07:56Z</time>
      </trkpt>
      <trkpt lat="37.1827217874" lon="-7.42212224242">
        <ele>12</ele>
        <time>2011-03-21T18:07:58Z</time>
      </trkpt>
      <trkpt lat="37.18274006" lon="-7.4221993559">
        <ele>12</ele>
        <time>2011-03-21T18:08:00Z</time>
      </trkpt>
      <trkpt lat="37.1827610986" lon="-7.42227311662">
        <ele>12</ele>
        <time>2011-03-21T18:08:02Z</time>
      </trkpt>
      <trkpt lat="37.1827861604" lon="-7.42235341522">
        <ele>12</ele>
        <time>2011-03-21T18:08:04Z</time>
      </trkpt>
      <trkpt lat="37.1828102165" lon="-7.42242809795">
        <ele>12</ele>
        <time>2011-03-21T18:08:06Z</time>
      </trkpt>
      <trkpt lat="37.1828352784" lon="-7.42249356059">
        <ele>12</ele>
        <time>2011-03-21T18:08:08Z</time>
      </trkpt>
      <trkpt lat="37.1828486056" lon="-7.42255893941">
        <ele>12</ele>
        <time>2011-03-21T18:08:10Z</time>
      </trkpt>
      <trkpt lat="37.1828683869" lon="-7.42262624607">
        <ele>12</ele>
        <time>2011-03-21T18:08:12Z</time>
      </trkpt>
      <trkpt lat="37.1828926106" lon="-7.42269975533">
        <ele>12</ele>
        <time>2011-03-21T18:08:14Z</time>
      </trkpt>
      <trkpt lat="37.1829149064" lon="-7.42277703645">
        <ele>12</ele>
        <time>2011-03-21T18:08:16Z</time>
      </trkpt>
      <trkpt lat="37.1829380405" lon="-7.42285708359">
        <ele>12</ele>
        <time>2011-03-21T18:08:18Z</time>
      </trkpt>
      <trkpt lat="37.1829548881" lon="-7.42294157314">
        <ele>12</ele>
        <time>2011-03-21T18:08:20Z</time>
      </trkpt>
      <trkpt lat="37.1829738312" lon="-7.4230190219">
        <ele>12</ele>
        <time>2011-03-21T18:08:22Z</time>
      </trkpt>
      <trkpt lat="37.1829947859" lon="-7.42309412372">
        <ele>12</ele>
        <time>2011-03-21T18:08:24Z</time>
      </trkpt>
      <trkpt lat="37.1830092866" lon="-7.42317190776">
        <ele>12</ele>
        <time>2011-03-21T18:08:26Z</time>
      </trkpt>
      <trkpt lat="37.1830204345" lon="-7.42324994325">
        <ele>12</ele>
        <time>2011-03-21T18:08:28Z</time>
      </trkpt>
      <trkpt lat="37.1830329236" lon="-7.42331934538">
        <ele>12</ele>
        <time>2011-03-21T18:08:30Z</time>
      </trkpt>
      <trkpt lat="37.1830451611" lon="-7.42338799314">
        <ele>12</ele>
        <time>2011-03-21T18:08:32Z</time>
      </trkpt>
      <trkpt lat="37.1830653615" lon="-7.42344549297">
        <ele>12</ele>
        <time>2011-03-21T18:08:34Z</time>
      </trkpt>
      <trkpt lat="37.1830805328" lon="-7.42350969833">
        <ele>12</ele>
        <time>2011-03-21T18:08:36Z</time>
      </trkpt>
      <trkpt lat="37.1830867354" lon="-7.4235806092">
        <ele>12</ele>
        <time>2011-03-21T18:08:38Z</time>
      </trkpt>
      <trkpt lat="37.1830940276" lon="-7.42366166217">
        <ele>12</ele>
        <time>2011-03-21T18:08:40Z</time>
      </trkpt>
      <trkpt lat="37.1831043374" lon="-7.4237451459">
        <ele>12</ele>
        <time>2011-03-21T18:08:42Z</time>
      </trkpt>
      <trkpt lat="37.1831167426" lon="-7.42382536068">
        <ele>12</ele>
        <time>2011-03-21T18:08:44Z</time>
      </trkpt>
      <trkpt lat="37.1831234481" lon="-7.42390741948">
        <ele>12</ele>
        <time>2011-03-21T18:08:46Z</time>
      </trkpt>
      <trkpt lat="37.1831245377" lon="-7.42399769254">
        <ele>12</ele>
        <time>2011-03-21T18:08:48Z</time>
      </trkpt>
      <trkpt lat="37.1831300698" lon="-7.42408620541">
        <ele>12</ele>
        <time>2011-03-21T18:08:50Z</time>
      </trkpt>
      <trkpt lat="37.183138787" lon="-7.4241739639">
        <ele>12</ele>
        <time>2011-03-21T18:08:52Z</time>
      </trkpt>
      <trkpt lat="37.1831551317" lon="-7.4242546816">
        <ele>12</ele>
        <time>2011-03-21T18:08:54Z</time>
      </trkpt>
      <trkpt lat="37.1831723984" lon="-7.42432634684">
        <ele>12</ele>
        <time>2011-03-21T18:08:56Z</time>
      </trkpt>
      <trkpt lat="37.1831894975" lon="-7.42439113893">
        <ele>12</ele>
        <time>2011-03-21T18:08:58Z</time>
      </trkpt>
      <trkpt lat="37.1832103684" lon="-7.42445987051">
        <ele>12</ele>
        <time>2011-03-21T18:09:00Z</time>
      </trkpt>
      <trkpt lat="37.1832279704" lon="-7.42453446942">
        <ele>12</ele>
        <time>2011-03-21T18:09:02Z</time>
      </trkpt>
      <trkpt lat="37.1832409623" lon="-7.42460303336">
        <ele>12</ele>
        <time>2011-03-21T18:09:04Z</time>
      </trkpt>
      <trkpt lat="37.1832618333" lon="-7.42467981157">
        <ele>12</ele>
        <time>2011-03-21T18:09:06Z</time>
      </trkpt>
      <trkpt lat="37.1832811116" lon="-7.42475834997">
        <ele>12</ele>
        <time>2011-03-21T18:09:08Z</time>
      </trkpt>
      <trkpt lat="37.1833009767" lon="-7.42482708155">
        <ele>12</ele>
        <time>2011-03-21T18:09:10Z</time>
      </trkpt>
      <trkpt lat="37.1833185787" lon="-7.42491450477">
        <ele>12</ele>
        <time>2011-03-21T18:09:12Z</time>
      </trkpt>
      <trkpt lat="37.1833369351" lon="-7.42500041924">
        <ele>12</ele>
        <time>2011-03-21T18:09:14Z</time>
      </trkpt>
      <trkpt lat="37.1833417966" lon="-7.42508314859">
        <ele>12</ele>
        <time>2011-03-21T18:09:16Z</time>
      </trkpt>
      <trkpt lat="37.1833455684" lon="-7.42516319574">
        <ele>12</ele>
        <time>2011-03-21T18:09:18Z</time>
      </trkpt>
      <trkpt lat="37.1833430539" lon="-7.42524181796">
        <ele>12</ele>
        <time>2011-03-21T18:09:20Z</time>
      </trkpt>
      <trkpt lat="37.1833368513" lon="-7.42528179962">
        <ele>12</ele>
        <time>2011-03-21T18:09:21Z</time>
      </trkpt>
      <trkpt lat="37.1832698799" lon="-7.42534089202">
        <ele>12</ele>
        <time>2011-03-21T18:09:24Z</time>
      </trkpt>
      <trkpt lat="37.1832091111" lon="-7.42535203995">
        <ele>12</ele>
        <time>2011-03-21T18:09:26Z</time>
      </trkpt>
      <trkpt lat="37.1831457439" lon="-7.42536058948">
        <ele>12</ele>
        <time>2011-03-21T18:09:28Z</time>
      </trkpt>
      <trkpt lat="37.1830833826" lon="-7.42537651509">
        <ele>12</ele>
        <time>2011-03-21T18:09:30Z</time>
      </trkpt>
      <trkpt lat="37.1830238711" lon="-7.42539847567">
        <ele>12</ele>
        <time>2011-03-21T18:09:32Z</time>
      </trkpt>
      <trkpt lat="37.1829628509" lon="-7.42541121616">
        <ele>12</ele>
        <time>2011-03-21T18:09:34Z</time>
      </trkpt>
      <trkpt lat="37.1828954604" lon="-7.42541616148">
        <ele>12</ele>
        <time>2011-03-21T18:09:36Z</time>
      </trkpt>
      <trkpt lat="37.1828262259" lon="-7.42542538157">
        <ele>12</ele>
        <time>2011-03-21T18:09:38Z</time>
      </trkpt>
      <trkpt lat="37.1827605956" lon="-7.42544197773">
        <ele>12</ele>
        <time>2011-03-21T18:09:40Z</time>
      </trkpt>
      <trkpt lat="37.1827008327" lon="-7.42545882535">
        <ele>12</ele>
        <time>2011-03-21T18:09:42Z</time>
      </trkpt>
      <trkpt lat="37.1826398125" lon="-7.42547215257">
        <ele>12</ele>
        <time>2011-03-21T18:09:44Z</time>
      </trkpt>
      <trkpt lat="37.1825752718" lon="-7.4254864018">
        <ele>12</ele>
        <time>2011-03-21T18:09:46Z</time>
      </trkpt>
      <trkpt lat="37.1825196998" lon="-7.42549646008">
        <ele>12</ele>
        <time>2011-03-21T18:09:48Z</time>
      </trkpt>
      <trkpt lat="37.1824581767" lon="-7.42551464881">
        <ele>12</ele>
        <time>2011-03-21T18:09:50Z</time>
      </trkpt>
      <trkpt lat="37.1823963183" lon="-7.42552923331">
        <ele>12</ele>
        <time>2011-03-21T18:09:52Z</time>
      </trkpt>
      <trkpt lat="37.1823387346" lon="-7.42554390164">
        <ele>12</ele>
        <time>2011-03-21T18:09:54Z</time>
      </trkpt>
      <trkpt lat="37.1822880241" lon="-7.42556318001">
        <ele>12</ele>
        <time>2011-03-21T18:09:56Z</time>
      </trkpt>
      <trkpt lat="37.1822307757" lon="-7.42557877034">
        <ele>12</ele>
        <time>2011-03-21T18:09:58Z</time>
      </trkpt>
      <trkpt lat="37.1821748685" lon="-7.4255975458">
        <ele>12</ele>
        <time>2011-03-21T18:10:00Z</time>
      </trkpt>
      <trkpt lat="37.182119967" lon="-7.4256156507">
        <ele>12</ele>
        <time>2011-03-21T18:10:02Z</time>
      </trkpt>
      <trkpt lat="37.1820655685" lon="-7.42563249832">
        <ele>12</ele>
        <time>2011-03-21T18:10:04Z</time>
      </trkpt>
      <trkpt lat="37.1820103318" lon="-7.42565588382">
        <ele>12</ele>
        <time>2011-03-21T18:10:06Z</time>
      </trkpt>
      <trkpt lat="37.1819525805" lon="-7.42567189325">
        <ele>12</ele>
        <time>2011-03-21T18:10:08Z</time>
      </trkpt>
      <trkpt lat="37.181889381" lon="-7.42569142308">
        <ele>12</ele>
        <time>2011-03-21T18:10:10Z</time>
      </trkpt>
      <trkpt lat="37.1818238345" lon="-7.42570994708">
        <ele>12</ele>
        <time>2011-03-21T18:10:12Z</time>
      </trkpt>
      <trkpt lat="37.1817633172" lon="-7.42574766563">
        <ele>12</ele>
        <time>2011-03-21T18:10:14Z</time>
      </trkpt>
      <trkpt lat="37.1816994471" lon="-7.42578630619">
        <ele>12</ele>
        <time>2011-03-21T18:10:16Z</time>
      </trkpt>
      <trkpt lat="37.1816323081" lon="-7.42583383156">
        <ele>12</ele>
        <time>2011-03-21T18:10:18Z</time>
      </trkpt>
      <trkpt lat="37.1815677675" lon="-7.42588135693">
        <ele>12</ele>
        <time>2011-03-21T18:10:20Z</time>
      </trkpt>
      <trkpt lat="37.1815026401" lon="-7.4259121185">
        <ele>12</ele>
        <time>2011-03-21T18:10:22Z</time>
      </trkpt>
      <trkpt lat="37.1814343276" lon="-7.42596132026">
        <ele>12</ele>
        <time>2011-03-21T18:10:24Z</time>
      </trkpt>
      <trkpt lat="37.18136283" lon="-7.42600918091">
        <ele>12</ele>
        <time>2011-03-21T18:10:26Z</time>
      </trkpt>
      <trkpt lat="37.1812966968" lon="-7.4260536888">
        <ele>12</ele>
        <time>2011-03-21T18:10:28Z</time>
      </trkpt>
      <trkpt lat="37.1812376044" lon="-7.42609132353">
        <ele>12</ele>
        <time>2011-03-21T18:10:30Z</time>
      </trkpt>
      <trkpt lat="37.1811788473" lon="-7.42612418057">
        <ele>12</ele>
        <time>2011-03-21T18:10:32Z</time>
      </trkpt>
      <trkpt lat="37.1811239458" lon="-7.42615821109">
        <ele>12</ele>
        <time>2011-03-21T18:10:34Z</time>
      </trkpt>
      <trkpt lat="37.1810651049" lon="-7.42619953386">
        <ele>12</ele>
        <time>2011-03-21T18:10:36Z</time>
      </trkpt>
      <trkpt lat="37.1810116284" lon="-7.42623373201">
        <ele>12</ele>
        <time>2011-03-21T18:10:38Z</time>
      </trkpt>
      <trkpt lat="37.1809548829" lon="-7.42626860071">
        <ele>12</ele>
        <time>2011-03-21T18:10:40Z</time>
      </trkpt>
      <trkpt lat="37.1808971316" lon="-7.42630506198">
        <ele>12</ele>
        <time>2011-03-21T18:10:42Z</time>
      </trkpt>
      <trkpt lat="37.1808369496" lon="-7.4263417747">
        <ele>12</ele>
        <time>2011-03-21T18:10:44Z</time>
      </trkpt>
      <trkpt lat="37.1807784439" lon="-7.42637815214">
        <ele>12</ele>
        <time>2011-03-21T18:10:46Z</time>
      </trkpt>
      <trkpt lat="37.1807164179" lon="-7.4264136914">
        <ele>12</ele>
        <time>2011-03-21T18:10:48Z</time>
      </trkpt>
      <trkpt lat="37.1806572417" lon="-7.42645451125">
        <ele>12</ele>
        <time>2011-03-21T18:10:50Z</time>
      </trkpt>
      <trkpt lat="37.1806007476" lon="-7.42649038579">
        <ele>12</ele>
        <time>2011-03-21T18:10:52Z</time>
      </trkpt>
      <trkpt lat="37.1805456786" lon="-7.42652450012">
        <ele>12</ele>
        <time>2011-03-21T18:10:54Z</time>
      </trkpt>
      <trkpt lat="37.1804916991" lon="-7.42656179957">
        <ele>12</ele>
        <time>2011-03-21T18:10:56Z</time>
      </trkpt>
      <trkpt lat="37.1804375521" lon="-7.42659339934">
        <ele>12</ele>
        <time>2011-03-21T18:10:58Z</time>
      </trkpt>
      <trkpt lat="37.1803866739" lon="-7.42664050561">
        <ele>12</ele>
        <time>2011-03-21T18:11:00Z</time>
      </trkpt>
      <trkpt lat="37.1803321916" lon="-7.42668065492">
        <ele>12</ele>
        <time>2011-03-21T18:11:02Z</time>
      </trkpt>
      <trkpt lat="37.1802817325" lon="-7.42670806373">
        <ele>12</ele>
        <time>2011-03-21T18:11:04Z</time>
      </trkpt>
      <trkpt lat="37.1802347939" lon="-7.42673907676">
        <ele>12</ele>
        <time>2011-03-21T18:11:06Z</time>
      </trkpt>
      <trkpt lat="37.1801730193" lon="-7.4267723529">
        <ele>12</ele>
        <time>2011-03-21T18:11:09Z</time>
      </trkpt>
      <trkpt lat="37.1801181178" lon="-7.42680093518">
        <ele>12</ele>
        <time>2011-03-21T18:11:11Z</time>
      </trkpt>
      <trkpt lat="37.1800638031" lon="-7.42682582942">
        <ele>12</ele>
        <time>2011-03-21T18:11:13Z</time>
      </trkpt>
      <trkpt lat="37.1800223965" lon="-7.42685424406">
        <ele>12</ele>
        <time>2011-03-21T18:11:15Z</time>
      </trkpt>
      <trkpt lat="37.1799701773" lon="-7.42689858432">
        <ele>12</ele>
        <time>2011-03-21T18:11:17Z</time>
      </trkpt>
      <trkpt lat="37.1799214785" lon="-7.4269466126">
        <ele>12</ele>
        <time>2011-03-21T18:11:19Z</time>
      </trkpt>
      <trkpt lat="37.1798775573" lon="-7.4270119076">
        <ele>12</ele>
        <time>2011-03-21T18:11:21Z</time>
      </trkpt>
      <trkpt lat="37.1798575246" lon="-7.42709874409">
        <ele>12</ele>
        <time>2011-03-21T18:11:23Z</time>
      </trkpt>
      <trkpt lat="37.1798648168" lon="-7.42719195082">
        <ele>12</ele>
        <time>2011-03-21T18:11:25Z</time>
      </trkpt>
      <trkpt lat="37.1798828379" lon="-7.42727887112">
        <ele>12</ele>
        <time>2011-03-21T18:11:27Z</time>
      </trkpt>
      <trkpt lat="37.1798985121" lon="-7.42736721634">
        <ele>12</ele>
        <time>2011-03-21T18:11:29Z</time>
      </trkpt>
      <trkpt lat="37.1799196345" lon="-7.42744516801">
        <ele>12</ele>
        <time>2011-03-21T18:11:31Z</time>
      </trkpt>
      <trkpt lat="37.1799384937" lon="-7.42751691708">
        <ele>12</ele>
        <time>2011-03-21T18:11:33Z</time>
      </trkpt>
      <trkpt lat="37.1799649805" lon="-7.42759076162">
        <ele>12</ele>
        <time>2011-03-21T18:11:35Z</time>
      </trkpt>
      <trkpt lat="37.179984678" lon="-7.42766988675">
        <ele>12</ele>
        <time>2011-03-21T18:11:37Z</time>
      </trkpt>
      <trkpt lat="37.1800032858" lon="-7.42774180346">
        <ele>12</ele>
        <time>2011-03-21T18:11:39Z</time>
      </trkpt>
      <trkpt lat="37.1800275933" lon="-7.42781983894">
        <ele>12</ele>
        <time>2011-03-21T18:11:41Z</time>
      </trkpt>
      <trkpt lat="37.1800479613" lon="-7.42790089192">
        <ele>12</ele>
        <time>2011-03-21T18:11:43Z</time>
      </trkpt>
      <trkpt lat="37.1800627973" lon="-7.42798303454">
        <ele>12</ele>
        <time>2011-03-21T18:11:45Z</time>
      </trkpt>
      <trkpt lat="37.1800863504" lon="-7.42805880691">
        <ele>12</ele>
        <time>2011-03-21T18:11:47Z</time>
      </trkpt>
      <trkpt lat="37.1801098198" lon="-7.42813759677">
        <ele>12</ele>
        <time>2011-03-21T18:11:49Z</time>
      </trkpt>
      <trkpt lat="37.1801308583" lon="-7.42821378824">
        <ele>12</ele>
        <time>2011-03-21T18:11:51Z</time>
      </trkpt>
      <trkpt lat="37.1801514778" lon="-7.42830079237">
        <ele>12</ele>
        <time>2011-03-21T18:11:53Z</time>
      </trkpt>
      <trkpt lat="37.1801859274" lon="-7.42838570101">
        <ele>12</ele>
        <time>2011-03-21T18:11:55Z</time>
      </trkpt>
      <trkpt lat="37.1802143421" lon="-7.42845309149">
        <ele>12</ele>
        <time>2011-03-21T18:11:57Z</time>
      </trkpt>
      <trkpt lat="37.1802409965" lon="-7.42852609784">
        <ele>12</ele>
        <time>2011-03-21T18:11:59Z</time>
      </trkpt>
      <trkpt lat="37.1802720095" lon="-7.42860287604">
        <ele>12</ele>
        <time>2011-03-21T18:12:01Z</time>
      </trkpt>
      <trkpt lat="37.1802997536" lon="-7.42867973807">
        <ele>12</ele>
        <time>2011-03-21T18:12:03Z</time>
      </trkpt>
      <trkpt lat="37.1803297608" lon="-7.42876020431">
        <ele>12</ele>
        <time>2011-03-21T18:12:05Z</time>
      </trkpt>
      <trkpt lat="37.1803632046" lon="-7.42884586732">
        <ele>12</ele>
        <time>2011-03-21T18:12:07Z</time>
      </trkpt>
      <trkpt lat="37.1803963131" lon="-7.42892063387">
        <ele>12</ele>
        <time>2011-03-21T18:12:09Z</time>
      </trkpt>
      <trkpt lat="37.1804365462" lon="-7.42898249229">
        <ele>12</ele>
        <time>2011-03-21T18:12:11Z</time>
      </trkpt>
      <trkpt lat="37.1804828981" lon="-7.42904141705">
        <ele>12</ele>
        <time>2011-03-21T18:12:13Z</time>
      </trkpt>
      <trkpt lat="37.1805409009" lon="-7.42909045116">
        <ele>12</ele>
        <time>2011-03-21T18:12:15Z</time>
      </trkpt>
      <trkpt lat="37.1806045195" lon="-7.42913940146">
        <ele>12</ele>
        <time>2011-03-21T18:12:17Z</time>
      </trkpt>
      <trkpt lat="37.180656152" lon="-7.42919153688">
        <ele>12</ele>
        <time>2011-03-21T18:12:19Z</time>
      </trkpt>
      <trkpt lat="37.180699235" lon="-7.42925322766">
        <ele>12</ele>
        <time>2011-03-21T18:12:21Z</time>
      </trkpt>
      <trkpt lat="37.1807388814" lon="-7.42932413854">
        <ele>12</ele>
        <time>2011-03-21T18:12:23Z</time>
      </trkpt>
      <trkpt lat="37.18078121" lon="-7.42939010409">
        <ele>12</ele>
        <time>2011-03-21T18:12:25Z</time>
      </trkpt>
      <trkpt lat="37.180827478" lon="-7.42945263306">
        <ele>12</ele>
        <time>2011-03-21T18:12:27Z</time>
      </trkpt>
      <trkpt lat="37.1808715668" lon="-7.42951088727">
        <ele>12</ele>
        <time>2011-03-21T18:12:29Z</time>
      </trkpt>
      <trkpt lat="37.1808977184" lon="-7.42957458971">
        <ele>12</ele>
        <time>2011-03-21T18:12:31Z</time>
      </trkpt>
      <trkpt lat="37.1809238699" lon="-7.42964717696">
        <ele>12</ele>
        <time>2011-03-21T18:12:33Z</time>
      </trkpt>
      <trkpt lat="37.1809573137" lon="-7.42971624382">
        <ele>12</ele>
        <time>2011-03-21T18:12:35Z</time>
      </trkpt>
      <trkpt lat="37.1810005643" lon="-7.42978103591">
        <ele>12</ele>
        <time>2011-03-21T18:12:37Z</time>
      </trkpt>
      <trkpt lat="37.1810462456" lon="-7.42984666618">
        <ele>12</ele>
        <time>2011-03-21T18:12:39Z</time>
      </trkpt>
      <trkpt lat="37.1810650211" lon="-7.42987265007">
        <ele>12</ele>
        <time>2011-03-21T18:12:40Z</time>
      </trkpt>
      <trkpt lat="37.1810879875" lon="-7.42998605718">
        <ele>12</ele>
        <time>2011-03-21T18:12:43Z</time>
      </trkpt>
      <trkpt lat="37.1810972914" lon="-7.43006610433">
        <ele>12</ele>
        <time>2011-03-21T18:12:46Z</time>
      </trkpt>
      <trkpt lat="37.1811000574" lon="-7.43009166912">
        <ele>12</ele>
        <time>2011-03-21T18:12:47Z</time>
      </trkpt>
      <trkpt lat="37.1811098643" lon="-7.43019283865">
        <ele>12</ele>
        <time>2011-03-21T18:12:50Z</time>
      </trkpt>
      <trkpt lat="37.1811184138" lon="-7.4302645039">
        <ele>12</ele>
        <time>2011-03-21T18:12:52Z</time>
      </trkpt>
      <trkpt lat="37.1811196711" lon="-7.43033943808">
        <ele>12</ele>
        <time>2011-03-21T18:12:54Z</time>
      </trkpt>
      <trkpt lat="37.1811208445" lon="-7.43041965287">
        <ele>12</ele>
        <time>2011-03-21T18:12:56Z</time>
      </trkpt>
      <trkpt lat="37.1811290588" lon="-7.43049676635">
        <ele>12</ele>
        <time>2011-03-21T18:12:58Z</time>
      </trkpt>
      <trkpt lat="37.1811438109" lon="-7.43056164225">
        <ele>12</ele>
        <time>2011-03-21T18:13:00Z</time>
      </trkpt>
      <trkpt lat="37.1811662744" lon="-7.43062953564">
        <ele>12</ele>
        <time>2011-03-21T18:13:02Z</time>
      </trkpt>
      <trkpt lat="37.1811959464" lon="-7.43070354782">
        <ele>12</ele>
        <time>2011-03-21T18:13:04Z</time>
      </trkpt>
      <trkpt lat="37.1812332458" lon="-7.43078409788">
        <ele>12</ele>
        <time>2011-03-21T18:13:06Z</time>
      </trkpt>
      <trkpt lat="37.1812782566" lon="-7.43086548613">
        <ele>12</ele>
        <time>2011-03-21T18:13:08Z</time>
      </trkpt>
      <trkpt lat="37.1813212558" lon="-7.43093363098">
        <ele>12</ele>
        <time>2011-03-21T18:13:10Z</time>
      </trkpt>
      <trkpt lat="37.1813648417" lon="-7.43099708196">
        <ele>12</ele>
        <time>2011-03-21T18:13:12Z</time>
      </trkpt>
      <trkpt lat="37.1813992913" lon="-7.43106296369">
        <ele>12</ele>
        <time>2011-03-21T18:13:14Z</time>
      </trkpt>
      <trkpt lat="37.1814349143" lon="-7.43112658231">
        <ele>12</ele>
        <time>2011-03-21T18:13:16Z</time>
      </trkpt>
      <trkpt lat="37.1814726329" lon="-7.43118709963">
        <ele>12</ele>
        <time>2011-03-21T18:13:18Z</time>
      </trkpt>
      <trkpt lat="37.1815101" lon="-7.43124283927">
        <ele>12</ele>
        <time>2011-03-21T18:13:20Z</time>
      </trkpt>
      <trkpt lat="37.1815276181" lon="-7.43130754753">
        <ele>12</ele>
        <time>2011-03-21T18:13:22Z</time>
      </trkpt>
      <trkpt lat="37.1815183142" lon="-7.43133864438">
        <ele>12</ele>
        <time>2011-03-21T18:13:23Z</time>
      </trkpt>
      <trkpt lat="37.1814808471" lon="-7.43138583448">
        <ele>12</ele>
        <time>2011-03-21T18:13:25Z</time>
      </trkpt>
      <trkpt lat="37.1814374289" lon="-7.43143025855">
        <ele>12</ele>
        <time>2011-03-21T18:13:27Z</time>
      </trkpt>
      <trkpt lat="37.1813939268" lon="-7.43147602372">
        <ele>12</ele>
        <time>2011-03-21T18:13:29Z</time>
      </trkpt>
      <trkpt lat="37.1813458147" lon="-7.43150929987">
        <ele>12</ele>
        <time>2011-03-21T18:13:31Z</time>
      </trkpt>
      <trkpt lat="37.1812932602" lon="-7.43152061543">
        <ele>12</ele>
        <time>2011-03-21T18:13:33Z</time>
      </trkpt>
      <trkpt lat="37.1812327429" lon="-7.43151759795">
        <ele>12</ele>
        <time>2011-03-21T18:13:35Z</time>
      </trkpt>
      <trkpt lat="37.1811713036" lon="-7.43149857104">
        <ele>12</ele>
        <time>2011-03-21T18:13:37Z</time>
      </trkpt>
      <trkpt lat="37.1811153963" lon="-7.43147744865">
        <ele>12</ele>
        <time>2011-03-21T18:13:39Z</time>
      </trkpt>
      <trkpt lat="37.1810581479" lon="-7.43146529489">
        <ele>12</ele>
        <time>2011-03-21T18:13:41Z</time>
      </trkpt>
      <trkpt lat="37.1810008996" lon="-7.43146185831">
        <ele>12</ele>
        <time>2011-03-21T18:13:43Z</time>
      </trkpt>
      <trkpt lat="37.180942813" lon="-7.43146076867">
        <ele>12</ele>
        <time>2011-03-21T18:13:45Z</time>
      </trkpt>
      <trkpt lat="37.1808710639" lon="-7.43145766736">
        <ele>12</ele>
        <time>2011-03-21T18:13:47Z</time>
      </trkpt>
      <trkpt lat="37.1808019132" lon="-7.43145037511">
        <ele>12</ele>
        <time>2011-03-21T18:13:49Z</time>
      </trkpt>
      <trkpt lat="37.1807287393" lon="-7.43144802818">
        <ele>12</ele>
        <time>2011-03-21T18:13:51Z</time>
      </trkpt>
      <trkpt lat="37.1806467643" lon="-7.43143553915">
        <ele>12</ele>
        <time>2011-03-21T18:13:53Z</time>
      </trkpt>
      <trkpt lat="37.1805623585" lon="-7.43143168347">
        <ele>12</ele>
        <time>2011-03-21T18:13:55Z</time>
      </trkpt>
      <trkpt lat="37.1804828143" lon="-7.43142020027">
        <ele>12</ele>
        <time>2011-03-21T18:13:57Z</time>
      </trkpt>
      <trkpt lat="37.1804120711" lon="-7.43141844007">
        <ele>12</ele>
        <time>2011-03-21T18:13:59Z</time>
      </trkpt>
      <trkpt lat="37.1803835726" lon="-7.43142807926">
        <ele>12</ele>
        <time>2011-03-21T18:14:00Z</time>
      </trkpt>
      <trkpt lat="37.1803428366" lon="-7.43149672702">
        <ele>12</ele>
        <time>2011-03-21T18:14:02Z</time>
      </trkpt>
      <trkpt lat="37.1803346223" lon="-7.43157995928">
        <ele>12</ele>
        <time>2011-03-21T18:14:04Z</time>
      </trkpt>
      <trkpt lat="37.1803328621" lon="-7.43166059316">
        <ele>12</ele>
        <time>2011-03-21T18:14:06Z</time>
      </trkpt>
      <trkpt lat="37.1803291741" lon="-7.43170484959">
        <ele>12</ele>
        <time>2011-03-21T18:14:07Z</time>
      </trkpt>
      <trkpt lat="37.1803246479" lon="-7.43180124144">
        <ele>12</ele>
        <time>2011-03-21T18:14:09Z</time>
      </trkpt>
      <trkpt lat="37.1803183614" lon="-7.43188330025">
        <ele>12</ele>
        <time>2011-03-21T18:14:11Z</time>
      </trkpt>
      <trkpt lat="37.1803115721" lon="-7.43196443704">
        <ele>12</ele>
        <time>2011-03-21T18:14:13Z</time>
      </trkpt>
      <trkpt lat="37.1803049504" lon="-7.4320480884">
        <ele>12</ele>
        <time>2011-03-21T18:14:15Z</time>
      </trkpt>
      <trkpt lat="37.1803005918" lon="-7.43212251967">
        <ele>12</ele>
        <time>2011-03-21T18:14:17Z</time>
      </trkpt>
      <trkpt lat="37.1802948083" lon="-7.43220281827">
        <ele>12</ele>
        <time>2011-03-21T18:14:19Z</time>
      </trkpt>
      <trkpt lat="37.1802947245" lon="-7.43227590844">
        <ele>12</ele>
        <time>2011-03-21T18:14:21Z</time>
      </trkpt>
      <trkpt lat="37.1802904497" lon="-7.43235813488">
        <ele>12</ele>
        <time>2011-03-21T18:14:23Z</time>
      </trkpt>
      <trkpt lat="37.1802826545" lon="-7.43243449399">
        <ele>12</ele>
        <time>2011-03-21T18:14:25Z</time>
      </trkpt>
      <trkpt lat="37.1802702493" lon="-7.43250984727">
        <ele>12</ele>
        <time>2011-03-21T18:14:27Z</time>
      </trkpt>
      <trkpt lat="37.1802616998" lon="-7.43258679311">
        <ele>12</ele>
        <time>2011-03-21T18:14:29Z</time>
      </trkpt>
      <trkpt lat="37.1802505519" lon="-7.43265485414">
        <ele>12</ele>
        <time>2011-03-21T18:14:31Z</time>
      </trkpt>
      <trkpt lat="37.1802341233" lon="-7.43272224462">
        <ele>12</ele>
        <time>2011-03-21T18:14:33Z</time>
      </trkpt>
      <trkpt lat="37.1802211314" lon="-7.43278728816">
        <ele>12</ele>
        <time>2011-03-21T18:14:35Z</time>
      </trkpt>
      <trkpt lat="37.1802114084" lon="-7.43286490455">
        <ele>12</ele>
        <time>2011-03-21T18:14:37Z</time>
      </trkpt>
      <trkpt lat="37.1802171919" lon="-7.43294545461">
        <ele>12</ele>
        <time>2011-03-21T18:14:39Z</time>
      </trkpt>
      <trkpt lat="37.1802164375" lon="-7.43301720368">
        <ele>12</ele>
        <time>2011-03-21T18:14:41Z</time>
      </trkpt>
      <trkpt lat="37.1802026074" lon="-7.43309557444">
        <ele>12</ele>
        <time>2011-03-21T18:14:43Z</time>
      </trkpt>
      <trkpt lat="37.1801889449" lon="-7.43317981254">
        <ele>12</ele>
        <time>2011-03-21T18:14:45Z</time>
      </trkpt>
      <trkpt lat="37.1801779646" lon="-7.43326882832">
        <ele>12</ele>
        <time>2011-03-21T18:14:47Z</time>
      </trkpt>
      <trkpt lat="37.1801734384" lon="-7.43334275667">
        <ele>12</ele>
        <time>2011-03-21T18:14:49Z</time>
      </trkpt>
      <trkpt lat="37.1801684931" lon="-7.43342104362">
        <ele>12</ele>
        <time>2011-03-21T18:14:51Z</time>
      </trkpt>
      <trkpt lat="37.1801582671" lon="-7.43350871829">
        <ele>12</ele>
        <time>2011-03-21T18:14:53Z</time>
      </trkpt>
      <trkpt lat="37.1801470354" lon="-7.43359706352">
        <ele>12</ele>
        <time>2011-03-21T18:14:55Z</time>
      </trkpt>
      <trkpt lat="37.1801377315" lon="-7.43367987669">
        <ele>12</ele>
        <time>2011-03-21T18:14:57Z</time>
      </trkpt>
      <trkpt lat="37.1801192075" lon="-7.4337478539">
        <ele>12</ele>
        <time>2011-03-21T18:14:59Z</time>
      </trkpt>
      <trkpt lat="37.1801056288" lon="-7.4338246321">
        <ele>12</ele>
        <time>2011-03-21T18:15:01Z</time>
      </trkpt>
      <trkpt lat="37.1800837521" lon="-7.43390828347">
        <ele>12</ele>
        <time>2011-03-21T18:15:03Z</time>
      </trkpt>
      <trkpt lat="37.1800604504" lon="-7.43400098728">
        <ele>12</ele>
        <time>2011-03-21T18:15:05Z</time>
      </trkpt>
      <trkpt lat="37.1800467041" lon="-7.43409243381">
        <ele>12</ele>
        <time>2011-03-21T18:15:07Z</time>
      </trkpt>
      <trkpt lat="37.1800290182" lon="-7.43418907712">
        <ele>12</ele>
        <time>2011-03-21T18:15:09Z</time>
      </trkpt>
      <trkpt lat="37.1800163616" lon="-7.43427080064">
        <ele>12</ele>
        <time>2011-03-21T18:15:11Z</time>
      </trkpt>
      <trkpt lat="37.1799992625" lon="-7.43435847532">
        <ele>12</ele>
        <time>2011-03-21T18:15:13Z</time>
      </trkpt>
      <trkpt lat="37.1799860191" lon="-7.43444313251">
        <ele>12</ele>
        <time>2011-03-21T18:15:15Z</time>
      </trkpt>
      <trkpt lat="37.179975877" lon="-7.43452988517">
        <ele>12</ele>
        <time>2011-03-21T18:15:17Z</time>
      </trkpt>
      <trkpt lat="37.1799646453" lon="-7.43460004167">
        <ele>12</ele>
        <time>2011-03-21T18:15:19Z</time>
      </trkpt>
      <trkpt lat="37.1799568501" lon="-7.43467707133">
        <ele>12</ele>
        <time>2011-03-21T18:15:21Z</time>
      </trkpt>
      <trkpt lat="37.1799498093" lon="-7.43475560974">
        <ele>12</ele>
        <time>2011-03-21T18:15:23Z</time>
      </trkpt>
      <trkpt lat="37.1799422656" lon="-7.43483565688">
        <ele>12</ele>
        <time>2011-03-21T18:15:25Z</time>
      </trkpt>
      <trkpt lat="37.1799328779" lon="-7.43491251891">
        <ele>12</ele>
        <time>2011-03-21T18:15:27Z</time>
      </trkpt>
      <trkpt lat="37.1799242445" lon="-7.43499256605">
        <ele>12</ele>
        <time>2011-03-21T18:15:29Z</time>
      </trkpt>
      <trkpt lat="37.1799111687" lon="-7.43507420576">
        <ele>12</ele>
        <time>2011-03-21T18:15:31Z</time>
      </trkpt>
      <trkpt lat="37.1798960813" lon="-7.43515827621">
        <ele>12</ele>
        <time>2011-03-21T18:15:33Z</time>
      </trkpt>
      <trkpt lat="37.1798779764" lon="-7.43524435833">
        <ele>12</ele>
        <time>2011-03-21T18:15:35Z</time>
      </trkpt>
      <trkpt lat="37.1798579437" lon="-7.43533002134">
        <ele>12</ele>
        <time>2011-03-21T18:15:37Z</time>
      </trkpt>
      <trkpt lat="37.1798452032" lon="-7.43541023613">
        <ele>12</ele>
        <time>2011-03-21T18:15:39Z</time>
      </trkpt>
      <trkpt lat="37.1798316245" lon="-7.43549623442">
        <ele>12</ele>
        <time>2011-03-21T18:15:41Z</time>
      </trkpt>
      <trkpt lat="37.1798180458" lon="-7.43558474729">
        <ele>12</ele>
        <time>2011-03-21T18:15:43Z</time>
      </trkpt>
      <trkpt lat="37.1798074846" lon="-7.43567074558">
        <ele>12</ele>
        <time>2011-03-21T18:15:45Z</time>
      </trkpt>
      <trkpt lat="37.1797995218" lon="-7.43574869725">
        <ele>12</ele>
        <time>2011-03-21T18:15:47Z</time>
      </trkpt>
      <trkpt lat="37.1797947441" lon="-7.43578809218">
        <ele>12</ele>
        <time>2011-03-21T18:15:48Z</time>
      </trkpt>
      <trkpt lat="37.1797662457" lon="-7.43590116401">
        <ele>12</ele>
        <time>2011-03-21T18:15:51Z</time>
      </trkpt>
      <trkpt lat="37.1797636473" lon="-7.43594290587">
        <ele>12</ele>
        <time>2011-03-21T18:15:52Z</time>
      </trkpt>
      <trkpt lat="37.1797387531" lon="-7.43606712563">
        <ele>12</ele>
        <time>2011-03-21T18:15:55Z</time>
      </trkpt>
      <trkpt lat="37.1797160381" lon="-7.43613753359">
        <ele>12</ele>
        <time>2011-03-21T18:15:57Z</time>
      </trkpt>
      <trkpt lat="37.1797018727" lon="-7.43620777391">
        <ele>12</ele>
        <time>2011-03-21T18:15:59Z</time>
      </trkpt>
      <trkpt lat="37.1797053093" lon="-7.43628681523">
        <ele>12</ele>
        <time>2011-03-21T18:16:01Z</time>
      </trkpt>
      <trkpt lat="37.1797050578" lon="-7.43636225233">
        <ele>12</ele>
        <time>2011-03-21T18:16:03Z</time>
      </trkpt>
      <trkpt lat="37.1797000287" lon="-7.43640391037">
        <ele>12</ele>
        <time>2011-03-21T18:16:04Z</time>
      </trkpt>
      <trkpt lat="37.1796692671" lon="-7.43652653757">
        <ele>12</ele>
        <time>2011-03-21T18:16:07Z</time>
      </trkpt>
      <trkpt lat="37.1796575324" lon="-7.43660624944">
        <ele>12</ele>
        <time>2011-03-21T18:16:09Z</time>
      </trkpt>
      <trkpt lat="37.1796461331" lon="-7.43668336292">
        <ele>12</ele>
        <time>2011-03-21T18:16:11Z</time>
      </trkpt>
      <trkpt lat="37.1796360748" lon="-7.43672367986">
        <ele>12</ele>
        <time>2011-03-21T18:16:12Z</time>
      </trkpt>
      <trkpt lat="37.1796213226" lon="-7.43680699594">
        <ele>12</ele>
        <time>2011-03-21T18:16:14Z</time>
      </trkpt>
      <trkpt lat="37.1796059838" lon="-7.43689056349">
        <ele>12</ele>
        <time>2011-03-21T18:16:16Z</time>
      </trkpt>
      <trkpt lat="37.1795977695" lon="-7.43697404721">
        <ele>12</ele>
        <time>2011-03-21T18:16:18Z</time>
      </trkpt>
      <trkpt lat="37.1795922374" lon="-7.43705627365">
        <ele>12</ele>
        <time>2011-03-21T18:16:20Z</time>
      </trkpt>
      <trkpt lat="37.1795845261" lon="-7.43714101466">
        <ele>12</ele>
        <time>2011-03-21T18:16:22Z</time>
      </trkpt>
      <trkpt lat="37.1795766471" lon="-7.43722022361">
        <ele>12</ele>
        <time>2011-03-21T18:16:24Z</time>
      </trkpt>
      <trkpt lat="37.1795684328" lon="-7.43729658272">
        <ele>12</ele>
        <time>2011-03-21T18:16:26Z</time>
      </trkpt>
      <trkpt lat="37.1795591289" lon="-7.43736766123">
        <ele>12</ele>
        <time>2011-03-21T18:16:28Z</time>
      </trkpt>
      <trkpt lat="37.1795447121" lon="-7.43745030677">
        <ele>12</ele>
        <time>2011-03-21T18:16:30Z</time>
      </trkpt>
      <trkpt lat="37.1795256852" lon="-7.43752993482">
        <ele>12</ele>
        <time>2011-03-21T18:16:32Z</time>
      </trkpt>
      <trkpt lat="37.1795111006" lon="-7.43760855704">
        <ele>12</ele>
        <time>2011-03-21T18:16:34Z</time>
      </trkpt>
      <trkpt lat="37.1794962647" lon="-7.43769095112">
        <ele>12</ele>
        <time>2011-03-21T18:16:36Z</time>
      </trkpt>
      <trkpt lat="37.1794835242" lon="-7.43777267464">
        <ele>12</ele>
        <time>2011-03-21T18:16:38Z</time>
      </trkpt>
      <trkpt lat="37.1794686044" lon="-7.43786068459">
        <ele>12</ele>
        <time>2011-03-21T18:16:40Z</time>
      </trkpt>
      <trkpt lat="37.1794526788" lon="-7.43794131847">
        <ele>12</ele>
        <time>2011-03-21T18:16:42Z</time>
      </trkpt>
      <trkpt lat="37.1794387649" lon="-7.43802170089">
        <ele>12</ele>
        <time>2011-03-21T18:16:44Z</time>
      </trkpt>
      <trkpt lat="37.1794293771" lon="-7.43810132894">
        <ele>12</ele>
        <time>2011-03-21T18:16:46Z</time>
      </trkpt>
      <trkpt lat="37.1794181454" lon="-7.43818246573">
        <ele>12</ele>
        <time>2011-03-21T18:16:48Z</time>
      </trkpt>
      <trkpt lat="37.1794049858" lon="-7.43826142323">
        <ele>12</ele>
        <time>2011-03-21T18:16:50Z</time>
      </trkpt>
      <trkpt lat="37.1793972744" lon="-7.43834264384">
        <ele>12</ele>
        <time>2011-03-21T18:16:52Z</time>
      </trkpt>
      <trkpt lat="37.1793862942" lon="-7.43842311008">
        <ele>12</ele>
        <time>2011-03-21T18:16:54Z</time>
      </trkpt>
      <trkpt lat="37.1793702847" lon="-7.43849871482">
        <ele>12</ele>
        <time>2011-03-21T18:16:56Z</time>
      </trkpt>
      <trkpt lat="37.179359975" lon="-7.43857021243">
        <ele>12</ele>
        <time>2011-03-21T18:16:58Z</time>
      </trkpt>
      <trkpt lat="37.1793541915" lon="-7.43864414079">
        <ele>12</ele>
        <time>2011-03-21T18:17:00Z</time>
      </trkpt>
      <trkpt lat="37.1793432112" lon="-7.43872276301">
        <ele>12</ele>
        <time>2011-03-21T18:17:02Z</time>
      </trkpt>
      <trkpt lat="37.179334494" lon="-7.43880155287">
        <ele>12</ele>
        <time>2011-03-21T18:17:04Z</time>
      </trkpt>
      <trkpt lat="37.1793216697" lon="-7.43888512041">
        <ele>12</ele>
        <time>2011-03-21T18:17:06Z</time>
      </trkpt>
      <trkpt lat="37.1793155509" lon="-7.43896994524">
        <ele>12</ele>
        <time>2011-03-21T18:17:08Z</time>
      </trkpt>
      <trkpt lat="37.1793085939" lon="-7.43905544062">
        <ele>12</ele>
        <time>2011-03-21T18:17:10Z</time>
      </trkpt>
      <trkpt lat="37.1793059117" lon="-7.43913984635">
        <ele>12</ele>
        <time>2011-03-21T18:17:12Z</time>
      </trkpt>
      <trkpt lat="37.1793085101" lon="-7.43922534173">
        <ele>12</ele>
        <time>2011-03-21T18:17:14Z</time>
      </trkpt>
      <trkpt lat="37.1793084263" lon="-7.43930765199">
        <ele>12</ele>
        <time>2011-03-21T18:17:16Z</time>
      </trkpt>
      <trkpt lat="37.1792945962" lon="-7.4393875315">
        <ele>12</ele>
        <time>2011-03-21T18:17:18Z</time>
      </trkpt>
      <trkpt lat="37.1792879745" lon="-7.43946087312">
        <ele>12</ele>
        <time>2011-03-21T18:17:20Z</time>
      </trkpt>
      <trkpt lat="37.1792824424" lon="-7.4395362264">
        <ele>12</ele>
        <time>2011-03-21T18:17:22Z</time>
      </trkpt>
      <trkpt lat="37.179271965" lon="-7.43961250169">
        <ele>12</ele>
        <time>2011-03-21T18:17:24Z</time>
      </trkpt>
      <trkpt lat="37.1792632479" lon="-7.439690621">
        <ele>12</ele>
        <time>2011-03-21T18:17:26Z</time>
      </trkpt>
      <trkpt lat="37.1792478252" lon="-7.43976505227">
        <ele>12</ele>
        <time>2011-03-21T18:17:28Z</time>
      </trkpt>
      <trkpt lat="37.179237264" lon="-7.43984384213">
        <ele>12</ele>
        <time>2011-03-21T18:17:30Z</time>
      </trkpt>
      <trkpt lat="37.1792267028" lon="-7.439923554">
        <ele>12</ele>
        <time>2011-03-21T18:17:32Z</time>
      </trkpt>
      <trkpt lat="37.1792118668" lon="-7.43999287231">
        <ele>12</ele>
        <time>2011-03-21T18:17:34Z</time>
      </trkpt>
      <trkpt lat="37.1791973661" lon="-7.44006680067">
        <ele>12</ele>
        <time>2011-03-21T18:17:36Z</time>
      </trkpt>
      <trkpt lat="37.1791836198" lon="-7.44013963938">
        <ele>12</ele>
        <time>2011-03-21T18:17:38Z</time>
      </trkpt>
      <trkpt lat="37.1791656825" lon="-7.44021759105">
        <ele>12</ele>
        <time>2011-03-21T18:17:40Z</time>
      </trkpt>
      <trkpt lat="37.1791456498" lon="-7.44029797347">
        <ele>12</ele>
        <time>2011-03-21T18:17:42Z</time>
      </trkpt>
      <trkpt lat="37.1791245274" lon="-7.44037600896">
        <ele>12</ele>
        <time>2011-03-21T18:17:44Z</time>
      </trkpt>
      <trkpt lat="37.1791035727" lon="-7.44045781631">
        <ele>12</ele>
        <time>2011-03-21T18:17:46Z</time>
      </trkpt>
      <trkpt lat="37.1790842105" lon="-7.44053459451">
        <ele>12</ele>
        <time>2011-03-21T18:17:48Z</time>
      </trkpt>
      <trkpt lat="37.1790697098" lon="-7.44061757532">
        <ele>12</ele>
        <time>2011-03-21T18:17:50Z</time>
      </trkpt>
      <trkpt lat="37.1790553767" lon="-7.44069485644">
        <ele>12</ele>
        <time>2011-03-21T18:17:52Z</time>
      </trkpt>
      <trkpt lat="37.1790449832" lon="-7.44077171846">
        <ele>12</ele>
        <time>2011-03-21T18:17:54Z</time>
      </trkpt>
      <trkpt lat="37.1790389482" lon="-7.44085243616">
        <ele>12</ele>
        <time>2011-03-21T18:17:56Z</time>
      </trkpt>
      <trkpt lat="37.179036266" lon="-7.44093390823">
        <ele>12</ele>
        <time>2011-03-21T18:17:58Z</time>
      </trkpt>
      <trkpt lat="37.1790301472" lon="-7.44100959678">
        <ele>12</ele>
        <time>2011-03-21T18:18:00Z</time>
      </trkpt>
      <trkpt lat="37.179024699" lon="-7.44108888956">
        <ele>12</ele>
        <time>2011-03-21T18:18:02Z</time>
      </trkpt>
      <trkpt lat="37.1790169876" lon="-7.44117086454">
        <ele>12</ele>
        <time>2011-03-21T18:18:04Z</time>
      </trkpt>
      <trkpt lat="37.1790088572" lon="-7.4412531748">
        <ele>12</ele>
        <time>2011-03-21T18:18:06Z</time>
      </trkpt>
      <trkpt lat="37.1789996371" lon="-7.44133380868">
        <ele>12</ele>
        <time>2011-03-21T18:18:08Z</time>
      </trkpt>
      <trkpt lat="37.178992764" lon="-7.44141712476">
        <ele>12</ele>
        <time>2011-03-21T18:18:10Z</time>
      </trkpt>
      <trkpt lat="37.1789846335" lon="-7.4415046318">
        <ele>12</ele>
        <time>2011-03-21T18:18:12Z</time>
      </trkpt>
      <trkpt lat="37.1789820351" lon="-7.44158291874">
        <ele>12</ele>
        <time>2011-03-21T18:18:14Z</time>
      </trkpt>
      <trkpt lat="37.1789910876" lon="-7.44165835584">
        <ele>12</ele>
        <time>2011-03-21T18:18:17Z</time>
      </trkpt>
      <trkpt lat="37.1789897465" lon="-7.44168274717">
        <ele>12</ele>
        <time>2011-03-21T18:18:18Z</time>
      </trkpt>
      <trkpt lat="37.1789625053" lon="-7.44172817707">
        <ele>12</ele>
        <time>2011-03-21T18:18:20Z</time>
      </trkpt>
      <trkpt lat="37.1789527823" lon="-7.44178559309">
        <ele>12</ele>
        <time>2011-03-21T18:18:22Z</time>
      </trkpt>
      <trkpt lat="37.1789508545" lon="-7.4418213838">
        <ele>12</ele>
        <time>2011-03-21T18:18:23Z</time>
      </trkpt>
      <trkpt lat="37.1789433946" lon="-7.44193747311">
        <ele>12</ele>
        <time>2011-03-21T18:18:26Z</time>
      </trkpt>
      <trkpt lat="37.1789463282" lon="-7.44201701734">
        <ele>12</ele>
        <time>2011-03-21T18:18:28Z</time>
      </trkpt>
      <trkpt lat="37.1789497648" lon="-7.44209823796">
        <ele>12</ele>
        <time>2011-03-21T18:18:30Z</time>
      </trkpt>
      <trkpt lat="37.1789517765" lon="-7.44217753073">
        <ele>12</ele>
        <time>2011-03-21T18:18:32Z</time>
      </trkpt>
      <trkpt lat="37.1789481722" lon="-7.44225757787">
        <ele>11.8</ele>
        <time>2011-03-21T18:18:34Z</time>
      </trkpt>
      <trkpt lat="37.1789510221" lon="-7.44233251206">
        <ele>11.4</ele>
        <time>2011-03-21T18:18:36Z</time>
      </trkpt>
      <trkpt lat="37.1789480046" lon="-7.44241859417">
        <ele>11</ele>
        <time>2011-03-21T18:18:38Z</time>
      </trkpt>
      <trkpt lat="37.1789495972" lon="-7.44249629439">
        <ele>10.8</ele>
        <time>2011-03-21T18:18:40Z</time>
      </trkpt>
      <trkpt lat="37.1789511059" lon="-7.44257868846">
        <ele>10.6</ele>
        <time>2011-03-21T18:18:42Z</time>
      </trkpt>
      <trkpt lat="37.1789592364" lon="-7.44265739451">
        <ele>10.6</ele>
        <time>2011-03-21T18:18:44Z</time>
      </trkpt>
      <trkpt lat="37.1789820351" lon="-7.44273601673">
        <ele>10.4</ele>
        <time>2011-03-21T18:18:46Z</time>
      </trkpt>
      <trkpt lat="37.1790065941" lon="-7.44282067392">
        <ele>10.4</ele>
        <time>2011-03-21T18:18:48Z</time>
      </trkpt>
      <trkpt lat="37.1790259563" lon="-7.44290013433">
        <ele>10.2</ele>
        <time>2011-03-21T18:18:50Z</time>
      </trkpt>
      <trkpt lat="37.1790504314" lon="-7.44297062611">
        <ele>10.2</ele>
        <time>2011-03-21T18:18:52Z</time>
      </trkpt>
      <trkpt lat="37.1790826179" lon="-7.44303877096">
        <ele>10.2</ele>
        <time>2011-03-21T18:18:54Z</time>
      </trkpt>
      <trkpt lat="37.1791184086" lon="-7.44309694134">
        <ele>10</ele>
        <time>2011-03-21T18:18:56Z</time>
      </trkpt>
      <trkpt lat="37.1791609049" lon="-7.44315645283">
        <ele>10</ele>
        <time>2011-03-21T18:18:58Z</time>
      </trkpt>
      <trkpt lat="37.1791825302" lon="-7.44318252054">
        <ele>10</ele>
        <time>2011-03-21T18:18:59Z</time>
      </trkpt>
      <trkpt lat="37.1792111124" lon="-7.44326952466">
        <ele>10</ele>
        <time>2011-03-21T18:19:02Z</time>
      </trkpt>
      <trkpt lat="37.1792103581" lon="-7.44333834006">
        <ele>10</ele>
        <time>2011-03-21T18:19:04Z</time>
      </trkpt>
      <trkpt lat="37.1791995454" lon="-7.44341436389">
        <ele>10</ele>
        <time>2011-03-21T18:19:06Z</time>
      </trkpt>
      <trkpt lat="37.1791857991" lon="-7.44348954954">
        <ele>10</ele>
        <time>2011-03-21T18:19:08Z</time>
      </trkpt>
      <trkpt lat="37.1791718852" lon="-7.44356029277">
        <ele>10</ele>
        <time>2011-03-21T18:19:10Z</time>
      </trkpt>
      <trkpt lat="37.1791603181" lon="-7.44363346676">
        <ele>10</ele>
        <time>2011-03-21T18:19:12Z</time>
      </trkpt>
      <trkpt lat="37.1791456498" lon="-7.44370664075">
        <ele>10</ele>
        <time>2011-03-21T18:19:14Z</time>
      </trkpt>
      <trkpt lat="37.1791314844" lon="-7.44377696489">
        <ele>10</ele>
        <time>2011-03-21T18:19:16Z</time>
      </trkpt>
      <trkpt lat="37.1791180734" lon="-7.44385240199">
        <ele>10</ele>
        <time>2011-03-21T18:19:18Z</time>
      </trkpt>
      <trkpt lat="37.1791019801" lon="-7.44392473779">
        <ele>10</ele>
        <time>2011-03-21T18:19:20Z</time>
      </trkpt>
      <trkpt lat="37.1790858869" lon="-7.44399279881">
        <ele>10</ele>
        <time>2011-03-21T18:19:22Z</time>
      </trkpt>
      <trkpt lat="37.1790731464" lon="-7.44406479933">
        <ele>10</ele>
        <time>2011-03-21T18:19:24Z</time>
      </trkpt>
      <trkpt lat="37.1790592324" lon="-7.44413797332">
        <ele>10</ele>
        <time>2011-03-21T18:19:26Z</time>
      </trkpt>
      <trkpt lat="37.1790474978" lon="-7.4442181881">
        <ele>10</ele>
        <time>2011-03-21T18:19:28Z</time>
      </trkpt>
      <trkpt lat="37.1790491741" lon="-7.44429789997">
        <ele>10</ele>
        <time>2011-03-21T18:19:30Z</time>
      </trkpt>
      <trkpt lat="37.1790385291" lon="-7.44437283416">
        <ele>10</ele>
        <time>2011-03-21T18:19:32Z</time>
      </trkpt>
      <trkpt lat="37.1790386129" lon="-7.44445095347">
        <ele>10</ele>
        <time>2011-03-21T18:19:35Z</time>
      </trkpt>
      <trkpt lat="37.1791023992" lon="-7.44456997645">
        <ele>10</ele>
        <time>2011-03-21T18:20:28Z</time>
      </trkpt>
      <trkpt lat="37.1791087694" lon="-7.44460752736">
        <ele>10</ele>
        <time>2011-03-21T18:20:31Z</time>
      </trkpt>
      <trkpt lat="37.1791137148" lon="-7.444635942">
        <ele>10</ele>
        <time>2011-03-21T18:20:33Z</time>
      </trkpt>
      <trkpt lat="37.1791149721" lon="-7.44469570495">
        <ele>10</ele>
        <time>2011-03-21T18:20:37Z</time>
      </trkpt>
      <trkpt lat="37.1791146368" lon="-7.4447215212">
        <ele>10</ele>
        <time>2011-03-21T18:20:38Z</time>
      </trkpt>
      <trkpt lat="37.179129808" lon="-7.44483937071">
        <ele>10</ele>
        <time>2011-03-21T18:20:42Z</time>
      </trkpt>
      <trkpt lat="37.1791356753" lon="-7.44490583918">
        <ele>9.6</ele>
        <time>2011-03-21T18:20:44Z</time>
      </trkpt>
      <trkpt lat="37.1791396148" lon="-7.4449827012">
        <ele>9.2</ele>
        <time>2011-03-21T18:20:46Z</time>
      </trkpt>
      <trkpt lat="37.1791474938" lon="-7.44506769367">
        <ele>9</ele>
        <time>2011-03-21T18:20:48Z</time>
      </trkpt>
      <trkpt lat="37.1791485835" lon="-7.44513583852">
        <ele>8.8</ele>
        <time>2011-03-21T18:20:50Z</time>
      </trkpt>
      <trkpt lat="37.1791546184" lon="-7.4452063303">
        <ele>8.6</ele>
        <time>2011-03-21T18:20:52Z</time>
      </trkpt>
      <trkpt lat="37.1791578036" lon="-7.44527791172">
        <ele>8.4</ele>
        <time>2011-03-21T18:20:54Z</time>
      </trkpt>
      <trkpt lat="37.1791577197" lon="-7.44535209154">
        <ele>8.4</ele>
        <time>2011-03-21T18:20:56Z</time>
      </trkpt>
      <trkpt lat="37.1791517686" lon="-7.4454326416">
        <ele>8.2</ele>
        <time>2011-03-21T18:20:58Z</time>
      </trkpt>
      <trkpt lat="37.1791453984" lon="-7.44551553859">
        <ele>8.2</ele>
        <time>2011-03-21T18:21:00Z</time>
      </trkpt>
      <trkpt lat="37.1791431352" lon="-7.44559868703">
        <ele>8.2</ele>
        <time>2011-03-21T18:21:02Z</time>
      </trkpt>
      <trkpt lat="37.1791389443" lon="-7.44568418241">
        <ele>8.2</ele>
        <time>2011-03-21T18:21:04Z</time>
      </trkpt>
      <trkpt lat="37.1791410398" lon="-7.44576481629">
        <ele>8</ele>
        <time>2011-03-21T18:21:06Z</time>
      </trkpt>
      <trkpt lat="37.1791458174" lon="-7.44584218123">
        <ele>8</ele>
        <time>2011-03-21T18:21:08Z</time>
      </trkpt>
      <trkpt lat="37.1791415427" lon="-7.44591434939">
        <ele>8</ele>
        <time>2011-03-21T18:21:10Z</time>
      </trkpt>
      <trkpt lat="37.1791389443" lon="-7.44599255252">
        <ele>8</ele>
        <time>2011-03-21T18:21:12Z</time>
      </trkpt>
      <trkpt lat="37.1791342504" lon="-7.44606757052">
        <ele>8</ele>
        <time>2011-03-21T18:21:14Z</time>
      </trkpt>
      <trkpt lat="37.1791241083" lon="-7.44614753385">
        <ele>8</ele>
        <time>2011-03-21T18:21:16Z</time>
      </trkpt>
      <trkpt lat="37.1791236892" lon="-7.44621810944">
        <ele>8</ele>
        <time>2011-03-21T18:21:18Z</time>
      </trkpt>
      <trkpt lat="37.1791317359" lon="-7.44628969087">
        <ele>8</ele>
        <time>2011-03-21T18:21:20Z</time>
      </trkpt>
      <trkpt lat="37.1791350886" lon="-7.44636831309">
        <ele>8</ele>
        <time>2011-03-21T18:21:22Z</time>
      </trkpt>
      <trkpt lat="37.1791391119" lon="-7.44644358255">
        <ele>8</ele>
        <time>2011-03-21T18:21:24Z</time>
      </trkpt>
      <trkpt lat="37.1791410398" lon="-7.44652329442">
        <ele>8</ele>
        <time>2011-03-21T18:21:26Z</time>
      </trkpt>
      <trkpt lat="37.1791463204" lon="-7.44661390276">
        <ele>8</ele>
        <time>2011-03-21T18:21:28Z</time>
      </trkpt>
      <trkpt lat="37.1791509304" lon="-7.44668975896">
        <ele>8</ele>
        <time>2011-03-21T18:21:30Z</time>
      </trkpt>
      <trkpt lat="37.1791596476" lon="-7.446768465">
        <ele>8</ele>
        <time>2011-03-21T18:21:32Z</time>
      </trkpt>
      <trkpt lat="37.179165934" lon="-7.4468456623">
        <ele>8</ele>
        <time>2011-03-21T18:21:34Z</time>
      </trkpt>
      <trkpt lat="37.1791695382" lon="-7.44691841719">
        <ele>8</ele>
        <time>2011-03-21T18:21:36Z</time>
      </trkpt>
      <trkpt lat="37.1791671913" lon="-7.44699133972">
        <ele>8</ele>
        <time>2011-03-21T18:21:38Z</time>
      </trkpt>
      <trkpt lat="37.1791700411" lon="-7.44706501662">
        <ele>8</ele>
        <time>2011-03-21T18:21:40Z</time>
      </trkpt>
      <trkpt lat="37.1791714661" lon="-7.44714556668">
        <ele>8</ele>
        <time>2011-03-21T18:21:42Z</time>
      </trkpt>
      <trkpt lat="37.1791785907" lon="-7.44721865685">
        <ele>8</ele>
        <time>2011-03-21T18:21:44Z</time>
      </trkpt>
      <trkpt lat="37.1791921694" lon="-7.44728269456">
        <ele>8</ele>
        <time>2011-03-21T18:21:46Z</time>
      </trkpt>
      <trkpt lat="37.1792109448" lon="-7.44734304424">
        <ele>8</ele>
        <time>2011-03-21T18:21:48Z</time>
      </trkpt>
      <trkpt lat="37.179229385" lon="-7.4473988677">
        <ele>8</ele>
        <time>2011-03-21T18:21:50Z</time>
      </trkpt>
      <trkpt lat="37.1792329054" lon="-7.44743440695">
        <ele>8</ele>
        <time>2011-03-21T18:21:51Z</time>
      </trkpt>
      <trkpt lat="37.1792324025" lon="-7.44750892204">
        <ele>8</ele>
        <time>2011-03-21T18:21:53Z</time>
      </trkpt>
      <trkpt lat="37.1792221766" lon="-7.44757388177">
        <ele>8</ele>
        <time>2011-03-21T18:21:55Z</time>
      </trkpt>
      <trkpt lat="37.1792149681" lon="-7.44764646902">
        <ele>8</ele>
        <time>2011-03-21T18:21:57Z</time>
      </trkpt>
      <trkpt lat="37.1792130403" lon="-7.44772249286">
        <ele>8</ele>
        <time>2011-03-21T18:21:59Z</time>
      </trkpt>
      <trkpt lat="37.1792061671" lon="-7.44779155971">
        <ele>8</ele>
        <time>2011-03-21T18:22:01Z</time>
      </trkpt>
      <trkpt lat="37.1791987911" lon="-7.44786347641">
        <ele>8</ele>
        <time>2011-03-21T18:22:03Z</time>
      </trkpt>
      <trkpt lat="37.1791940134" lon="-7.44793396819">
        <ele>8</ele>
        <time>2011-03-21T18:22:05Z</time>
      </trkpt>
      <trkpt lat="37.1791811052" lon="-7.44801376388">
        <ele>8</ele>
        <time>2011-03-21T18:22:07Z</time>
      </trkpt>
      <trkpt lat="37.1791722204" lon="-7.44808727314">
        <ele>8</ele>
        <time>2011-03-21T18:22:09Z</time>
      </trkpt>
      <trkpt lat="37.1791661855" lon="-7.44816061477">
        <ele>8</ele>
        <time>2011-03-21T18:22:11Z</time>
      </trkpt>
      <trkpt lat="37.1791594799" lon="-7.44823253147">
        <ele>8</ele>
        <time>2011-03-21T18:22:13Z</time>
      </trkpt>
      <trkpt lat="37.1791522715" lon="-7.44830042486">
        <ele>8</ele>
        <time>2011-03-21T18:22:15Z</time>
      </trkpt>
      <trkpt lat="37.1791449793" lon="-7.44838005291">
        <ele>8</ele>
        <time>2011-03-21T18:22:17Z</time>
      </trkpt>
      <trkpt lat="37.1791389443" lon="-7.44845213725">
        <ele>8</ele>
        <time>2011-03-21T18:22:19Z</time>
      </trkpt>
      <trkpt lat="37.1791332446" lon="-7.44852145556">
        <ele>8</ele>
        <time>2011-03-21T18:22:21Z</time>
      </trkpt>
      <trkpt lat="37.1791282993" lon="-7.44856034758">
        <ele>8</ele>
        <time>2011-03-21T18:22:22Z</time>
      </trkpt>
      <trkpt lat="37.179085803" lon="-7.44865154265">
        <ele>8</ele>
        <time>2011-03-21T18:22:25Z</time>
      </trkpt>
      <trkpt lat="37.1790676981" lon="-7.44871759202">
        <ele>8</ele>
        <time>2011-03-21T18:22:27Z</time>
      </trkpt>
      <trkpt lat="37.1790468272" lon="-7.44878464722">
        <ele>8</ele>
        <time>2011-03-21T18:22:29Z</time>
      </trkpt>
      <trkpt lat="37.1790024031" lon="-7.44883116677">
        <ele>8</ele>
        <time>2011-03-21T18:22:31Z</time>
      </trkpt>
      <trkpt lat="37.1789420535" lon="-7.44884692474">
        <ele>8</ele>
        <time>2011-03-21T18:22:33Z</time>
      </trkpt>
      <trkpt lat="37.178880195" lon="-7.44884466163">
        <ele>8</ele>
        <time>2011-03-21T18:22:35Z</time>
      </trkpt>
      <trkpt lat="37.1788478409" lon="-7.44884415871">
        <ele>8</ele>
        <time>2011-03-21T18:22:36Z</time>
      </trkpt>
      <trkpt lat="37.1788153191" lon="-7.44885195388">
        <ele>8</ele>
        <time>2011-03-21T18:22:37Z</time>
      </trkpt>
      <trkpt lat="37.178761675" lon="-7.44887357918">
        <ele>8</ele>
        <time>2011-03-21T18:22:39Z</time>
      </trkpt>
      <trkpt lat="37.1787396306" lon="-7.4488886666">
        <ele>8</ele>
        <time>2011-03-21T18:22:40Z</time>
      </trkpt>
      <trkpt lat="37.1787048457" lon="-7.44901179671">
        <ele>8</ele>
        <time>2011-03-21T18:22:43Z</time>
      </trkpt>
      <trkpt lat="37.1786925243" lon="-7.44908723381">
        <ele>8</ele>
        <time>2011-03-21T18:22:45Z</time>
      </trkpt>
      <trkpt lat="37.1786832204" lon="-7.4491639282">
        <ele>8</ele>
        <time>2011-03-21T18:22:47Z</time>
      </trkpt>
      <trkpt lat="37.1786742518" lon="-7.44923534199">
        <ele>8</ele>
        <time>2011-03-21T18:22:49Z</time>
      </trkpt>
      <trkpt lat="37.1786651155" lon="-7.4493060014">
        <ele>8</ele>
        <time>2011-03-21T18:22:51Z</time>
      </trkpt>
      <trkpt lat="37.178650531" lon="-7.44938236051">
        <ele>8</ele>
        <time>2011-03-21T18:22:53Z</time>
      </trkpt>
      <trkpt lat="37.178637539" lon="-7.44945394194">
        <ele>8</ele>
        <time>2011-03-21T18:22:55Z</time>
      </trkpt>
      <trkpt lat="37.1786284028" lon="-7.44953063632">
        <ele>8</ele>
        <time>2011-03-21T18:22:57Z</time>
      </trkpt>
      <trkpt lat="37.1786228707" lon="-7.44960347504">
        <ele>8</ele>
        <time>2011-03-21T18:22:59Z</time>
      </trkpt>
      <trkpt lat="37.1786127286" lon="-7.44967547556">
        <ele>8</ele>
        <time>2011-03-21T18:23:01Z</time>
      </trkpt>
      <trkpt lat="37.1786061907" lon="-7.44975208612">
        <ele>8</ele>
        <time>2011-03-21T18:23:03Z</time>
      </trkpt>
      <trkpt lat="37.1786005749" lon="-7.44982458956">
        <ele>8</ele>
        <time>2011-03-21T18:23:05Z</time>
      </trkpt>
      <trkpt lat="37.1785903489" lon="-7.4498931535">
        <ele>8</ele>
        <time>2011-03-21T18:23:07Z</time>
      </trkpt>
      <trkpt lat="37.1785865771" lon="-7.44996959643">
        <ele>8</ele>
        <time>2011-03-21T18:23:09Z</time>
      </trkpt>
      <trkpt lat="37.1785766864" lon="-7.45004042348">
        <ele>8</ele>
        <time>2011-03-21T18:23:11Z</time>
      </trkpt>
      <trkpt lat="37.1785721602" lon="-7.45011116672">
        <ele>8</ele>
        <time>2011-03-21T18:23:13Z</time>
      </trkpt>
      <trkpt lat="37.1785723278" lon="-7.45017897629">
        <ele>8</ele>
        <time>2011-03-21T18:23:15Z</time>
      </trkpt>
      <trkpt lat="37.1785673825" lon="-7.4502522341">
        <ele>8</ele>
        <time>2011-03-21T18:23:17Z</time>
      </trkpt>
      <trkpt lat="37.1785626887" lon="-7.45031769673">
        <ele>8.2</ele>
        <time>2011-03-21T18:23:19Z</time>
      </trkpt>
      <trkpt lat="37.1785575757" lon="-7.45038382993">
        <ele>8.4</ele>
        <time>2011-03-21T18:23:21Z</time>
      </trkpt>
      <trkpt lat="37.17854911" lon="-7.45045733919">
        <ele>8.8</ele>
        <time>2011-03-21T18:23:23Z</time>
      </trkpt>
      <trkpt lat="37.1785398061" lon="-7.45052607077">
        <ele>9</ele>
        <time>2011-03-21T18:23:25Z</time>
      </trkpt>
      <trkpt lat="37.1785284905" lon="-7.45059890948">
        <ele>9.2</ele>
        <time>2011-03-21T18:23:27Z</time>
      </trkpt>
      <trkpt lat="37.178520863" lon="-7.45067308929">
        <ele>9.4</ele>
        <time>2011-03-21T18:23:29Z</time>
      </trkpt>
      <trkpt lat="37.1785134031" lon="-7.45074307816">
        <ele>9.4</ele>
        <time>2011-03-21T18:23:31Z</time>
      </trkpt>
      <trkpt lat="37.178505105" lon="-7.45081214501">
        <ele>9.6</ele>
        <time>2011-03-21T18:23:33Z</time>
      </trkpt>
      <trkpt lat="37.1784933703" lon="-7.45088984523">
        <ele>9.6</ele>
        <time>2011-03-21T18:23:35Z</time>
      </trkpt>
      <trkpt lat="37.1784813842" lon="-7.45096477941">
        <ele>9.6</ele>
        <time>2011-03-21T18:23:37Z</time>
      </trkpt>
      <trkpt lat="37.1784692305" lon="-7.45103434918">
        <ele>9.8</ele>
        <time>2011-03-21T18:23:39Z</time>
      </trkpt>
      <trkpt lat="37.1784520476" lon="-7.45106301528">
        <ele>9.8</ele>
        <time>2011-03-21T18:23:40Z</time>
      </trkpt>
      <trkpt lat="37.1784006665" lon="-7.45110257785">
        <ele>9.8</ele>
        <time>2011-03-21T18:23:42Z</time>
      </trkpt>
      <trkpt lat="37.178349956" lon="-7.45113434525">
        <ele>9.8</ele>
        <time>2011-03-21T18:23:44Z</time>
      </trkpt>
      <trkpt lat="37.1782911151" lon="-7.45116183788">
        <ele>9.8</ele>
        <time>2011-03-21T18:23:46Z</time>
      </trkpt>
      <trkpt lat="37.1782399017" lon="-7.45120257392">
        <ele>9.8</ele>
        <time>2011-03-21T18:23:48Z</time>
      </trkpt>
      <trkpt lat="37.178197154" lon="-7.45125445788">
        <ele>10.2</ele>
        <time>2011-03-21T18:23:50Z</time>
      </trkpt>
      <trkpt lat="37.1781647999" lon="-7.45132360855">
        <ele>10.6</ele>
        <time>2011-03-21T18:23:52Z</time>
      </trkpt>
      <trkpt lat="37.1781492934" lon="-7.45139963239">
        <ele>10.8</ele>
        <time>2011-03-21T18:23:54Z</time>
      </trkpt>
      <trkpt lat="37.178144348" lon="-7.45148110445">
        <ele>11</ele>
        <time>2011-03-21T18:23:56Z</time>
      </trkpt>
      <trkpt lat="37.1781461921" lon="-7.45156148688">
        <ele>11.2</ele>
        <time>2011-03-21T18:23:58Z</time>
      </trkpt>
      <trkpt lat="37.1781694937" lon="-7.45163558287">
        <ele>11.4</ele>
        <time>2011-03-21T18:24:00Z</time>
      </trkpt>
      <trkpt lat="37.1782109003" lon="-7.45170456591">
        <ele>11.6</ele>
        <time>2011-03-21T18:24:02Z</time>
      </trkpt>
      <trkpt lat="37.1782592639" lon="-7.45176349067">
        <ele>11.6</ele>
        <time>2011-03-21T18:24:04Z</time>
      </trkpt>
      <trkpt lat="37.178304107" lon="-7.45181537463">
        <ele>11.6</ele>
        <time>2011-03-21T18:24:06Z</time>
      </trkpt>
      <trkpt lat="37.178337467" lon="-7.45188058581">
        <ele>11.8</ele>
        <time>2011-03-21T18:24:08Z</time>
      </trkpt>
      <trkpt lat="37.1783641215" lon="-7.45194076785">
        <ele>11.8</ele>
        <time>2011-03-21T18:24:10Z</time>
      </trkpt>
      <trkpt lat="37.1783767781" lon="-7.45201318747">
        <ele>11.8</ele>
        <time>2011-03-21T18:24:12Z</time>
      </trkpt>
      <trkpt lat="37.1783756047" lon="-7.4520887922">
        <ele>11.8</ele>
        <time>2011-03-21T18:24:14Z</time>
      </trkpt>
      <trkpt lat="37.1783674742" lon="-7.45215635032">
        <ele>11.8</ele>
        <time>2011-03-21T18:24:16Z</time>
      </trkpt>
      <trkpt lat="37.1783559072" lon="-7.45223044631">
        <ele>12</ele>
        <time>2011-03-21T18:24:18Z</time>
      </trkpt>
      <trkpt lat="37.1783440049" lon="-7.45230630251">
        <ele>12</ele>
        <time>2011-03-21T18:24:20Z</time>
      </trkpt>
      <trkpt lat="37.178336545" lon="-7.45239431246">
        <ele>12.4</ele>
        <time>2011-03-21T18:24:22Z</time>
      </trkpt>
      <trkpt lat="37.178327744" lon="-7.4524743596">
        <ele>12.6</ele>
        <time>2011-03-21T18:24:24Z</time>
      </trkpt>
      <trkpt lat="37.1783160093" lon="-7.45255390384">
        <ele>13</ele>
        <time>2011-03-21T18:24:26Z</time>
      </trkpt>
      <trkpt lat="37.178304107" lon="-7.45263596264">
        <ele>13.2</ele>
        <time>2011-03-21T18:24:28Z</time>
      </trkpt>
      <trkpt lat="37.1782975692" lon="-7.45270838225">
        <ele>13.2</ele>
        <time>2011-03-21T18:24:30Z</time>
      </trkpt>
      <trkpt lat="37.1782911151" lon="-7.45278323262">
        <ele>13.4</ele>
        <time>2011-03-21T18:24:32Z</time>
      </trkpt>
      <trkpt lat="37.1782869242" lon="-7.45285431113">
        <ele>13.6</ele>
        <time>2011-03-21T18:24:34Z</time>
      </trkpt>
      <trkpt lat="37.1782813083" lon="-7.45292798803">
        <ele>13.6</ele>
        <time>2011-03-21T18:24:36Z</time>
      </trkpt>
      <trkpt lat="37.1782722558" lon="-7.45300409568">
        <ele>13.8</ele>
        <time>2011-03-21T18:24:38Z</time>
      </trkpt>
      <trkpt lat="37.1782621975" lon="-7.45308154444">
        <ele>13.8</ele>
        <time>2011-03-21T18:24:40Z</time>
      </trkpt>
      <trkpt lat="37.1782557435" lon="-7.45315924465">
        <ele>13.8</ele>
        <time>2011-03-21T18:24:42Z</time>
      </trkpt>
      <trkpt lat="37.1782491218" lon="-7.45323501703">
        <ele>13.8</ele>
        <time>2011-03-21T18:24:44Z</time>
      </trkpt>
      <trkpt lat="37.1782419972" lon="-7.45331003503">
        <ele>13.8</ele>
        <time>2011-03-21T18:24:46Z</time>
      </trkpt>
      <trkpt lat="37.1782341182" lon="-7.45338538832">
        <ele>14</ele>
        <time>2011-03-21T18:24:48Z</time>
      </trkpt>
      <trkpt lat="37.1782205395" lon="-7.45346015486">
        <ele>14</ele>
        <time>2011-03-21T18:24:50Z</time>
      </trkpt>
      <trkpt lat="37.1782131634" lon="-7.45353718452">
        <ele>14</ele>
        <time>2011-03-21T18:24:52Z</time>
      </trkpt>
      <trkpt lat="37.1782047815" lon="-7.45361413037">
        <ele>14</ele>
        <time>2011-03-21T18:24:54Z</time>
      </trkpt>
      <trkpt lat="37.1781976569" lon="-7.45368680144">
        <ele>14</ele>
        <time>2011-03-21T18:24:56Z</time>
      </trkpt>
      <trkpt lat="37.1781926278" lon="-7.45376341201">
        <ele>14</ele>
        <time>2011-03-21T18:24:58Z</time>
      </trkpt>
      <trkpt lat="37.1781844135" lon="-7.45383700509">
        <ele>14</ele>
        <time>2011-03-21T18:25:00Z</time>
      </trkpt>
      <trkpt lat="37.1781762831" lon="-7.45391193927">
        <ele>14</ele>
        <time>2011-03-21T18:25:02Z</time>
      </trkpt>
      <trkpt lat="37.1781671468" lon="-7.45398410743">
        <ele>14</ele>
        <time>2011-03-21T18:25:04Z</time>
      </trkpt>
      <trkpt lat="37.1781575076" lon="-7.45406239438">
        <ele>14</ele>
        <time>2011-03-21T18:25:06Z</time>
      </trkpt>
      <trkpt lat="37.1781461082" lon="-7.4541379153">
        <ele>14</ele>
        <time>2011-03-21T18:25:08Z</time>
      </trkpt>
      <trkpt lat="37.1781363014" lon="-7.45421150838">
        <ele>14</ele>
        <time>2011-03-21T18:25:10Z</time>
      </trkpt>
      <trkpt lat="37.1781254049" lon="-7.45428644257">
        <ele>14</ele>
        <time>2011-03-21T18:25:12Z</time>
      </trkpt>
      <trkpt lat="37.1781176936" lon="-7.45435953273">
        <ele>14</ele>
        <time>2011-03-21T18:25:14Z</time>
      </trkpt>
      <trkpt lat="37.1781122454" lon="-7.45443245526">
        <ele>14</ele>
        <time>2011-03-21T18:25:16Z</time>
      </trkpt>
      <trkpt lat="37.1781047855" lon="-7.45450680272">
        <ele>14</ele>
        <time>2011-03-21T18:25:18Z</time>
      </trkpt>
      <trkpt lat="37.1780935537" lon="-7.45457788123">
        <ele>14</ele>
        <time>2011-03-21T18:25:20Z</time>
      </trkpt>
      <trkpt lat="37.1780824896" lon="-7.4546456908">
        <ele>14</ele>
        <time>2011-03-21T18:25:22Z</time>
      </trkpt>
      <trkpt lat="37.1780708388" lon="-7.45471006379">
        <ele>14</ele>
        <time>2011-03-21T18:25:24Z</time>
      </trkpt>
      <trkpt lat="37.1780606967" lon="-7.45476597106">
        <ele>14</ele>
        <time>2011-03-21T18:25:26Z</time>
      </trkpt>
      <trkpt lat="37.1780456093" lon="-7.45483897741">
        <ele>14</ele>
        <time>2011-03-21T18:25:29Z</time>
      </trkpt>
      <trkpt lat="37.1780456093" lon="-7.45492514335">
        <ele>14</ele>
        <time>2011-03-21T18:25:32Z</time>
      </trkpt>
      <trkpt lat="37.1780417536" lon="-7.45499823351">
        <ele>14</ele>
        <time>2011-03-21T18:25:34Z</time>
      </trkpt>
      <trkpt lat="37.1780363053" lon="-7.45507367061">
        <ele>14</ele>
        <time>2011-03-21T18:25:36Z</time>
      </trkpt>
      <trkpt lat="37.1780293484" lon="-7.45514692842">
        <ele>14</ele>
        <time>2011-03-21T18:25:38Z</time>
      </trkpt>
      <trkpt lat="37.1780232296" lon="-7.45522018623">
        <ele>14</ele>
        <time>2011-03-21T18:25:40Z</time>
      </trkpt>
      <trkpt lat="37.1780139257" lon="-7.4552981379">
        <ele>14</ele>
        <time>2011-03-21T18:25:42Z</time>
      </trkpt>
      <trkpt lat="37.1780067172" lon="-7.45536904877">
        <ele>14</ele>
        <time>2011-03-21T18:25:44Z</time>
      </trkpt>
      <trkpt lat="37.1779984192" lon="-7.45544171984">
        <ele>14</ele>
        <time>2011-03-21T18:25:46Z</time>
      </trkpt>
      <trkpt lat="37.1779902887" lon="-7.45551841423">
        <ele>14</ele>
        <time>2011-03-21T18:25:48Z</time>
      </trkpt>
      <trkpt lat="37.1779824097" lon="-7.4555915044">
        <ele>14</ele>
        <time>2011-03-21T18:25:50Z</time>
      </trkpt>
      <trkpt lat="37.1779741955" lon="-7.45566669004">
        <ele>14</ele>
        <time>2011-03-21T18:25:52Z</time>
      </trkpt>
      <trkpt lat="37.1779658136" lon="-7.45574581517">
        <ele>14</ele>
        <time>2011-03-21T18:25:54Z</time>
      </trkpt>
      <trkpt lat="37.1779552524" lon="-7.4558204979">
        <ele>14</ele>
        <time>2011-03-21T18:25:56Z</time>
      </trkpt>
      <trkpt lat="37.1779460323" lon="-7.45589786284">
        <ele>14</ele>
        <time>2011-03-21T18:25:58Z</time>
      </trkpt>
      <trkpt lat="37.1779357225" lon="-7.45597648506">
        <ele>14</ele>
        <time>2011-03-21T18:26:00Z</time>
      </trkpt>
      <trkpt lat="37.1779255804" lon="-7.45605728658">
        <ele>14</ele>
        <time>2011-03-21T18:26:02Z</time>
      </trkpt>
      <trkpt lat="37.1779155222" lon="-7.4561345677">
        <ele>14</ele>
        <time>2011-03-21T18:26:04Z</time>
      </trkpt>
      <trkpt lat="37.1779068888" lon="-7.45621008862">
        <ele>14</ele>
        <time>2011-03-21T18:26:06Z</time>
      </trkpt>
      <trkpt lat="37.1778995966" lon="-7.45628334642">
        <ele>14</ele>
        <time>2011-03-21T18:26:08Z</time>
      </trkpt>
      <trkpt lat="37.177891047" lon="-7.45635819679">
        <ele>14</ele>
        <time>2011-03-21T18:26:10Z</time>
      </trkpt>
      <trkpt lat="37.1778862693" lon="-7.4564345559">
        <ele>14</ele>
        <time>2011-03-21T18:26:12Z</time>
      </trkpt>
      <trkpt lat="37.1778975849" lon="-7.45650714315">
        <ele>14</ele>
        <time>2011-03-21T18:26:14Z</time>
      </trkpt>
      <trkpt lat="37.1779239879" lon="-7.45656807956">
        <ele>14</ele>
        <time>2011-03-21T18:26:16Z</time>
      </trkpt>
      <trkpt lat="37.1779548333" lon="-7.45663362602">
        <ele>14</ele>
        <time>2011-03-21T18:26:18Z</time>
      </trkpt>
      <trkpt lat="37.1779990897" lon="-7.45668643199">
        <ele>14</ele>
        <time>2011-03-21T18:26:20Z</time>
      </trkpt>
      <trkpt lat="37.1780611158" lon="-7.45672993405">
        <ele>14</ele>
        <time>2011-03-21T18:26:22Z</time>
      </trkpt>
      <trkpt lat="37.1781192862" lon="-7.45676270728">
        <ele>14</ele>
        <time>2011-03-21T18:26:24Z</time>
      </trkpt>
      <trkpt lat="37.1781715892" lon="-7.45679799508">
        <ele>14</ele>
        <time>2011-03-21T18:26:26Z</time>
      </trkpt>
      <trkpt lat="37.1782233055" lon="-7.45683973694">
        <ele>14</ele>
        <time>2011-03-21T18:26:28Z</time>
      </trkpt>
      <trkpt lat="37.1782555758" lon="-7.45689463839">
        <ele>14</ele>
        <time>2011-03-21T18:26:30Z</time>
      </trkpt>
      <trkpt lat="37.178276363" lon="-7.45696186123">
        <ele>14</ele>
        <time>2011-03-21T18:26:32Z</time>
      </trkpt>
      <trkpt lat="37.1782856669" lon="-7.45706403659">
        <ele>14</ele>
        <time>2011-03-21T18:26:35Z</time>
      </trkpt>
      <trkpt lat="37.1783056996" lon="-7.45717375566">
        <ele>14</ele>
        <time>2011-03-21T18:26:38Z</time>
      </trkpt>
      <trkpt lat="37.1783435858" lon="-7.45722672927">
        <ele>14</ele>
        <time>2011-03-21T18:26:40Z</time>
      </trkpt>
      <trkpt lat="37.1783565777" lon="-7.45729688577">
        <ele>14</ele>
        <time>2011-03-21T18:26:42Z</time>
      </trkpt>
      <trkpt lat="37.1783599305" lon="-7.45733443668">
        <ele>14</ele>
        <time>2011-03-21T18:26:43Z</time>
      </trkpt>
      <trkpt lat="37.1783775325" lon="-7.45740224625">
        <ele>14</ele>
        <time>2011-03-21T18:26:45Z</time>
      </trkpt>
      <trkpt lat="37.1784005827" lon="-7.45747072637">
        <ele>14</ele>
        <time>2011-03-21T18:26:47Z</time>
      </trkpt>
      <trkpt lat="37.1784248064" lon="-7.45753593756">
        <ele>14</ele>
        <time>2011-03-21T18:26:49Z</time>
      </trkpt>
      <trkpt lat="37.1784341103" lon="-7.45756795642">
        <ele>14</ele>
        <time>2011-03-21T18:26:50Z</time>
      </trkpt>
      <trkpt lat="37.1784397262" lon="-7.4576031604">
        <ele>14</ele>
        <time>2011-03-21T18:26:51Z</time>
      </trkpt>
      <trkpt lat="37.1784376307" lon="-7.45767725639">
        <ele>14</ele>
        <time>2011-03-21T18:26:53Z</time>
      </trkpt>
      <trkpt lat="37.1784307576" lon="-7.45774808345">
        <ele>14.2</ele>
        <time>2011-03-21T18:26:55Z</time>
      </trkpt>
      <trkpt lat="37.1784186876" lon="-7.45782452637">
        <ele>14.6</ele>
        <time>2011-03-21T18:26:57Z</time>
      </trkpt>
      <trkpt lat="37.1784089646" lon="-7.45790298096">
        <ele>14.8</ele>
        <time>2011-03-21T18:26:59Z</time>
      </trkpt>
      <trkpt lat="37.1784008342" lon="-7.45798210609">
        <ele>15</ele>
        <time>2011-03-21T18:27:01Z</time>
      </trkpt>
      <trkpt lat="37.1783947992" lon="-7.45805729174">
        <ele>15.2</ele>
        <time>2011-03-21T18:27:03Z</time>
      </trkpt>
      <trkpt lat="37.1783855791" lon="-7.45813331557">
        <ele>15.4</ele>
        <time>2011-03-21T18:27:05Z</time>
      </trkpt>
      <trkpt lat="37.1783757723" lon="-7.4582110996">
        <ele>15.6</ele>
        <time>2011-03-21T18:27:07Z</time>
      </trkpt>
      <trkpt lat="37.1783695697" lon="-7.45828117229">
        <ele>15.6</ele>
        <time>2011-03-21T18:27:09Z</time>
      </trkpt>
      <trkpt lat="37.178371749" lon="-7.45834940095">
        <ele>15.8</ele>
        <time>2011-03-21T18:27:11Z</time>
      </trkpt>
      <trkpt lat="37.1783852438" lon="-7.45842173675">
        <ele>15.8</ele>
        <time>2011-03-21T18:27:13Z</time>
      </trkpt>
      <trkpt lat="37.1784053604" lon="-7.45849063597">
        <ele>15.8</ele>
        <time>2011-03-21T18:27:15Z</time>
      </trkpt>
      <trkpt lat="37.1784139938" lon="-7.45852575613">
        <ele>15.8</ele>
        <time>2011-03-21T18:27:16Z</time>
      </trkpt>
      <trkpt lat="37.1784649557" lon="-7.45861628065">
        <ele>16.4</ele>
        <time>2011-03-21T18:27:19Z</time>
      </trkpt>
      <trkpt lat="37.1785061947" lon="-7.45866355456">
        <ele>16.8</ele>
        <time>2011-03-21T18:27:21Z</time>
      </trkpt>
      <trkpt lat="37.1785605932" lon="-7.45870261422">
        <ele>17</ele>
        <time>2011-03-21T18:27:23Z</time>
      </trkpt>
      <trkpt lat="37.1786178416" lon="-7.45874242824">
        <ele>17.2</ele>
        <time>2011-03-21T18:27:25Z</time>
      </trkpt>
      <trkpt lat="37.1786762634" lon="-7.4587744471">
        <ele>17.4</ele>
        <time>2011-03-21T18:27:27Z</time>
      </trkpt>
      <trkpt lat="37.178735272" lon="-7.45879087563">
        <ele>17.4</ele>
        <time>2011-03-21T18:27:29Z</time>
      </trkpt>
      <trkpt lat="37.1787902572" lon="-7.45879489894">
        <ele>17.6</ele>
        <time>2011-03-21T18:27:31Z</time>
      </trkpt>
      <trkpt lat="37.1788374473" lon="-7.45879422838">
        <ele>17.6</ele>
        <time>2011-03-21T18:27:33Z</time>
      </trkpt>
      <trkpt lat="37.1788929355" lon="-7.45879347401">
        <ele>17.8</ele>
        <time>2011-03-21T18:27:36Z</time>
      </trkpt>
      <trkpt lat="37.1788498526" lon="-7.45889020114">
        <ele>17.8</ele>
        <time>2011-03-21T18:27:40Z</time>
      </trkpt>
      <trkpt lat="37.178801489" lon="-7.45894929354">
        <ele>17.8</ele>
        <time>2011-03-21T18:27:42Z</time>
      </trkpt>
      <trkpt lat="37.1787563944" lon="-7.4590038597">
        <ele>18</ele>
        <time>2011-03-21T18:27:44Z</time>
      </trkpt>
      <trkpt lat="37.1787149878" lon="-7.45906948998">
        <ele>18</ele>
        <time>2011-03-21T18:27:46Z</time>
      </trkpt>
      <trkpt lat="37.1786823822" lon="-7.45913872448">
        <ele>18</ele>
        <time>2011-03-21T18:27:48Z</time>
      </trkpt>
      <trkpt lat="37.1786563983" lon="-7.45921047354">
        <ele>18</ele>
        <time>2011-03-21T18:27:50Z</time>
      </trkpt>
      <trkpt lat="37.1786274807" lon="-7.45928130059">
        <ele>18</ele>
        <time>2011-03-21T18:27:52Z</time>
      </trkpt>
      <trkpt lat="37.1786035085" lon="-7.45935313348">
        <ele>18</ele>
        <time>2011-03-21T18:27:54Z</time>
      </trkpt>
      <trkpt lat="37.1785848169" lon="-7.45942697802">
        <ele>18</ele>
        <time>2011-03-21T18:27:56Z</time>
      </trkpt>
      <trkpt lat="37.1785681369" lon="-7.45949579342">
        <ele>18</ele>
        <time>2011-03-21T18:27:58Z</time>
      </trkpt>
      <trkpt lat="37.1785513731" lon="-7.45956460881">
        <ele>18</ele>
        <time>2011-03-21T18:28:00Z</time>
      </trkpt>
      <trkpt lat="37.1785367886" lon="-7.45963367567">
        <ele>18</ele>
        <time>2011-03-21T18:28:02Z</time>
      </trkpt>
      <trkpt lat="37.1785212821" lon="-7.45970249107">
        <ele>18</ele>
        <time>2011-03-21T18:28:04Z</time>
      </trkpt>
      <trkpt lat="37.1785054403" lon="-7.45977214466">
        <ele>18</ele>
        <time>2011-03-21T18:28:06Z</time>
      </trkpt>
      <trkpt lat="37.1784879221" lon="-7.45984003805">
        <ele>18</ele>
        <time>2011-03-21T18:28:08Z</time>
      </trkpt>
      <trkpt lat="37.1784678056" lon="-7.45991446932">
        <ele>18</ele>
        <time>2011-03-21T18:28:10Z</time>
      </trkpt>
      <trkpt lat="37.1784471023" lon="-7.45998931969">
        <ele>18</ele>
        <time>2011-03-21T18:28:12Z</time>
      </trkpt>
      <trkpt lat="37.1784274886" lon="-7.46006375096">
        <ele>18</ele>
        <time>2011-03-21T18:28:14Z</time>
      </trkpt>
      <trkpt lat="37.1784114792" lon="-7.46014044534">
        <ele>18</ele>
        <time>2011-03-21T18:28:16Z</time>
      </trkpt>
      <trkpt lat="37.178396727" lon="-7.46021537953">
        <ele>18</ele>
        <time>2011-03-21T18:28:18Z</time>
      </trkpt>
      <trkpt lat="37.1783819749" lon="-7.4602898108">
        <ele>18</ele>
        <time>2011-03-21T18:28:20Z</time>
      </trkpt>
      <trkpt lat="37.1783664684" lon="-7.46036658901">
        <ele>18</ele>
        <time>2011-03-21T18:28:22Z</time>
      </trkpt>
      <trkpt lat="37.1783461004" lon="-7.46044630088">
        <ele>18</ele>
        <time>2011-03-21T18:28:24Z</time>
      </trkpt>
      <trkpt lat="37.178327744" lon="-7.46052408491">
        <ele>18</ele>
        <time>2011-03-21T18:28:26Z</time>
      </trkpt>
      <trkpt lat="37.1783084656" lon="-7.46060304241">
        <ele>18</ele>
        <time>2011-03-21T18:28:28Z</time>
      </trkpt>
      <trkpt lat="37.1782922047" lon="-7.46067780895">
        <ele>18</ele>
        <time>2011-03-21T18:28:30Z</time>
      </trkpt>
      <trkpt lat="37.1782751057" lon="-7.46074964184">
        <ele>18</ele>
        <time>2011-03-21T18:28:32Z</time>
      </trkpt>
      <trkpt lat="37.1782609403" lon="-7.46081837342">
        <ele>18</ele>
        <time>2011-03-21T18:28:34Z</time>
      </trkpt>
      <trkpt lat="37.1782487865" lon="-7.46089070921">
        <ele>18</ele>
        <time>2011-03-21T18:28:36Z</time>
      </trkpt>
      <trkpt lat="37.1782409913" lon="-7.46096371556">
        <ele>18</ele>
        <time>2011-03-21T18:28:38Z</time>
      </trkpt>
      <trkpt lat="37.1782372195" lon="-7.46104133196">
        <ele>18</ele>
        <time>2011-03-21T18:28:40Z</time>
      </trkpt>
      <trkpt lat="37.1782259039" lon="-7.46111928363">
        <ele>18</ele>
        <time>2011-03-21T18:28:42Z</time>
      </trkpt>
      <trkpt lat="37.1782160971" lon="-7.46119832494">
        <ele>18</ele>
        <time>2011-03-21T18:28:44Z</time>
      </trkpt>
      <trkpt lat="37.1782124929" lon="-7.46127250476">
        <ele>18</ele>
        <time>2011-03-21T18:28:46Z</time>
      </trkpt>
      <trkpt lat="37.1782132473" lon="-7.46134375091">
        <ele>18</ele>
        <time>2011-03-21T18:28:48Z</time>
      </trkpt>
      <trkpt lat="37.1782116547" lon="-7.46141575143">
        <ele>18</ele>
        <time>2011-03-21T18:28:50Z</time>
      </trkpt>
      <trkpt lat="37.1782061226" lon="-7.46149093707">
        <ele>18</ele>
        <time>2011-03-21T18:28:52Z</time>
      </trkpt>
      <trkpt lat="37.178198076" lon="-7.4615677991">
        <ele>18</ele>
        <time>2011-03-21T18:28:54Z</time>
      </trkpt>
      <trkpt lat="37.1781835753" lon="-7.46163292646">
        <ele>18</ele>
        <time>2011-03-21T18:28:56Z</time>
      </trkpt>
      <trkpt lat="37.1781694099" lon="-7.46170727391">
        <ele>18</ele>
        <time>2011-03-21T18:28:58Z</time>
      </trkpt>
      <trkpt lat="37.1781647999" lon="-7.46178287865">
        <ele>18</ele>
        <time>2011-03-21T18:29:00Z</time>
      </trkpt>
      <trkpt lat="37.178161028" lon="-7.46185605264">
        <ele>18</ele>
        <time>2011-03-21T18:29:02Z</time>
      </trkpt>
      <trkpt lat="37.1781554121" lon="-7.46193677033">
        <ele>18</ele>
        <time>2011-03-21T18:29:04Z</time>
      </trkpt>
      <trkpt lat="37.1781533167" lon="-7.46201732039">
        <ele>18</ele>
        <time>2011-03-21T18:29:06Z</time>
      </trkpt>
      <trkpt lat="37.1781533167" lon="-7.46209468533">
        <ele>18</ele>
        <time>2011-03-21T18:29:08Z</time>
      </trkpt>
      <trkpt lat="37.1781528138" lon="-7.46216584766">
        <ele>18</ele>
        <time>2011-03-21T18:29:10Z</time>
      </trkpt>
      <trkpt lat="37.1781574238" lon="-7.4622392731">
        <ele>18</ele>
        <time>2011-03-21T18:29:12Z</time>
      </trkpt>
      <trkpt lat="37.1781609442" lon="-7.4623164704">
        <ele>18</ele>
        <time>2011-03-21T18:29:14Z</time>
      </trkpt>
      <trkpt lat="37.1781668953" lon="-7.4623892253">
        <ele>18</ele>
        <time>2011-03-21T18:29:16Z</time>
      </trkpt>
      <trkpt lat="37.1781742714" lon="-7.46246843425">
        <ele>18</ele>
        <time>2011-03-21T18:29:18Z</time>
      </trkpt>
      <trkpt lat="37.1781830724" lon="-7.46254194351">
        <ele>18</ele>
        <time>2011-03-21T18:29:20Z</time>
      </trkpt>
      <trkpt lat="37.1781914543" lon="-7.46261981136">
        <ele>18</ele>
        <time>2011-03-21T18:29:22Z</time>
      </trkpt>
      <trkpt lat="37.17819992" lon="-7.46269902032">
        <ele>18</ele>
        <time>2011-03-21T18:29:24Z</time>
      </trkpt>
      <trkpt lat="37.1782035242" lon="-7.46278107912">
        <ele>18</ele>
        <time>2011-03-21T18:29:26Z</time>
      </trkpt>
      <trkpt lat="37.1782107327" lon="-7.46284922397">
        <ele>18</ele>
        <time>2011-03-21T18:29:28Z</time>
      </trkpt>
      <trkpt lat="37.1782176058" lon="-7.46292239795">
        <ele>18</ele>
        <time>2011-03-21T18:29:30Z</time>
      </trkpt>
      <trkpt lat="37.1782212939" lon="-7.46299590722">
        <ele>18</ele>
        <time>2011-03-21T18:29:32Z</time>
      </trkpt>
      <trkpt lat="37.1782310169" lon="-7.46307000321">
        <ele>18</ele>
        <time>2011-03-21T18:29:34Z</time>
      </trkpt>
      <trkpt lat="37.1782407399" lon="-7.463150218">
        <ele>18</ele>
        <time>2011-03-21T18:29:36Z</time>
      </trkpt>
      <trkpt lat="37.178255492" lon="-7.46322573892">
        <ele>18</ele>
        <time>2011-03-21T18:29:38Z</time>
      </trkpt>
      <trkpt lat="37.1782678134" lon="-7.46329614688">
        <ele>18</ele>
        <time>2011-03-21T18:29:40Z</time>
      </trkpt>
      <trkpt lat="37.178278207" lon="-7.46336496227">
        <ele>18</ele>
        <time>2011-03-21T18:29:42Z</time>
      </trkpt>
      <trkpt lat="37.1782863374" lon="-7.46343486732">
        <ele>18</ele>
        <time>2011-03-21T18:29:44Z</time>
      </trkpt>
      <trkpt lat="37.1782956413" lon="-7.46350946623">
        <ele>18</ele>
        <time>2011-03-21T18:29:46Z</time>
      </trkpt>
      <trkpt lat="37.1783069569" lon="-7.46358657971">
        <ele>18</ele>
        <time>2011-03-21T18:29:48Z</time>
      </trkpt>
      <trkpt lat="37.1783173504" lon="-7.46365397019">
        <ele>18</ele>
        <time>2011-03-21T18:29:50Z</time>
      </trkpt>
      <trkpt lat="37.178331432" lon="-7.46372789854">
        <ele>18</ele>
        <time>2011-03-21T18:29:52Z</time>
      </trkpt>
      <trkpt lat="37.1783387243" lon="-7.46379947997">
        <ele>18</ele>
        <time>2011-03-21T18:29:54Z</time>
      </trkpt>
      <trkpt lat="37.1783455975" lon="-7.46387156431">
        <ele>18</ele>
        <time>2011-03-21T18:29:56Z</time>
      </trkpt>
      <trkpt lat="37.1783506266" lon="-7.46394733669">
        <ele>18</ele>
        <time>2011-03-21T18:29:58Z</time>
      </trkpt>
      <trkpt lat="37.1783486149" lon="-7.46403216151">
        <ele>18</ele>
        <time>2011-03-21T18:30:00Z</time>
      </trkpt>
      <trkpt lat="37.1783538117" lon="-7.46410173128">
        <ele>18</ele>
        <time>2011-03-21T18:30:02Z</time>
      </trkpt>
      <trkpt lat="37.1783610201" lon="-7.46416962467">
        <ele>18</ele>
        <time>2011-03-21T18:30:04Z</time>
      </trkpt>
      <trkpt lat="37.1783646244" lon="-7.46424615142">
        <ele>18</ele>
        <time>2011-03-21T18:30:06Z</time>
      </trkpt>
      <trkpt lat="37.1783688153" lon="-7.4643232649">
        <ele>18</ele>
        <time>2011-03-21T18:30:08Z</time>
      </trkpt>
      <trkpt lat="37.1783739283" lon="-7.46440347968">
        <ele>18</ele>
        <time>2011-03-21T18:30:10Z</time>
      </trkpt>
      <trkpt lat="37.1783819749" lon="-7.46447958734">
        <ele>18</ele>
        <time>2011-03-21T18:30:12Z</time>
      </trkpt>
      <trkpt lat="37.1783804662" lon="-7.46451353403">
        <ele>18</ele>
        <time>2011-03-21T18:30:13Z</time>
      </trkpt>
      <trkpt lat="37.1783802985" lon="-7.46459022842">
        <ele>18</ele>
        <time>2011-03-21T18:30:15Z</time>
      </trkpt>
      <trkpt lat="37.1783905244" lon="-7.46467631053">
        <ele>18</ele>
        <time>2011-03-21T18:30:17Z</time>
      </trkpt>
      <trkpt lat="37.1783926199" lon="-7.46471863912">
        <ele>18</ele>
        <time>2011-03-21T18:30:18Z</time>
      </trkpt>
      <trkpt lat="37.1784002474" lon="-7.46479466296">
        <ele>18</ele>
        <time>2011-03-21T18:30:20Z</time>
      </trkpt>
      <trkpt lat="37.1784058633" lon="-7.46487144116">
        <ele>18</ele>
        <time>2011-03-21T18:30:22Z</time>
      </trkpt>
      <trkpt lat="37.1784123174" lon="-7.46494444751">
        <ele>18</ele>
        <time>2011-03-21T18:30:24Z</time>
      </trkpt>
      <trkpt lat="37.1784195258" lon="-7.46501175417">
        <ele>18</ele>
        <time>2011-03-21T18:30:26Z</time>
      </trkpt>
      <trkpt lat="37.1784310928" lon="-7.4650807372">
        <ele>18</ele>
        <time>2011-03-21T18:30:28Z</time>
      </trkpt>
      <trkpt lat="37.1784326016" lon="-7.46514737331">
        <ele>18</ele>
        <time>2011-03-21T18:30:30Z</time>
      </trkpt>
      <trkpt lat="37.178420364" lon="-7.4651614549">
        <ele>18</ele>
        <time>2011-03-21T18:30:31Z</time>
      </trkpt>
      <trkpt lat="37.178376359" lon="-7.4651517319">
        <ele>18</ele>
        <time>2011-03-21T18:30:33Z</time>
      </trkpt>
      <trkpt lat="37.1783467709" lon="-7.46514368527">
        <ele>18</ele>
        <time>2011-03-21T18:30:34Z</time>
      </trkpt>
      <trkpt lat="37.1782869242" lon="-7.46512926841">
        <ele>18</ele>
        <time>2011-03-21T18:30:36Z</time>
      </trkpt>
      <trkpt lat="37.1782046139" lon="-7.46513664448">
        <ele>18</ele>
        <time>2011-03-21T18:30:39Z</time>
      </trkpt>
      <trkpt lat="37.1781451862" lon="-7.46514226035">
        <ele>18</ele>
        <time>2011-03-21T18:30:41Z</time>
      </trkpt>
      <trkpt lat="37.1781183641" lon="-7.46514896587">
        <ele>18</ele>
        <time>2011-03-21T18:30:42Z</time>
      </trkpt>
      <trkpt lat="37.1780453578" lon="-7.46523471271">
        <ele>18</ele>
        <time>2011-03-21T18:30:46Z</time>
      </trkpt>
      <trkpt lat="37.1780271691" lon="-7.46526488755">
        <ele>18</ele>
        <time>2011-03-21T18:30:47Z</time>
      </trkpt>
      <trkpt lat="37.17798878" lon="-7.46533118838">
        <ele>18</ele>
        <time>2011-03-21T18:30:49Z</time>
      </trkpt>
      <trkpt lat="37.177959108" lon="-7.46539941704">
        <ele>18</ele>
        <time>2011-03-21T18:30:51Z</time>
      </trkpt>
      <trkpt lat="37.1779277597" lon="-7.46545926381">
        <ele>18</ele>
        <time>2011-03-21T18:30:53Z</time>
      </trkpt>
      <trkpt lat="37.1778991775" lon="-7.46551542254">
        <ele>18</ele>
        <time>2011-03-21T18:30:55Z</time>
      </trkpt>
      <trkpt lat="37.1778755405" lon="-7.46557510167">
        <ele>18</ele>
        <time>2011-03-21T18:30:57Z</time>
      </trkpt>
      <trkpt lat="37.1778398336" lon="-7.46563369115">
        <ele>18</ele>
        <time>2011-03-21T18:30:59Z</time>
      </trkpt>
      <trkpt lat="37.1777918891" lon="-7.46567694175">
        <ele>18</ele>
        <time>2011-03-21T18:31:01Z</time>
      </trkpt>
      <trkpt lat="37.1777368201" lon="-7.46572555677">
        <ele>18</ele>
        <time>2011-03-21T18:31:03Z</time>
      </trkpt>
      <trkpt lat="37.1776941562" lon="-7.46579839548">
        <ele>18</ele>
        <time>2011-03-21T18:31:05Z</time>
      </trkpt>
      <trkpt lat="37.1776773924" lon="-7.46588883618">
        <ele>18</ele>
        <time>2011-03-21T18:31:07Z</time>
      </trkpt>
      <trkpt lat="37.1776759675" lon="-7.46597231991">
        <ele>18</ele>
        <time>2011-03-21T18:31:09Z</time>
      </trkpt>
      <trkpt lat="37.1776841817" lon="-7.46605689328">
        <ele>18</ele>
        <time>2011-03-21T18:31:11Z</time>
      </trkpt>
      <trkpt lat="37.1776959164" lon="-7.46613249802">
        <ele>18</ele>
        <time>2011-03-21T18:31:13Z</time>
      </trkpt>
      <trkpt lat="37.1777051365" lon="-7.46621112024">
        <ele>18</ele>
        <time>2011-03-21T18:31:15Z</time>
      </trkpt>
      <trkpt lat="37.1777136022" lon="-7.46630080657">
        <ele>18</ele>
        <time>2011-03-21T18:31:17Z</time>
      </trkpt>
      <trkpt lat="37.1777147757" lon="-7.46638747541">
        <ele>18</ele>
        <time>2011-03-21T18:31:19Z</time>
      </trkpt>
      <trkpt lat="37.1777198048" lon="-7.46647230024">
        <ele>18</ele>
        <time>2011-03-21T18:31:21Z</time>
      </trkpt>
      <trkpt lat="37.1777248339" lon="-7.46655477814">
        <ele>18</ele>
        <time>2011-03-21T18:31:23Z</time>
      </trkpt>
      <trkpt lat="37.1777237443" lon="-7.46662443173">
        <ele>18</ele>
        <time>2011-03-21T18:31:25Z</time>
      </trkpt>
      <trkpt lat="37.1777134346" lon="-7.46669458823">
        <ele>18</ele>
        <time>2011-03-21T18:31:27Z</time>
      </trkpt>
      <trkpt lat="37.1777009455" lon="-7.46677765286">
        <ele>18</ele>
        <time>2011-03-21T18:31:29Z</time>
      </trkpt>
      <trkpt lat="37.1776873668" lon="-7.46685878965">
        <ele>18</ele>
        <time>2011-03-21T18:31:31Z</time>
      </trkpt>
      <trkpt lat="37.1776810804" lon="-7.46693447821">
        <ele>18</ele>
        <time>2011-03-21T18:31:33Z</time>
      </trkpt>
      <trkpt lat="37.1776653224" lon="-7.46700429944">
        <ele>18</ele>
        <time>2011-03-21T18:31:35Z</time>
      </trkpt>
      <trkpt lat="37.1776463794" lon="-7.46707646759">
        <ele>18</ele>
        <time>2011-03-21T18:31:37Z</time>
      </trkpt>
      <trkpt lat="37.177630789" lon="-7.46715006068">
        <ele>18</ele>
        <time>2011-03-21T18:31:39Z</time>
      </trkpt>
      <trkpt lat="37.1776146958" lon="-7.46722834762">
        <ele>18</ele>
        <time>2011-03-21T18:31:41Z</time>
      </trkpt>
      <trkpt lat="37.1775962556" lon="-7.4673076404">
        <ele>18</ele>
        <time>2011-03-21T18:31:43Z</time>
      </trkpt>
      <trkpt lat="37.1775823416" lon="-7.46738433478">
        <ele>18</ele>
        <time>2011-03-21T18:31:45Z</time>
      </trkpt>
      <trkpt lat="37.1775781507" lon="-7.46747016544">
        <ele>18</ele>
        <time>2011-03-21T18:31:47Z</time>
      </trkpt>
      <trkpt lat="37.1775846886" lon="-7.46755373298">
        <ele>18</ele>
        <time>2011-03-21T18:31:49Z</time>
      </trkpt>
      <trkpt lat="37.1776089961" lon="-7.46762120728">
        <ele>18</ele>
        <time>2011-03-21T18:31:51Z</time>
      </trkpt>
      <trkpt lat="37.1776343094" lon="-7.46768935212">
        <ele>18</ele>
        <time>2011-03-21T18:31:53Z</time>
      </trkpt>
      <trkpt lat="37.1776507379" lon="-7.46776101737">
        <ele>18</ele>
        <time>2011-03-21T18:31:55Z</time>
      </trkpt>
      <trkpt lat="37.1776530011" lon="-7.46783653829">
        <ele>18</ele>
        <time>2011-03-21T18:31:57Z</time>
      </trkpt>
      <trkpt lat="37.1776385842" lon="-7.46786344419">
        <ele>18</ele>
        <time>2011-03-21T18:31:58Z</time>
      </trkpt>
      <trkpt lat="37.1775993569" lon="-7.46791893236">
        <ele>18</ele>
        <time>2011-03-21T18:32:00Z</time>
      </trkpt>
      <trkpt lat="37.1775613869" lon="-7.46798473028">
        <ele>18</ele>
        <time>2011-03-21T18:32:02Z</time>
      </trkpt>
      <trkpt lat="37.1775290328" lon="-7.46805681462">
        <ele>18</ele>
        <time>2011-03-21T18:32:04Z</time>
      </trkpt>
      <trkpt lat="37.1775146159" lon="-7.46813485011">
        <ele>18</ele>
        <time>2011-03-21T18:32:06Z</time>
      </trkpt>
      <trkpt lat="37.1775252609" lon="-7.4681692159">
        <ele>18</ele>
        <time>2011-03-21T18:32:07Z</time>
      </trkpt>
      <trkpt lat="37.1775815873" lon="-7.46821213123">
        <ele>17.6</ele>
        <time>2011-03-21T18:32:09Z</time>
      </trkpt>
      <trkpt lat="37.1776356505" lon="-7.46826024333">
        <ele>17.4</ele>
        <time>2011-03-21T18:32:11Z</time>
      </trkpt>
      <trkpt lat="37.1776611315" lon="-7.46828882561">
        <ele>17.2</ele>
        <time>2011-03-21T18:32:12Z</time>
      </trkpt>
      <trkpt lat="37.1777268456" lon="-7.46836250251">
        <ele>16.8</ele>
        <time>2011-03-21T18:32:15Z</time>
      </trkpt>
      <trkpt lat="37.1777723593" lon="-7.4684074295">
        <ele>16.8</ele>
        <time>2011-03-21T18:32:17Z</time>
      </trkpt>
      <trkpt lat="37.1778120895" lon="-7.46845235648">
        <ele>16.6</ele>
        <time>2011-03-21T18:32:19Z</time>
      </trkpt>
      <trkpt lat="37.1778264226" lon="-7.46847725072">
        <ele>16.6</ele>
        <time>2011-03-21T18:32:20Z</time>
      </trkpt>
      <trkpt lat="37.1778492213" lon="-7.4685424619">
        <ele>16.4</ele>
        <time>2011-03-21T18:32:22Z</time>
      </trkpt>
      <trkpt lat="37.1778791447" lon="-7.46860733781">
        <ele>16.4</ele>
        <time>2011-03-21T18:32:24Z</time>
      </trkpt>
      <trkpt lat="37.1779168633" lon="-7.46865704248">
        <ele>16.2</ele>
        <time>2011-03-21T18:32:26Z</time>
      </trkpt>
      <trkpt lat="37.1779871036" lon="-7.46869937107">
        <ele>16.2</ele>
        <time>2011-03-21T18:32:29Z</time>
      </trkpt>
      <trkpt lat="37.1780427594" lon="-7.46872870772">
        <ele>16.2</ele>
        <time>2011-03-21T18:32:31Z</time>
      </trkpt>
      <trkpt lat="37.1780969065" lon="-7.46873893364">
        <ele>16.2</ele>
        <time>2011-03-21T18:32:33Z</time>
      </trkpt>
      <trkpt lat="37.1781521432" lon="-7.46873306631">
        <ele>16.2</ele>
        <time>2011-03-21T18:32:35Z</time>
      </trkpt>
      <trkpt lat="37.1782113194" lon="-7.46871001609">
        <ele>16.2</ele>
        <time>2011-03-21T18:32:37Z</time>
      </trkpt>
      <trkpt lat="37.1782542347" lon="-7.46867598557">
        <ele>16</ele>
        <time>2011-03-21T18:32:39Z</time>
      </trkpt>
      <trkpt lat="37.1782736808" lon="-7.46865679102">
        <ele>16</ele>
        <time>2011-03-21T18:32:40Z</time>
      </trkpt>
      <trkpt lat="37.1783590923" lon="-7.46864329616">
        <ele>16</ele>
        <time>2011-03-21T18:32:43Z</time>
      </trkpt>
      <trkpt lat="37.1784250579" lon="-7.46865788067">
        <ele>16</ele>
        <time>2011-03-21T18:32:45Z</time>
      </trkpt>
      <trkpt lat="37.1784609324" lon="-7.46866223925">
        <ele>16</ele>
        <time>2011-03-21T18:32:46Z</time>
      </trkpt>
      <trkpt lat="37.1785224555" lon="-7.46867573411">
        <ele>16</ele>
        <time>2011-03-21T18:32:48Z</time>
      </trkpt>
      <trkpt lat="37.1785761835" lon="-7.468700796">
        <ele>16</ele>
        <time>2011-03-21T18:32:50Z</time>
      </trkpt>
      <trkpt lat="37.1786394669" lon="-7.46872476823">
        <ele>16</ele>
        <time>2011-03-21T18:32:52Z</time>
      </trkpt>
      <trkpt lat="37.1787006547" lon="-7.46871454231">
        <ele>16</ele>
        <time>2011-03-21T18:32:54Z</time>
      </trkpt>
      <trkpt lat="37.1787243755" lon="-7.46869434193">
        <ele>16</ele>
        <time>2011-03-21T18:32:55Z</time>
      </trkpt>
      <trkpt lat="37.1787600824" lon="-7.4686280411">
        <ele>16</ele>
        <time>2011-03-21T18:32:57Z</time>
      </trkpt>
      <trkpt lat="37.178791766" lon="-7.46855360983">
        <ele>16</ele>
        <time>2011-03-21T18:32:59Z</time>
      </trkpt>
      <trkpt lat="37.1788162411" lon="-7.46848295041">
        <ele>16</ele>
        <time>2011-03-21T18:33:01Z</time>
      </trkpt>
      <trkpt lat="37.1788217732" lon="-7.46844640533">
        <ele>16</ele>
        <time>2011-03-21T18:33:02Z</time>
      </trkpt>
      <trkpt lat="37.1788371959" lon="-7.46837993686">
        <ele>16</ele>
        <time>2011-03-21T18:33:04Z</time>
      </trkpt>
      <trkpt lat="37.1788671193" lon="-7.46831908427">
        <ele>16</ele>
        <time>2011-03-21T18:33:06Z</time>
      </trkpt>
      <trkpt lat="37.1789039996" lon="-7.46825663911">
        <ele>15.8</ele>
        <time>2011-03-21T18:33:08Z</time>
      </trkpt>
      <trkpt lat="37.1789481722" lon="-7.46821011957">
        <ele>15.4</ele>
        <time>2011-03-21T18:33:10Z</time>
      </trkpt>
      <trkpt lat="37.1790107012" lon="-7.46817810071">
        <ele>15.2</ele>
        <time>2011-03-21T18:33:12Z</time>
      </trkpt>
      <trkpt lat="37.1790338353" lon="-7.46817248484">
        <ele>15</ele>
        <time>2011-03-21T18:33:13Z</time>
      </trkpt>
      <trkpt lat="37.1790818635" lon="-7.46818447096">
        <ele>14.8</ele>
        <time>2011-03-21T18:33:15Z</time>
      </trkpt>
      <trkpt lat="37.1791436382" lon="-7.46818665025">
        <ele>14.8</ele>
        <time>2011-03-21T18:33:17Z</time>
      </trkpt>
      <trkpt lat="37.1791749026" lon="-7.46811439827">
        <ele>14.6</ele>
        <time>2011-03-21T18:33:19Z</time>
      </trkpt>
      <trkpt lat="37.1791744835" lon="-7.46803518932">
        <ele>14.2</ele>
        <time>2011-03-21T18:33:21Z</time>
      </trkpt>
      <trkpt lat="37.1791766628" lon="-7.46799604584">
        <ele>14</ele>
        <time>2011-03-21T18:33:22Z</time>
      </trkpt>
      <trkpt lat="37.1791764952" lon="-7.46791532815">
        <ele>13.6</ele>
        <time>2011-03-21T18:33:24Z</time>
      </trkpt>
      <trkpt lat="37.1791847933" lon="-7.46783854994">
        <ele>13.4</ele>
        <time>2011-03-21T18:33:26Z</time>
      </trkpt>
      <trkpt lat="37.1791911635" lon="-7.46775523386">
        <ele>13</ele>
        <time>2011-03-21T18:33:28Z</time>
      </trkpt>
      <trkpt lat="37.1791899901" lon="-7.46767325887">
        <ele>12.8</ele>
        <time>2011-03-21T18:33:30Z</time>
      </trkpt>
      <trkpt lat="37.1791940972" lon="-7.46758969133">
        <ele>12.6</ele>
        <time>2011-03-21T18:33:32Z</time>
      </trkpt>
      <trkpt lat="37.1791926723" lon="-7.46751257785">
        <ele>12.6</ele>
        <time>2011-03-21T18:33:34Z</time>
      </trkpt>
      <trkpt lat="37.1791940134" lon="-7.46743320126">
        <ele>12.4</ele>
        <time>2011-03-21T18:33:36Z</time>
      </trkpt>
      <trkpt lat="37.179192337" lon="-7.46735550105">
        <ele>12</ele>
        <time>2011-03-21T18:33:38Z</time>
      </trkpt>
      <trkpt lat="37.1791936781" lon="-7.46728836203">
        <ele>11.6</ele>
        <time>2011-03-21T18:33:40Z</time>
      </trkpt>
      <trkpt lat="37.1791924208" lon="-7.46718534848">
        <ele>11.2</ele>
        <time>2011-03-21T18:33:43Z</time>
      </trkpt>
      <trkpt lat="37.1791929237" lon="-7.46711225831">
        <ele>11</ele>
        <time>2011-03-21T18:33:45Z</time>
      </trkpt>
      <trkpt lat="37.1791944325" lon="-7.46704151507">
        <ele>10.8</ele>
        <time>2011-03-21T18:33:47Z</time>
      </trkpt>
      <trkpt lat="37.1791936781" lon="-7.46696624561">
        <ele>10.6</ele>
        <time>2011-03-21T18:33:49Z</time>
      </trkpt>
      <trkpt lat="37.1791822787" lon="-7.46689818458">
        <ele>10.6</ele>
        <time>2011-03-21T18:33:51Z</time>
      </trkpt>
      <trkpt lat="37.1791635871" lon="-7.4668678421">
        <ele>10.4</ele>
        <time>2011-03-21T18:33:52Z</time>
      </trkpt>
      <trkpt lat="37.1790735655" lon="-7.46683280576">
        <ele>10.4</ele>
        <time>2011-03-21T18:33:55Z</time>
      </trkpt>
      <trkpt lat="37.1790062588" lon="-7.46681478468">
        <ele>10.2</ele>
        <time>2011-03-21T18:33:57Z</time>
      </trkpt>
      <trkpt lat="37.1789418858" lon="-7.46679248882">
        <ele>10.2</ele>
        <time>2011-03-21T18:33:59Z</time>
      </trkpt>
      <trkpt lat="37.1788806979" lon="-7.46676298453">
        <ele>10.2</ele>
        <time>2011-03-21T18:34:01Z</time>
      </trkpt>
      <trkpt lat="37.1788305742" lon="-7.46672283523">
        <ele>10.2</ele>
        <time>2011-03-21T18:34:03Z</time>
      </trkpt>
      <trkpt lat="37.1787861501" lon="-7.46666256937">
        <ele>10</ele>
        <time>2011-03-21T18:34:05Z</time>
      </trkpt>
      <trkpt lat="37.1787595795" lon="-7.46659140704">
        <ele>10</ele>
        <time>2011-03-21T18:34:07Z</time>
      </trkpt>
      <trkpt lat="37.1787458332" lon="-7.46651630522">
        <ele>10</ele>
        <time>2011-03-21T18:34:09Z</time>
      </trkpt>
      <trkpt lat="37.1787364454" lon="-7.46643969465">
        <ele>10</ele>
        <time>2011-03-21T18:34:11Z</time>
      </trkpt>
      <trkpt lat="37.1787214418" lon="-7.46636417373">
        <ele>10</ele>
        <time>2011-03-21T18:34:13Z</time>
      </trkpt>
      <trkpt lat="37.1787106292" lon="-7.46630239913">
        <ele>10</ele>
        <time>2011-03-21T18:34:15Z</time>
      </trkpt>
      <trkpt lat="37.1786988107" lon="-7.4662347572">
        <ele>10</ele>
        <time>2011-03-21T18:34:17Z</time>
      </trkpt>
      <trkpt lat="37.1786851482" lon="-7.46617055184">
        <ele>10</ele>
        <time>2011-03-21T18:34:19Z</time>
      </trkpt>
      <trkpt lat="37.1786697255" lon="-7.46609561766">
        <ele>10</ele>
        <time>2011-03-21T18:34:21Z</time>
      </trkpt>
      <trkpt lat="37.1786556439" lon="-7.46602219221">
        <ele>10</ele>
        <time>2011-03-21T18:34:23Z</time>
      </trkpt>
      <trkpt lat="37.1786424844" lon="-7.46594851531">
        <ele>10</ele>
        <time>2011-03-21T18:34:25Z</time>
      </trkpt>
      <trkpt lat="37.1786432387" lon="-7.46586804907">
        <ele>10</ele>
        <time>2011-03-21T18:34:27Z</time>
      </trkpt>
      <trkpt lat="37.1786354436" lon="-7.46579001358">
        <ele>10</ele>
        <time>2011-03-21T18:34:29Z</time>
      </trkpt>
      <trkpt lat="37.1786168357" lon="-7.46571675578">
        <ele>10</ele>
        <time>2011-03-21T18:34:31Z</time>
      </trkpt>
      <trkpt lat="37.1786113875" lon="-7.46565146078">
        <ele>10</ele>
        <time>2011-03-21T18:34:33Z</time>
      </trkpt>
      <trkpt lat="37.1786027541" lon="-7.46558784215">
        <ele>10</ele>
        <time>2011-03-21T18:34:35Z</time>
      </trkpt>
      <trkpt lat="37.1785876667" lon="-7.46551005812">
        <ele>10</ele>
        <time>2011-03-21T18:34:37Z</time>
      </trkpt>
      <trkpt lat="37.1785756806" lon="-7.46543705177">
        <ele>10</ele>
        <time>2011-03-21T18:34:39Z</time>
      </trkpt>
      <trkpt lat="37.1785710706" lon="-7.46536622472">
        <ele>10</ele>
        <time>2011-03-21T18:34:41Z</time>
      </trkpt>
      <trkpt lat="37.1785641136" lon="-7.46528944651">
        <ele>10</ele>
        <time>2011-03-21T18:34:43Z</time>
      </trkpt>
      <trkpt lat="37.1785556479" lon="-7.46521551816">
        <ele>10</ele>
        <time>2011-03-21T18:34:45Z</time>
      </trkpt>
      <trkpt lat="37.1785445838" lon="-7.46514904969">
        <ele>10</ele>
        <time>2011-03-21T18:34:47Z</time>
      </trkpt>
      <trkpt lat="37.1785408957" lon="-7.46511753375">
        <ele>10</ele>
        <time>2011-03-21T18:34:48Z</time>
      </trkpt>
      <trkpt lat="37.1785390517" lon="-7.46502608722">
        <ele>10</ele>
        <time>2011-03-21T18:34:51Z</time>
      </trkpt>
      <trkpt lat="37.1785330167" lon="-7.46494285495">
        <ele>10</ele>
        <time>2011-03-21T18:34:53Z</time>
      </trkpt>
      <trkpt lat="37.1785305022" lon="-7.46490295711">
        <ele>10</ele>
        <time>2011-03-21T18:34:54Z</time>
      </trkpt>
      <trkpt lat="37.1785211983" lon="-7.46477647423">
        <ele>10</ele>
        <time>2011-03-21T18:34:57Z</time>
      </trkpt>
      <trkpt lat="37.1785134031" lon="-7.46469776819">
        <ele>10</ele>
        <time>2011-03-21T18:34:59Z</time>
      </trkpt>
      <trkpt lat="37.1785090445" lon="-7.46463373048">
        <ele>10</ele>
        <time>2011-03-21T18:35:01Z</time>
      </trkpt>
      <trkpt lat="37.1784997406" lon="-7.46456608854">
        <ele>10</ele>
        <time>2011-03-21T18:35:03Z</time>
      </trkpt>
      <trkpt lat="37.1784926998" lon="-7.46449148963">
        <ele>10</ele>
        <time>2011-03-21T18:35:05Z</time>
      </trkpt>
      <trkpt lat="37.1784871677" lon="-7.4644092632">
        <ele>10</ele>
        <time>2011-03-21T18:35:07Z</time>
      </trkpt>
      <trkpt lat="37.1784719127" lon="-7.46432846168">
        <ele>10</ele>
        <time>2011-03-21T18:35:09Z</time>
      </trkpt>
      <trkpt lat="37.1784673026" lon="-7.46424916891">
        <ele>10</ele>
        <time>2011-03-21T18:35:11Z</time>
      </trkpt>
      <trkpt lat="37.1784631117" lon="-7.46416610428">
        <ele>10</ele>
        <time>2011-03-21T18:35:13Z</time>
      </trkpt>
      <trkpt lat="37.178453221" lon="-7.46408479985">
        <ele>10.2</ele>
        <time>2011-03-21T18:35:15Z</time>
      </trkpt>
      <trkpt lat="37.1784463479" lon="-7.46399519734">
        <ele>10.6</ele>
        <time>2011-03-21T18:35:17Z</time>
      </trkpt>
      <trkpt lat="37.1784475214" lon="-7.46391556929">
        <ele>10.8</ele>
        <time>2011-03-21T18:35:19Z</time>
      </trkpt>
      <trkpt lat="37.17843981" lon="-7.46383921018">
        <ele>11</ele>
        <time>2011-03-21T18:35:21Z</time>
      </trkpt>
      <trkpt lat="37.1784335236" lon="-7.46375882775">
        <ele>11.2</ele>
        <time>2011-03-21T18:35:23Z</time>
      </trkpt>
      <trkpt lat="37.1784259799" lon="-7.46367693659">
        <ele>11.4</ele>
        <time>2011-03-21T18:35:25Z</time>
      </trkpt>
      <trkpt lat="37.1784217889" lon="-7.46359110594">
        <ele>11.4</ele>
        <time>2011-03-21T18:35:27Z</time>
      </trkpt>
      <trkpt lat="37.1784096352" lon="-7.46350074905">
        <ele>11.6</ele>
        <time>2011-03-21T18:35:29Z</time>
      </trkpt>
      <trkpt lat="37.1783964756" lon="-7.46341994754">
        <ele>11.6</ele>
        <time>2011-03-21T18:35:31Z</time>
      </trkpt>
      <trkpt lat="37.178388429" lon="-7.46333302724">
        <ele>11.8</ele>
        <time>2011-03-21T18:35:33Z</time>
      </trkpt>
      <trkpt lat="37.1783861658" lon="-7.46324795095">
        <ele>11.8</ele>
        <time>2011-03-21T18:35:35Z</time>
      </trkpt>
      <trkpt lat="37.1783820587" lon="-7.46316094683">
        <ele>11.8</ele>
        <time>2011-03-21T18:35:37Z</time>
      </trkpt>
      <trkpt lat="37.1783723357" lon="-7.46307813366">
        <ele>11.8</ele>
        <time>2011-03-21T18:35:39Z</time>
      </trkpt>
      <trkpt lat="37.1783520515" lon="-7.46299523667">
        <ele>11.8</ele>
        <time>2011-03-21T18:35:41Z</time>
      </trkpt>
      <trkpt lat="37.1783384728" lon="-7.46291879374">
        <ele>12</ele>
        <time>2011-03-21T18:35:43Z</time>
      </trkpt>
      <trkpt lat="37.1783345333" lon="-7.46283271162">
        <ele>12</ele>
        <time>2011-03-21T18:35:45Z</time>
      </trkpt>
      <trkpt lat="37.1783247265" lon="-7.46275920236">
        <ele>12</ele>
        <time>2011-03-21T18:35:47Z</time>
      </trkpt>
      <trkpt lat="37.1783156741" lon="-7.46268451963">
        <ele>12</ele>
        <time>2011-03-21T18:35:49Z</time>
      </trkpt>
      <trkpt lat="37.1783007543" lon="-7.46261444695">
        <ele>12</ele>
        <time>2011-03-21T18:35:51Z</time>
      </trkpt>
      <trkpt lat="37.1782914504" lon="-7.46254060241">
        <ele>12</ele>
        <time>2011-03-21T18:35:53Z</time>
      </trkpt>
      <trkpt lat="37.1782751057" lon="-7.46246809897">
        <ele>12</ele>
        <time>2011-03-21T18:35:55Z</time>
      </trkpt>
      <trkpt lat="37.1782614432" lon="-7.46238905766">
        <ele>12</ele>
        <time>2011-03-21T18:35:57Z</time>
      </trkpt>
      <trkpt lat="37.1782503791" lon="-7.4623067474">
        <ele>12</ele>
        <time>2011-03-21T18:35:59Z</time>
      </trkpt>
      <trkpt lat="37.1782433383" lon="-7.46222678407">
        <ele>12</ele>
        <time>2011-03-21T18:36:01Z</time>
      </trkpt>
      <trkpt lat="37.1782487027" lon="-7.46214757512">
        <ele>12</ele>
        <time>2011-03-21T18:36:03Z</time>
      </trkpt>
      <trkpt lat="37.1782513849" lon="-7.46207473641">
        <ele>12</ele>
        <time>2011-03-21T18:36:05Z</time>
      </trkpt>
      <trkpt lat="37.1782538995" lon="-7.46200080805">
        <ele>12</ele>
        <time>2011-03-21T18:36:07Z</time>
      </trkpt>
      <trkpt lat="37.1782452661" lon="-7.46191799488">
        <ele>12</ele>
        <time>2011-03-21T18:36:09Z</time>
      </trkpt>
      <trkpt lat="37.1782430868" lon="-7.46183342151">
        <ele>12</ele>
        <time>2011-03-21T18:36:11Z</time>
      </trkpt>
      <trkpt lat="37.1782524745" lon="-7.46175245235">
        <ele>12</ele>
        <time>2011-03-21T18:36:13Z</time>
      </trkpt>
      <trkpt lat="37.1782616108" lon="-7.46168028419">
        <ele>12</ele>
        <time>2011-03-21T18:36:15Z</time>
      </trkpt>
      <trkpt lat="37.1782771173" lon="-7.46160719403">
        <ele>12</ele>
        <time>2011-03-21T18:36:17Z</time>
      </trkpt>
      <trkpt lat="37.1782930429" lon="-7.46153770807">
        <ele>12</ele>
        <time>2011-03-21T18:36:19Z</time>
      </trkpt>
      <trkpt lat="37.1783030174" lon="-7.46145799621">
        <ele>12</ele>
        <time>2011-03-21T18:36:21Z</time>
      </trkpt>
      <trkpt lat="37.1783157579" lon="-7.46137602122">
        <ele>12</ele>
        <time>2011-03-21T18:36:23Z</time>
      </trkpt>
      <trkpt lat="37.1783191106" lon="-7.46129664463">
        <ele>12</ele>
        <time>2011-03-21T18:36:25Z</time>
      </trkpt>
      <trkpt lat="37.1783179372" lon="-7.46121500492">
        <ele>12</ele>
        <time>2011-03-21T18:36:27Z</time>
      </trkpt>
      <trkpt lat="37.1783170152" lon="-7.46113076683">
        <ele>12</ele>
        <time>2011-03-21T18:36:29Z</time>
      </trkpt>
      <trkpt lat="37.1783219605" lon="-7.46105558119">
        <ele>12</ele>
        <time>2011-03-21T18:36:31Z</time>
      </trkpt>
      <trkpt lat="37.1783354554" lon="-7.46098173665">
        <ele>12</ele>
        <time>2011-03-21T18:36:33Z</time>
      </trkpt>
      <trkpt lat="37.178341155" lon="-7.46090722156">
        <ele>12</ele>
        <time>2011-03-21T18:36:35Z</time>
      </trkpt>
      <trkpt lat="37.1783562425" lon="-7.46079029405">
        <ele>12</ele>
        <time>2011-03-21T18:36:38Z</time>
      </trkpt>
      <trkpt lat="37.1783785383" lon="-7.46071787444">
        <ele>12</ele>
        <time>2011-03-21T18:36:40Z</time>
      </trkpt>
      <trkpt lat="37.1783973976" lon="-7.46064017422">
        <ele>12</ele>
        <time>2011-03-21T18:36:42Z</time>
      </trkpt>
      <trkpt lat="37.1784442524" lon="-7.46048770746">
        <ele>12</ele>
        <time>2011-03-21T18:36:46Z</time>
      </trkpt>
      <trkpt lat="37.1784605971" lon="-7.46041444966">
        <ele>12</ele>
        <time>2011-03-21T18:36:48Z</time>
      </trkpt>
      <trkpt lat="37.1784784506" lon="-7.4603436226">
        <ele>12</ele>
        <time>2011-03-21T18:36:50Z</time>
      </trkpt>
      <trkpt lat="37.1784978966" lon="-7.46026583857">
        <ele>12</ele>
        <time>2011-03-21T18:36:52Z</time>
      </trkpt>
      <trkpt lat="37.1785089607" lon="-7.46018981474">
        <ele>12</ele>
        <time>2011-03-21T18:36:54Z</time>
      </trkpt>
      <trkpt lat="37.1785241319" lon="-7.46011831713">
        <ele>12</ele>
        <time>2011-03-21T18:36:56Z</time>
      </trkpt>
      <trkpt lat="37.1785395546" lon="-7.46005075901">
        <ele>12</ele>
        <time>2011-03-21T18:36:58Z</time>
      </trkpt>
      <trkpt lat="37.178555564" lon="-7.45998135688">
        <ele>11.6</ele>
        <time>2011-03-21T18:37:00Z</time>
      </trkpt>
      <trkpt lat="37.1785724117" lon="-7.45990449486">
        <ele>11.2</ele>
        <time>2011-03-21T18:37:02Z</time>
      </trkpt>
      <trkpt lat="37.1785918577" lon="-7.45983157233">
        <ele>11</ele>
        <time>2011-03-21T18:37:04Z</time>
      </trkpt>
      <trkpt lat="37.1786177577" lon="-7.4597635113">
        <ele>10.8</ele>
        <time>2011-03-21T18:37:06Z</time>
      </trkpt>
      <trkpt lat="37.1786359465" lon="-7.45969352244">
        <ele>10.6</ele>
        <time>2011-03-21T18:37:08Z</time>
      </trkpt>
      <trkpt lat="37.178648184" lon="-7.45962889799">
        <ele>10.6</ele>
        <time>2011-03-21T18:37:10Z</time>
      </trkpt>
      <trkpt lat="37.1786618465" lon="-7.45955781948">
        <ele>10.4</ele>
        <time>2011-03-21T18:37:12Z</time>
      </trkpt>
      <trkpt lat="37.1786751738" lon="-7.45948858498">
        <ele>10.4</ele>
        <time>2011-03-21T18:37:14Z</time>
      </trkpt>
      <trkpt lat="37.1786980563" lon="-7.45941650064">
        <ele>10.2</ele>
        <time>2011-03-21T18:37:16Z</time>
      </trkpt>
      <trkpt lat="37.1787226991" lon="-7.45934215319">
        <ele>10.2</ele>
        <time>2011-03-21T18:37:18Z</time>
      </trkpt>
      <trkpt lat="37.1787509461" lon="-7.45927023649">
        <ele>10.2</ele>
        <time>2011-03-21T18:37:20Z</time>
      </trkpt>
      <trkpt lat="37.1787781873" lon="-7.45919463175">
        <ele>10.2</ele>
        <time>2011-03-21T18:37:22Z</time>
      </trkpt>
      <trkpt lat="37.1788165764" lon="-7.45912556489">
        <ele>10</ele>
        <time>2011-03-21T18:37:24Z</time>
      </trkpt>
      <trkpt lat="37.1788480924" lon="-7.45906580195">
        <ele>10</ele>
        <time>2011-03-21T18:37:26Z</time>
      </trkpt>
      <trkpt lat="37.1788731542" lon="-7.45900964322">
        <ele>10</ele>
        <time>2011-03-21T18:37:28Z</time>
      </trkpt>
      <trkpt lat="37.1788956177" lon="-7.45894879062">
        <ele>10</ele>
        <time>2011-03-21T18:37:30Z</time>
      </trkpt>
      <trkpt lat="37.1789237809" lon="-7.45888852476">
        <ele>10</ele>
        <time>2011-03-21T18:37:32Z</time>
      </trkpt>
      <trkpt lat="37.1789547101" lon="-7.45883295276">
        <ele>10</ele>
        <time>2011-03-21T18:37:34Z</time>
      </trkpt>
      <trkpt lat="37.1789756649" lon="-7.45878308046">
        <ele>10</ele>
        <time>2011-03-21T18:37:36Z</time>
      </trkpt>
      <trkpt lat="37.1789873157" lon="-7.45873840493">
        <ele>10</ele>
        <time>2011-03-21T18:37:38Z</time>
      </trkpt>
      <trkpt lat="37.1789050055" lon="-7.45871535471">
        <ele>10</ele>
        <time>2011-03-21T18:37:42Z</time>
      </trkpt>
      <trkpt lat="37.1788371121" lon="-7.45871728254">
        <ele>10</ele>
        <time>2011-03-21T18:37:44Z</time>
      </trkpt>
      <trkpt lat="37.1787798637" lon="-7.45870269804">
        <ele>10</ele>
        <time>2011-03-21T18:37:46Z</time>
      </trkpt>
      <trkpt lat="37.1787201846" lon="-7.45867864198">
        <ele>10</ele>
        <time>2011-03-21T18:37:48Z</time>
      </trkpt>
      <trkpt lat="37.1786586614" lon="-7.45864503057">
        <ele>10</ele>
        <time>2011-03-21T18:37:50Z</time>
      </trkpt>
      <trkpt lat="37.1786031732" lon="-7.45860655764">
        <ele>10</ele>
        <time>2011-03-21T18:37:52Z</time>
      </trkpt>
      <trkpt lat="37.1785510378" lon="-7.45855987046">
        <ele>10</ele>
        <time>2011-03-21T18:37:54Z</time>
      </trkpt>
      <trkpt lat="37.1785044345" lon="-7.45850387937">
        <ele>10</ele>
        <time>2011-03-21T18:37:56Z</time>
      </trkpt>
      <trkpt lat="37.1784683085" lon="-7.45843883583">
        <ele>10</ele>
        <time>2011-03-21T18:37:58Z</time>
      </trkpt>
      <trkpt lat="37.1784382174" lon="-7.45837463047">
        <ele>10</ele>
        <time>2011-03-21T18:38:00Z</time>
      </trkpt>
      <trkpt lat="37.1784164245" lon="-7.45830179176">
        <ele>10</ele>
        <time>2011-03-21T18:38:02Z</time>
      </trkpt>
      <trkpt lat="37.1784015885" lon="-7.45822928833">
        <ele>10</ele>
        <time>2011-03-21T18:38:04Z</time>
      </trkpt>
      <trkpt lat="37.1783985711" lon="-7.45815385123">
        <ele>10</ele>
        <time>2011-03-21T18:38:06Z</time>
      </trkpt>
      <trkpt lat="37.1784049413" lon="-7.45807925232">
        <ele>10</ele>
        <time>2011-03-21T18:38:08Z</time>
      </trkpt>
      <trkpt lat="37.1784081264" lon="-7.45801110747">
        <ele>10</ele>
        <time>2011-03-21T18:38:10Z</time>
      </trkpt>
      <trkpt lat="37.1784139938" lon="-7.45793709529">
        <ele>10</ele>
        <time>2011-03-21T18:38:12Z</time>
      </trkpt>
      <trkpt lat="37.1784190229" lon="-7.45786484331">
        <ele>10</ele>
        <time>2011-03-21T18:38:14Z</time>
      </trkpt>
      <trkpt lat="37.178425477" lon="-7.4577924237">
        <ele>10</ele>
        <time>2011-03-21T18:38:16Z</time>
      </trkpt>
      <trkpt lat="37.1784435819" lon="-7.45772075845">
        <ele>10</ele>
        <time>2011-03-21T18:38:18Z</time>
      </trkpt>
      <trkpt lat="37.1784557356" lon="-7.45768748231">
        <ele>10</ele>
        <time>2011-03-21T18:38:19Z</time>
      </trkpt>
      <trkpt lat="37.1784723318" lon="-7.45758128364">
        <ele>10</ele>
        <time>2011-03-21T18:38:22Z</time>
      </trkpt>
      <trkpt lat="37.1784696496" lon="-7.45750810965">
        <ele>10</ele>
        <time>2011-03-21T18:38:24Z</time>
      </trkpt>
      <trkpt lat="37.1784568253" lon="-7.45743736641">
        <ele>10</ele>
        <time>2011-03-21T18:38:26Z</time>
      </trkpt>
      <trkpt lat="37.1784490301" lon="-7.45739973168">
        <ele>10</ele>
        <time>2011-03-21T18:38:27Z</time>
      </trkpt>
      <trkpt lat="37.1784402291" lon="-7.45732228293">
        <ele>10</ele>
        <time>2011-03-21T18:38:29Z</time>
      </trkpt>
      <trkpt lat="37.1784350323" lon="-7.45724852221">
        <ele>10</ele>
        <time>2011-03-21T18:38:31Z</time>
      </trkpt>
      <trkpt lat="37.1784305061" lon="-7.45716881034">
        <ele>10</ele>
        <time>2011-03-21T18:38:33Z</time>
      </trkpt>
      <trkpt lat="37.1784316796" lon="-7.45709395997">
        <ele>10</ele>
        <time>2011-03-21T18:38:35Z</time>
      </trkpt>
      <trkpt lat="37.1784293326" lon="-7.4570164274">
        <ele>10</ele>
        <time>2011-03-21T18:38:37Z</time>
      </trkpt>
      <trkpt lat="37.1784191905" lon="-7.45694384014">
        <ele>10</ele>
        <time>2011-03-21T18:38:39Z</time>
      </trkpt>
      <trkpt lat="37.1784093837" lon="-7.45687049852">
        <ele>10</ele>
        <time>2011-03-21T18:38:41Z</time>
      </trkpt>
      <trkpt lat="37.1783381376" lon="-7.45673865123">
        <ele>10</ele>
        <time>2011-03-21T18:38:45Z</time>
      </trkpt>
      <trkpt lat="37.1782964795" lon="-7.45667218276">
        <ele>10</ele>
        <time>2011-03-21T18:38:47Z</time>
      </trkpt>
      <trkpt lat="37.1782404884" lon="-7.45662004734">
        <ele>10</ele>
        <time>2011-03-21T18:38:49Z</time>
      </trkpt>
      <trkpt lat="37.1782143369" lon="-7.45660102043">
        <ele>10</ele>
        <time>2011-03-21T18:38:50Z</time>
      </trkpt>
      <trkpt lat="37.1781588487" lon="-7.45655860802">
        <ele>10.4</ele>
        <time>2011-03-21T18:38:52Z</time>
      </trkpt>
      <trkpt lat="37.1781073" lon="-7.45650613732">
        <ele>10.6</ele>
        <time>2011-03-21T18:38:54Z</time>
      </trkpt>
      <trkpt lat="37.1780535721" lon="-7.45645886341">
        <ele>11</ele>
        <time>2011-03-21T18:38:56Z</time>
      </trkpt>
      <trkpt lat="37.1780024425" lon="-7.45641661863">
        <ele>11.2</ele>
        <time>2011-03-21T18:38:58Z</time>
      </trkpt>
      <trkpt lat="37.1779682443" lon="-7.45636322593">
        <ele>11.2</ele>
        <time>2011-03-21T18:39:00Z</time>
      </trkpt>
      <trkpt lat="37.1779587728" lon="-7.45629332088">
        <ele>11.4</ele>
        <time>2011-03-21T18:39:02Z</time>
      </trkpt>
      <trkpt lat="37.1779629637" lon="-7.45622073363">
        <ele>11.6</ele>
        <time>2011-03-21T18:39:04Z</time>
      </trkpt>
      <trkpt lat="37.1779696692" lon="-7.45614110558">
        <ele>11.6</ele>
        <time>2011-03-21T18:39:06Z</time>
      </trkpt>
      <trkpt lat="37.1779770453" lon="-7.45606206426">
        <ele>11.8</ele>
        <time>2011-03-21T18:39:08Z</time>
      </trkpt>
      <trkpt lat="37.1779884447" lon="-7.45598562133">
        <ele>11.8</ele>
        <time>2011-03-21T18:39:10Z</time>
      </trkpt>
      <trkpt lat="37.1779995926" lon="-7.45590557419">
        <ele>11.8</ele>
        <time>2011-03-21T18:39:12Z</time>
      </trkpt>
      <trkpt lat="37.1780055438" lon="-7.45582318011">
        <ele>11.8</ele>
        <time>2011-03-21T18:39:14Z</time>
      </trkpt>
      <trkpt lat="37.1780150153" lon="-7.45574598281">
        <ele>11.8</ele>
        <time>2011-03-21T18:39:16Z</time>
      </trkpt>
      <trkpt lat="37.1780242354" lon="-7.45566442693">
        <ele>12</ele>
        <time>2011-03-21T18:39:18Z</time>
      </trkpt>
      <trkpt lat="37.1780356348" lon="-7.45558806782">
        <ele>12</ele>
        <time>2011-03-21T18:39:20Z</time>
      </trkpt>
      <trkpt lat="37.1780464474" lon="-7.45550617665">
        <ele>12</ele>
        <time>2011-03-21T18:39:22Z</time>
      </trkpt>
      <trkpt lat="37.1780573439" lon="-7.45542562659">
        <ele>12</ele>
        <time>2011-03-21T18:39:24Z</time>
      </trkpt>
      <trkpt lat="37.1780695815" lon="-7.4553484293">
        <ele>12</ele>
        <time>2011-03-21T18:39:26Z</time>
      </trkpt>
      <trkpt lat="37.1780819867" lon="-7.45527056144">
        <ele>12</ele>
        <time>2011-03-21T18:39:28Z</time>
      </trkpt>
      <trkpt lat="37.1780946434" lon="-7.45519269359">
        <ele>12</ele>
        <time>2011-03-21T18:39:30Z</time>
      </trkpt>
      <trkpt lat="37.1781062104" lon="-7.45511130534">
        <ele>12</ele>
        <time>2011-03-21T18:39:32Z</time>
      </trkpt>
      <trkpt lat="37.1781157658" lon="-7.45499521603">
        <ele>12</ele>
        <time>2011-03-21T18:39:35Z</time>
      </trkpt>
      <trkpt lat="37.178117526" lon="-7.45491944365">
        <ele>12</ele>
        <time>2011-03-21T18:39:37Z</time>
      </trkpt>
      <trkpt lat="37.1781156819" lon="-7.45484886806">
        <ele>12</ele>
        <time>2011-03-21T18:39:39Z</time>
      </trkpt>
      <trkpt lat="37.1781130835" lon="-7.45478214813">
        <ele>12</ele>
        <time>2011-03-21T18:39:41Z</time>
      </trkpt>
      <trkpt lat="37.1781136703" lon="-7.45471727223">
        <ele>12</ele>
        <time>2011-03-21T18:39:44Z</time>
      </trkpt>
      <trkpt lat="37.1781260755" lon="-7.45463873382">
        <ele>12</ele>
        <time>2011-03-21T18:39:47Z</time>
      </trkpt>
      <trkpt lat="37.1781431746" lon="-7.45456329672">
        <ele>12</ele>
        <time>2011-03-21T18:39:49Z</time>
      </trkpt>
      <trkpt lat="37.1781561665" lon="-7.45449272112">
        <ele>12</ele>
        <time>2011-03-21T18:39:51Z</time>
      </trkpt>
      <trkpt lat="37.1781649675" lon="-7.45441292544">
        <ele>12</ele>
        <time>2011-03-21T18:39:53Z</time>
      </trkpt>
      <trkpt lat="37.1781808093" lon="-7.45433824271">
        <ele>12</ele>
        <time>2011-03-21T18:39:55Z</time>
      </trkpt>
      <trkpt lat="37.178191119" lon="-7.45426087777">
        <ele>12</ele>
        <time>2011-03-21T18:39:57Z</time>
      </trkpt>
      <trkpt lat="37.178201764" lon="-7.45418401575">
        <ele>12</ele>
        <time>2011-03-21T18:39:59Z</time>
      </trkpt>
      <trkpt lat="37.1782188631" lon="-7.45410874629">
        <ele>12</ele>
        <time>2011-03-21T18:40:01Z</time>
      </trkpt>
      <trkpt lat="37.1782341182" lon="-7.45403716486">
        <ele>12</ele>
        <time>2011-03-21T18:40:03Z</time>
      </trkpt>
      <trkpt lat="37.1782486189" lon="-7.4539632365">
        <ele>12</ele>
        <time>2011-03-21T18:40:05Z</time>
      </trkpt>
      <trkpt lat="37.1782610241" lon="-7.45388654212">
        <ele>12</ele>
        <time>2011-03-21T18:40:07Z</time>
      </trkpt>
      <trkpt lat="37.1782726749" lon="-7.45381085356">
        <ele>12</ele>
        <time>2011-03-21T18:40:09Z</time>
      </trkpt>
      <trkpt lat="37.1782822303" lon="-7.45373348862">
        <ele>12</ele>
        <time>2011-03-21T18:40:11Z</time>
      </trkpt>
      <trkpt lat="37.1782918695" lon="-7.45365562077">
        <ele>12</ele>
        <time>2011-03-21T18:40:13Z</time>
      </trkpt>
      <trkpt lat="37.1783010896" lon="-7.45358110568">
        <ele>12</ele>
        <time>2011-03-21T18:40:15Z</time>
      </trkpt>
      <trkpt lat="37.1783113155" lon="-7.45350097472">
        <ele>12</ele>
        <time>2011-03-21T18:40:17Z</time>
      </trkpt>
      <trkpt lat="37.1783186077" lon="-7.45342126285">
        <ele>12</ele>
        <time>2011-03-21T18:40:19Z</time>
      </trkpt>
      <trkpt lat="37.1783253133" lon="-7.45334490374">
        <ele>12</ele>
        <time>2011-03-21T18:40:21Z</time>
      </trkpt>
      <trkpt lat="37.1783350363" lon="-7.4532697181">
        <ele>11.6</ele>
        <time>2011-03-21T18:40:23Z</time>
      </trkpt>
      <trkpt lat="37.17834258" lon="-7.45319419718">
        <ele>11.4</ele>
        <time>2011-03-21T18:40:25Z</time>
      </trkpt>
      <trkpt lat="37.1783474415" lon="-7.45311624551">
        <ele>11</ele>
        <time>2011-03-21T18:40:27Z</time>
      </trkpt>
      <trkpt lat="37.1783570807" lon="-7.45303494108">
        <ele>10.8</ele>
        <time>2011-03-21T18:40:29Z</time>
      </trkpt>
      <trkpt lat="37.1783674742" lon="-7.45295774378">
        <ele>10.6</ele>
        <time>2011-03-21T18:40:31Z</time>
      </trkpt>
      <trkpt lat="37.1783888481" lon="-7.45276454098">
        <ele>10.4</ele>
        <time>2011-03-21T18:40:36Z</time>
      </trkpt>
      <trkpt lat="37.1783974814" lon="-7.45268642167">
        <ele>10.4</ele>
        <time>2011-03-21T18:40:38Z</time>
      </trkpt>
      <trkpt lat="37.1784054442" lon="-7.45260939201">
        <ele>10.2</ele>
        <time>2011-03-21T18:40:40Z</time>
      </trkpt>
      <trkpt lat="37.1784127365" lon="-7.4525281714">
        <ele>10.2</ele>
        <time>2011-03-21T18:40:42Z</time>
      </trkpt>
      <trkpt lat="37.1784204478" lon="-7.45245105792">
        <ele>10.2</ele>
        <time>2011-03-21T18:40:44Z</time>
      </trkpt>
      <trkpt lat="37.1784293326" lon="-7.45237888976">
        <ele>10.2</ele>
        <time>2011-03-21T18:40:46Z</time>
      </trkpt>
      <trkpt lat="37.1784430789" lon="-7.4522952384">
        <ele>10</ele>
        <time>2011-03-21T18:40:48Z</time>
      </trkpt>
      <trkpt lat="37.1784496168" lon="-7.45221938221">
        <ele>10</ele>
        <time>2011-03-21T18:40:50Z</time>
      </trkpt>
      <trkpt lat="37.1784586693" lon="-7.45213874833">
        <ele>10</ele>
        <time>2011-03-21T18:40:52Z</time>
      </trkpt>
      <trkpt lat="37.1784618544" lon="-7.45206062902">
        <ele>10</ele>
        <time>2011-03-21T18:40:54Z</time>
      </trkpt>
      <trkpt lat="37.178467135" lon="-7.45198150388">
        <ele>10</ele>
        <time>2011-03-21T18:40:56Z</time>
      </trkpt>
      <trkpt lat="37.1784725832" lon="-7.45191126356">
        <ele>10</ele>
        <time>2011-03-21T18:40:58Z</time>
      </trkpt>
      <trkpt lat="37.1784534725" lon="-7.45184060415">
        <ele>10</ele>
        <time>2011-03-21T18:41:00Z</time>
      </trkpt>
      <trkpt lat="37.1784144129" lon="-7.4517777399">
        <ele>10</ele>
        <time>2011-03-21T18:41:02Z</time>
      </trkpt>
      <trkpt lat="37.1783821425" lon="-7.45171806077">
        <ele>10</ele>
        <time>2011-03-21T18:41:04Z</time>
      </trkpt>
      <trkpt lat="37.1783375508" lon="-7.4516687752">
        <ele>10</ele>
        <time>2011-03-21T18:41:06Z</time>
      </trkpt>
      <trkpt lat="37.1782973177" lon="-7.45161965726">
        <ele>10</ele>
        <time>2011-03-21T18:41:08Z</time>
      </trkpt>
      <trkpt lat="37.1782645445" lon="-7.45156140306">
        <ele>10</ele>
        <time>2011-03-21T18:41:10Z</time>
      </trkpt>
      <trkpt lat="37.1782414104" lon="-7.45148864816">
        <ele>10</ele>
        <time>2011-03-21T18:41:12Z</time>
      </trkpt>
      <trkpt lat="37.1782373871" lon="-7.45141698292">
        <ele>10</ele>
        <time>2011-03-21T18:41:14Z</time>
      </trkpt>
      <trkpt lat="37.1782413266" lon="-7.45134288692">
        <ele>10</ele>
        <time>2011-03-21T18:41:16Z</time>
      </trkpt>
      <trkpt lat="37.1782579228" lon="-7.45126937766">
        <ele>10</ele>
        <time>2011-03-21T18:41:18Z</time>
      </trkpt>
      <trkpt lat="37.1782902769" lon="-7.451210872">
        <ele>10</ele>
        <time>2011-03-21T18:41:20Z</time>
      </trkpt>
      <trkpt lat="37.17833051" lon="-7.45116099969">
        <ele>10</ele>
        <time>2011-03-21T18:41:22Z</time>
      </trkpt>
      <trkpt lat="37.1783723357" lon="-7.451127053">
        <ele>10</ele>
        <time>2011-03-21T18:41:24Z</time>
      </trkpt>
      <trkpt lat="37.1784227948" lon="-7.45109780017">
        <ele>10</ele>
        <time>2011-03-21T18:41:26Z</time>
      </trkpt>
      <trkpt lat="37.1784771095" lon="-7.45107860562">
        <ele>10</ele>
        <time>2011-03-21T18:41:28Z</time>
      </trkpt>
      <trkpt lat="37.178513906" lon="-7.45106184182">
        <ele>10</ele>
        <time>2011-03-21T18:41:29Z</time>
      </trkpt>
      <trkpt lat="37.1785636107" lon="-7.4509739995">
        <ele>10</ele>
        <time>2011-03-21T18:41:32Z</time>
      </trkpt>
      <trkpt lat="37.1785825538" lon="-7.45086352606">
        <ele>10</ele>
        <time>2011-03-21T18:41:35Z</time>
      </trkpt>
      <trkpt lat="37.1785942046" lon="-7.45078305982">
        <ele>10</ele>
        <time>2011-03-21T18:41:37Z</time>
      </trkpt>
      <trkpt lat="37.1786036762" lon="-7.45071097548">
        <ele>10</ele>
        <time>2011-03-21T18:41:39Z</time>
      </trkpt>
      <trkpt lat="37.1786193503" lon="-7.45063419728">
        <ele>10</ele>
        <time>2011-03-21T18:41:41Z</time>
      </trkpt>
      <trkpt lat="37.1786341025" lon="-7.45056286731">
        <ele>10</ele>
        <time>2011-03-21T18:41:43Z</time>
      </trkpt>
      <trkpt lat="37.1786468429" lon="-7.45048508328">
        <ele>10</ele>
        <time>2011-03-21T18:41:45Z</time>
      </trkpt>
      <trkpt lat="37.1786549734" lon="-7.4504079698">
        <ele>10</ele>
        <time>2011-03-21T18:41:47Z</time>
      </trkpt>
      <trkpt lat="37.1786668757" lon="-7.45033052104">
        <ele>10</ele>
        <time>2011-03-21T18:41:49Z</time>
      </trkpt>
      <trkpt lat="37.1786768501" lon="-7.45025801761">
        <ele>10</ele>
        <time>2011-03-21T18:41:51Z</time>
      </trkpt>
      <trkpt lat="37.1786848968" lon="-7.4501798983">
        <ele>10</ele>
        <time>2011-03-21T18:41:53Z</time>
      </trkpt>
      <trkpt lat="37.1786910994" lon="-7.4500960793">
        <ele>10</ele>
        <time>2011-03-21T18:41:55Z</time>
      </trkpt>
      <trkpt lat="37.1787035046" lon="-7.45001653507">
        <ele>10</ele>
        <time>2011-03-21T18:41:57Z</time>
      </trkpt>
      <trkpt lat="37.1787087014" lon="-7.44994269053">
        <ele>10</ele>
        <time>2011-03-21T18:41:59Z</time>
      </trkpt>
      <trkpt lat="37.1787149878" lon="-7.44986549323">
        <ele>10</ele>
        <time>2011-03-21T18:42:01Z</time>
      </trkpt>
      <trkpt lat="37.1787168318" lon="-7.44978913412">
        <ele>10</ele>
        <time>2011-03-21T18:42:03Z</time>
      </trkpt>
      <trkpt lat="37.1787211066" lon="-7.44971101481">
        <ele>10</ele>
        <time>2011-03-21T18:42:05Z</time>
      </trkpt>
      <trkpt lat="37.1787307458" lon="-7.44963415279">
        <ele>10</ele>
        <time>2011-03-21T18:42:07Z</time>
      </trkpt>
      <trkpt lat="37.1787410555" lon="-7.44955553057">
        <ele>10</ele>
        <time>2011-03-21T18:42:09Z</time>
      </trkpt>
      <trkpt lat="37.1787507785" lon="-7.44948034492">
        <ele>10</ele>
        <time>2011-03-21T18:42:11Z</time>
      </trkpt>
      <trkpt lat="37.1787596633" lon="-7.44939828612">
        <ele>10</ele>
        <time>2011-03-21T18:42:13Z</time>
      </trkpt>
      <trkpt lat="37.1787650277" lon="-7.44932092119">
        <ele>10</ele>
        <time>2011-03-21T18:42:15Z</time>
      </trkpt>
      <trkpt lat="37.1787740802" lon="-7.44924255042">
        <ele>10</ele>
        <time>2011-03-21T18:42:17Z</time>
      </trkpt>
      <trkpt lat="37.1787915145" lon="-7.44916811915">
        <ele>10</ele>
        <time>2011-03-21T18:42:19Z</time>
      </trkpt>
      <trkpt lat="37.1788078592" lon="-7.44909628627">
        <ele>10</ele>
        <time>2011-03-21T18:42:21Z</time>
      </trkpt>
      <trkpt lat="37.1788161573" lon="-7.44901690967">
        <ele>10</ele>
        <time>2011-03-21T18:42:23Z</time>
      </trkpt>
      <trkpt lat="37.1788284787" lon="-7.44894457388">
        <ele>10</ele>
        <time>2011-03-21T18:42:25Z</time>
      </trkpt>
      <trkpt lat="37.1788331726" lon="-7.4488621798">
        <ele>10</ele>
        <time>2011-03-21T18:42:27Z</time>
      </trkpt>
      <trkpt lat="37.1788400457" lon="-7.44878271939">
        <ele>10</ele>
        <time>2011-03-21T18:42:29Z</time>
      </trkpt>
      <trkpt lat="37.1788439852" lon="-7.44870384571">
        <ele>10</ele>
        <time>2011-03-21T18:42:31Z</time>
      </trkpt>
      <trkpt lat="37.1788463322" lon="-7.44862715132">
        <ele>10</ele>
        <time>2011-03-21T18:42:33Z</time>
      </trkpt>
      <trkpt lat="37.178850104" lon="-7.44855129513">
        <ele>10</ele>
        <time>2011-03-21T18:42:35Z</time>
      </trkpt>
      <trkpt lat="37.1788585697" lon="-7.44847686386">
        <ele>10</ele>
        <time>2011-03-21T18:42:37Z</time>
      </trkpt>
      <trkpt lat="37.1788617549" lon="-7.44839857691">
        <ele>10</ele>
        <time>2011-03-21T18:42:39Z</time>
      </trkpt>
      <trkpt lat="37.1788692986" lon="-7.44831978705">
        <ele>10</ele>
        <time>2011-03-21T18:42:41Z</time>
      </trkpt>
      <trkpt lat="37.178879273" lon="-7.4482485409">
        <ele>10</ele>
        <time>2011-03-21T18:42:43Z</time>
      </trkpt>
      <trkpt lat="37.1788874035" lon="-7.44817268471">
        <ele>10</ele>
        <time>2011-03-21T18:42:45Z</time>
      </trkpt>
      <trkpt lat="37.178897797" lon="-7.44809163173">
        <ele>10</ele>
        <time>2011-03-21T18:42:47Z</time>
      </trkpt>
      <trkpt lat="37.1789074362" lon="-7.44801259042">
        <ele>10</ele>
        <time>2011-03-21T18:42:49Z</time>
      </trkpt>
      <trkpt lat="37.1789125492" lon="-7.44794293683">
        <ele>10</ele>
        <time>2011-03-21T18:42:51Z</time>
      </trkpt>
      <trkpt lat="37.1789202605" lon="-7.44787244505">
        <ele>10</ele>
        <time>2011-03-21T18:42:53Z</time>
      </trkpt>
      <trkpt lat="37.1789299835" lon="-7.44780773678">
        <ele>10</ele>
        <time>2011-03-21T18:42:55Z</time>
      </trkpt>
      <trkpt lat="37.1789380301" lon="-7.44773473043">
        <ele>10</ele>
        <time>2011-03-21T18:42:57Z</time>
      </trkpt>
      <trkpt lat="37.178948759" lon="-7.44766306518">
        <ele>10</ele>
        <time>2011-03-21T18:42:59Z</time>
      </trkpt>
      <trkpt lat="37.1789582305" lon="-7.44759207049">
        <ele>10</ele>
        <time>2011-03-21T18:43:01Z</time>
      </trkpt>
      <trkpt lat="37.1789811969" lon="-7.44753599558">
        <ele>10</ele>
        <time>2011-03-21T18:43:03Z</time>
      </trkpt>
      <trkpt lat="37.1790029899" lon="-7.44751805832">
        <ele>10</ele>
        <time>2011-03-21T18:43:04Z</time>
      </trkpt>
      <trkpt lat="37.1790581428" lon="-7.44750515019">
        <ele>10</ele>
        <time>2011-03-21T18:43:06Z</time>
      </trkpt>
      <trkpt lat="37.1791082665" lon="-7.44750506637">
        <ele>10</ele>
        <time>2011-03-21T18:43:08Z</time>
      </trkpt>
      <trkpt lat="37.1791592285" lon="-7.44750640747">
        <ele>10</ele>
        <time>2011-03-21T18:43:10Z</time>
      </trkpt>
      <trkpt lat="37.1791833684" lon="-7.44750347381">
        <ele>10</ele>
        <time>2011-03-21T18:43:11Z</time>
      </trkpt>
      <trkpt lat="37.179254866" lon="-7.44748369253">
        <ele>10</ele>
        <time>2011-03-21T18:43:14Z</time>
      </trkpt>
      <trkpt lat="37.179278" lon="-7.44746894038">
        <ele>10</ele>
        <time>2011-03-21T18:43:15Z</time>
      </trkpt>
      <trkpt lat="37.1793065823" lon="-7.44738051134">
        <ele>10</ele>
        <time>2011-03-21T18:43:18Z</time>
      </trkpt>
      <trkpt lat="37.1793149642" lon="-7.44731412669">
        <ele>10</ele>
        <time>2011-03-21T18:43:20Z</time>
      </trkpt>
      <trkpt lat="37.1793142098" lon="-7.44724220999">
        <ele>10</ele>
        <time>2011-03-21T18:43:22Z</time>
      </trkpt>
      <trkpt lat="37.1793136231" lon="-7.44717314313">
        <ele>10</ele>
        <time>2011-03-21T18:43:24Z</time>
      </trkpt>
      <trkpt lat="37.179308091" lon="-7.44710633939">
        <ele>10</ele>
        <time>2011-03-21T18:43:26Z</time>
      </trkpt>
      <trkpt lat="37.1792949314" lon="-7.4470345065">
        <ele>10</ele>
        <time>2011-03-21T18:43:28Z</time>
      </trkpt>
      <trkpt lat="37.1792878068" lon="-7.44696393091">
        <ele>10</ele>
        <time>2011-03-21T18:43:30Z</time>
      </trkpt>
      <trkpt lat="37.1792862143" lon="-7.44688899672">
        <ele>10</ele>
        <time>2011-03-21T18:43:32Z</time>
      </trkpt>
      <trkpt lat="37.179279844" lon="-7.44681708002">
        <ele>10</ele>
        <time>2011-03-21T18:43:34Z</time>
      </trkpt>
      <trkpt lat="37.1792732223" lon="-7.44674373839">
        <ele>10</ele>
        <time>2011-03-21T18:43:36Z</time>
      </trkpt>
    </trkseg>
  </trk>
</gpx>